[[{"header":{"parameterUnit":"m.s-1","parameterCategory":1,"la1":30.6,"la2":29.2853,"lo1":-89.7004,"lo2":-87.6739,"dy":0.0162,"dx":0.0183,"nx":112,"ny":82,"refTime":"2024-03-12T12:00:00:Z","depth":0,"parameterNumber":2,"parameterNumberName":"U-component_of_WINDS"},"data":[0.0,0.0,0.0,0.0,0.0,0.0,0.0,0.0,0.0,0.0,0.0,0.0,0.0,0.0,0.0,0.0,0.0,0.0,0.0,0.0,0.0,0.0,0.0,0.0,0.0,0.0,0.0,0.0,0.0,0.0,0.0,0.0,0.0,0.0,0.0,0.0,0.0,0.0,0.0,0.0,0.0,0.0,0.0,0.0,0.0,0.0,0.0,0.0,0.0,0.0,0.0,0.0,0.0,0.0,0.0,0.0,0.0,0.0,0.0,0.0,0.0,0.0,0.0,0.0,0.0,0.0,0.0,0.0,0.0,0.0,0.0,0.0,0.0,0.0,0.0,0.0,0.0,0.0,0.0,0.0,0.0,0.0,0.0,0.0,0.0,0.0,0.0,0.0,0.0,0.0,0.0,-1.927,-2.036,-2.069,-2.0131,-1.9344,-1.7869,-1.5492,0.0,0.0,0.0,0.0,0.0,0.0,0.0,0.0,0.0,0.0,0.0,0.0,0.0,0.0,0.0,0.0,0.0,0.0,0.0,0.0,0.0,0.0,0.0,0.0,0.0,0.0,0.0,0.0,0.0,0.0,0.0,0.0,0.0,0.0,0.0,0.0,0.0,0.0,0.0,0.0,0.0,0.0,0.0,0.0,0.0,0.0,0.0,0.0,0.0,0.0,0.0,0.0,0.0,0.0,0.0,0.0,0.0,0.0,0.0,0.0,0.0,0.0,0.0,0.0,0.0,0.0,0.0,0.0,0.0,0.0,0.0,0.0,0.0,0.0,0.0,0.0,0.0,0.0,0.0,0.0,0.0,0.0,0.0,0.0,0.0,0.0,0.0,0.0,0.0,0.0,0.0,0.0,0.0,0.0,0.0,0.0,0.0,0.0,0.0,0.0,0.0,0.0,0.0,0.0,-1.7628,-1.9699,-2.0864,-2.1243,-2.0567,-1.9143,-1.7786,-1.6531,0.0,0.0,0.0,0.0,0.0,0.0,0.0,0.0,0.0,0.0,0.0,0.0,0.0,0.0,0.0,0.0,0.0,0.0,0.0,0.0,0.0,0.0,0.0,0.0,0.0,0.0,0.0,0.0,0.0,0.0,0.0,0.0,0.0,0.0,0.0,0.0,0.0,0.0,0.0,0.0,0.0,0.0,0.0,0.0,0.0,0.0,0.0,0.0,0.0,0.0,0.0,0.0,0.0,0.0,0.0,0.0,0.0,0.0,0.0,0.0,0.0,0.0,0.0,0.0,0.0,0.0,0.0,0.0,0.0,0.0,0.0,0.0,0.0,0.0,0.0,0.0,0.0,0.0,0.0,0.0,0.0,0.0,0.0,0.0,0.0,0.0,0.0,0.0,0.0,0.0,0.0,0.0,0.0,0.0,0.0,0.0,0.0,0.0,0.0,0.0,0.0,0.0,0.0,-1.7387,-1.8236,-1.9734,-2.0338,-2.0382,-1.9768,-1.8518,-1.7335,-1.633,-1.5718,0.0,0.0,0.0,0.0,0.0,0.0,0.0,0.0,0.0,0.0,0.0,0.0,0.0,0.0,0.0,0.0,0.0,0.0,0.0,0.0,0.0,0.0,0.0,0.0,0.0,0.0,0.0,0.0,0.0,0.0,0.0,0.0,0.0,0.0,0.0,0.0,0.0,0.0,0.0,0.0,0.0,0.0,0.0,0.0,0.0,0.0,0.0,0.0,0.0,0.0,0.0,0.0,0.0,0.0,0.0,0.0,0.0,0.0,0.0,0.0,0.0,0.0,0.0,0.0,0.0,0.0,0.0,0.0,0.0,0.0,0.0,0.0,0.0,0.0,0.0,0.0,0.0,0.0,0.0,0.0,0.0,0.0,0.0,0.0,0.0,0.0,0.0,0.0,0.0,0.0,0.0,0.0,0.0,0.0,0.0,0.0,0.0,0.0,0.0,0.0,0.0,0.0,-1.8209,-1.8614,-1.97,-1.97,-1.9459,-1.9023,-1.7796,-1.6693,-1.596,-1.4807,0.0,0.0,0.0,0.0,0.0,0.0,0.0,0.0,0.0,0.0,0.0,0.0,0.0,0.0,0.0,0.0,0.0,0.0,0.0,0.0,0.0,0.0,0.0,0.0,0.0,0.0,0.0,0.0,0.0,0.0,0.0,0.0,0.0,0.0,0.0,0.0,0.0,0.0,0.0,0.0,0.0,0.0,0.0,0.0,0.0,0.0,0.0,0.0,0.0,0.0,0.0,0.0,0.0,0.0,0.0,0.0,0.0,0.0,0.0,0.0,0.0,0.0,0.0,0.0,0.0,0.0,0.0,0.0,0.0,0.0,0.0,0.0,0.0,0.0,0.0,0.0,0.0,0.0,0.0,0.0,0.0,0.0,0.0,0.0,0.0,0.0,0.0,0.0,0.0,0.0,0.0,0.0,0.0,0.0,0.0,0.0,0.0,0.0,0.0,0.0,0.0,0.0,-1.7992,-1.8614,-1.97,-1.9336,-1.9023,-1.8999,-1.7099,-1.5911,-1.5914,-1.4472,0.0,0.0,0.0,0.0,0.0,0.0,0.0,0.0,0.0,0.0,0.0,0.0,0.0,0.0,0.0,0.0,0.0,0.0,0.0,0.0,0.0,0.0,0.0,0.0,0.0,0.0,0.0,0.0,0.0,0.0,0.0,0.0,0.0,0.0,0.0,0.0,0.0,0.0,0.0,0.0,0.0,0.0,0.0,0.0,0.0,0.0,0.0,0.0,0.0,0.0,0.0,0.0,0.0,0.0,0.0,0.0,0.0,0.0,0.0,0.0,0.0,0.0,0.0,0.0,0.0,0.0,0.0,0.0,0.0,0.0,0.0,0.0,0.0,0.0,0.0,0.0,0.0,0.0,0.0,0.0,0.0,0.0,0.0,0.0,0.0,0.0,0.0,0.0,0.0,0.0,0.0,0.0,0.0,0.0,0.0,0.0,0.0,0.0,0.0,0.0,0.0,0.0,-1.7653,-1.7989,0.0,-1.8614,-1.8229,-1.758,-1.6451,-1.5809,-1.5842,0.0,0.0,0.0,0.0,0.0,0.0,0.0,0.0,0.0,0.0,0.0,0.0,0.0,0.0,0.0,0.0,0.0,0.0,0.0,0.0,0.0,0.0,0.0,0.0,0.0,0.0,0.0,0.0,0.0,0.0,0.0,0.0,0.0,0.0,0.0,0.0,0.0,0.0,0.0,0.0,0.0,0.0,0.0,0.0,0.0,0.0,0.0,0.0,0.0,0.0,0.0,0.0,0.0,0.0,0.0,0.0,0.0,0.0,0.0,0.0,0.0,0.0,0.0,0.0,0.0,0.0,0.0,0.0,0.0,0.0,0.0,0.0,0.0,0.0,0.0,0.0,0.0,0.0,0.0,0.0,0.0,0.0,0.0,0.0,0.0,0.0,0.0,0.0,0.0,0.0,0.0,0.0,0.0,0.0,0.0,0.0,0.0,0.0,0.0,0.0,0.0,0.0,-1.7508,-1.7388,-1.746,0.0,-1.7893,-1.7315,-1.6427,-1.5596,-1.5241,-1.554,0.0,0.0,0.0,0.0,0.0,0.0,0.0,0.0,0.0,0.0,0.0,0.0,0.0,0.0,0.0,0.0,0.0,0.0,0.0,0.0,0.0,0.0,0.0,0.0,0.0,0.0,0.0,0.0,0.0,0.0,0.0,0.0,0.0,0.0,0.0,0.0,0.0,0.0,0.0,0.0,0.0,0.0,0.0,0.0,0.0,0.0,0.0,0.0,0.0,0.0,0.0,0.0,0.0,0.0,0.0,0.0,0.0,0.0,0.0,0.0,0.0,0.0,0.0,0.0,0.0,0.0,0.0,0.0,0.0,0.0,0.0,0.0,0.0,0.0,0.0,0.0,0.0,0.0,0.0,0.0,0.0,0.0,0.0,0.0,0.0,0.0,0.0,0.0,0.0,0.0,0.0,0.0,0.0,0.0,0.0,0.0,0.0,0.0,0.0,0.0,0.0,0.0,-1.765,-1.7189,-1.7145,-1.8061,-1.7219,-1.6379,-1.5852,-1.4505,-1.4067,0.0,0.0,0.0,0.0,0.0,0.0,0.0,0.0,0.0,0.0,0.0,0.0,0.0,0.0,0.0,0.0,0.0,0.0,0.0,0.0,0.0,0.0,0.0,0.0,0.0,0.0,0.0,0.0,0.0,0.0,0.0,0.0,0.0,0.0,0.0,0.0,0.0,0.0,0.0,0.0,0.0,0.0,0.0,0.0,0.0,0.0,0.0,0.0,0.0,0.0,0.0,0.0,0.0,0.0,0.0,0.0,0.0,0.0,0.0,0.0,0.0,0.0,0.0,0.0,0.0,0.0,0.0,0.0,0.0,0.0,0.0,0.0,0.0,0.0,0.0,0.0,0.0,0.0,0.0,0.0,0.0,0.0,0.0,0.0,0.0,0.0,0.0,0.0,0.0,0.0,0.0,0.0,0.0,0.0,0.0,0.0,0.0,0.0,0.0,0.0,0.0,0.0,0.0,-1.7019,-1.6923,-1.6878,-1.7051,-1.6787,-1.6379,-1.5852,-1.4779,-1.4396,-1.5032,0.0,0.0,0.0,0.0,0.0,0.0,0.0,0.0,0.0,0.0,0.0,0.0,0.0,0.0,0.0,0.0,0.0,0.0,0.0,0.0,0.0,0.0,0.0,0.0,0.0,0.0,0.0,0.0,0.0,0.0,0.0,0.0,0.0,0.0,0.0,0.0,0.0,0.0,0.0,0.0,0.0,0.0,0.0,0.0,0.0,0.0,0.0,0.0,0.0,0.0,0.0,0.0,0.0,0.0,0.0,0.0,0.0,0.0,0.0,0.0,0.0,0.0,0.0,0.0,0.0,0.0,0.0,0.0,0.0,0.0,0.0,0.0,0.0,0.0,0.0,0.0,0.0,0.0,0.0,0.0,0.0,0.0,0.0,0.0,0.0,0.0,0.0,0.0,0.0,0.0,0.0,0.0,0.0,0.0,0.0,0.0,0.0,0.0,0.0,0.0,0.0,0.0,-1.6753,-1.6608,-1.6514,-1.6571,-1.6403,-1.6044,-1.5516,-1.4788,-1.4484,-1.4763,0.0,0.0,0.0,0.0,0.0,0.0,0.0,0.0,0.0,0.0,0.0,0.0,0.0,0.0,0.0,0.0,0.0,0.0,0.0,0.0,0.0,0.0,0.0,0.0,0.0,0.0,0.0,0.0,0.0,0.0,0.0,0.0,0.0,0.0,0.0,0.0,0.0,0.0,0.0,0.0,0.0,0.0,0.0,0.0,0.0,0.0,0.0,0.0,0.0,0.0,0.0,0.0,0.0,0.0,0.0,0.0,0.0,0.0,0.0,0.0,0.0,0.0,0.0,0.0,0.0,0.0,0.0,0.0,0.0,0.0,0.0,0.0,0.0,0.0,0.0,0.0,0.0,0.0,0.0,0.0,0.0,0.0,0.0,0.0,0.0,0.0,0.0,0.0,0.0,0.0,0.0,0.0,0.0,0.0,0.0,0.0,0.0,0.0,0.0,0.0,0.0,0.0,-1.6753,-1.6317,-1.6151,-1.6475,-1.609,-1.5588,-1.5109,-1.4695,-1.4416,-1.4311,0.0,0.0,0.0,0.0,0.0,0.0,0.0,0.0,0.0,0.0,0.0,0.0,0.0,0.0,0.0,0.0,0.0,0.0,0.0,0.0,0.0,0.0,0.0,0.0,0.0,0.0,0.0,0.0,0.0,0.0,0.0,0.0,0.0,0.0,0.0,0.0,0.0,0.0,0.0,0.0,0.0,0.0,0.0,0.0,0.0,0.0,0.0,0.0,0.0,0.0,0.0,0.0,0.0,0.0,0.0,0.0,0.0,0.0,0.0,0.0,-1.9363,0.0,0.0,0.0,0.0,0.0,0.0,0.0,0.0,0.0,0.0,0.0,0.0,0.0,0.0,0.0,0.0,0.0,0.0,0.0,0.0,0.0,0.0,0.0,0.0,0.0,0.0,0.0,0.0,0.0,0.0,0.0,0.0,0.0,0.0,0.0,0.0,0.0,0.0,0.0,0.0,0.0,-1.6802,-1.6317,-1.6005,-1.597,-1.5852,-1.5756,-1.5636,-1.5167,-1.4706,-1.4314,-1.3781,0.0,0.0,0.0,0.0,0.0,0.0,0.0,0.0,0.0,0.0,0.0,0.0,0.0,0.0,0.0,0.0,0.0,0.0,0.0,0.0,0.0,0.0,0.0,0.0,0.0,0.0,0.0,0.0,0.0,0.0,0.0,0.0,0.0,0.0,0.0,0.0,0.0,0.0,0.0,0.0,0.0,0.0,0.0,0.0,0.0,0.0,0.0,0.0,0.0,0.0,0.0,0.0,0.0,0.0,0.0,0.0,0.0,0.0,0.0,0.0,-2.0129,0.0,0.0,0.0,0.0,0.0,0.0,0.0,0.0,0.0,0.0,0.0,0.0,0.0,0.0,0.0,0.0,0.0,0.0,0.0,0.0,0.0,0.0,0.0,0.0,0.0,0.0,0.0,0.0,0.0,0.0,0.0,0.0,0.0,0.0,0.0,0.0,0.0,0.0,0.0,0.0,-1.6711,-1.6251,-1.5869,-1.5802,-1.5804,-1.5804,-1.5804,-1.554,-1.5076,-1.4352,-1.4065,0.0,0.0,0.0,0.0,0.0,0.0,0.0,0.0,0.0,0.0,0.0,0.0,0.0,0.0,0.0,0.0,0.0,0.0,0.0,0.0,0.0,0.0,0.0,0.0,0.0,0.0,0.0,0.0,0.0,0.0,0.0,0.0,0.0,0.0,0.0,0.0,0.0,0.0,0.0,0.0,0.0,0.0,0.0,0.0,0.0,0.0,0.0,0.0,0.0,0.0,0.0,0.0,0.0,-2.8781,-2.898,-2.8259,-2.7488,-2.6892,-2.6297,-2.3733,-2.1588,-1.9937,-2.1548,0.0,0.0,0.0,0.0,0.0,0.0,0.0,0.0,0.0,0.0,0.0,0.0,0.0,0.0,0.0,0.0,0.0,0.0,0.0,0.0,0.0,0.0,0.0,0.0,-2.0466,-1.9676,0.0,0.0,0.0,0.0,0.0,0.0,0.0,0.0,0.0,0.0,0.0,0.0,-1.6739,-1.6211,-1.585,-1.5924,-1.5852,-1.5804,-1.5804,-1.5804,-1.5424,-1.4513,-1.4351,-1.3907,0.0,0.0,0.0,0.0,0.0,0.0,0.0,0.0,0.0,0.0,0.0,0.0,0.0,0.0,0.0,0.0,0.0,0.0,0.0,0.0,0.0,0.0,0.0,0.0,0.0,0.0,0.0,0.0,0.0,0.0,0.0,0.0,-2.3635,-2.4646,0.0,0.0,0.0,0.0,0.0,0.0,0.0,0.0,0.0,0.0,0.0,0.0,0.0,-2.8653,-2.9636,-3.0535,-3.0816,-3.056,-3.0861,-3.0875,-3.0638,-3.0005,-2.9575,-2.9289,-2.8169,0.0,-2.3119,-2.2462,0.0,0.0,0.0,0.0,0.0,0.0,0.0,0.0,0.0,0.0,0.0,0.0,0.0,0.0,0.0,0.0,0.0,0.0,0.0,0.0,0.0,0.0,-2.1115,-2.126,-2.1596,-2.1404,0.0,-1.9555,-1.948,-1.8806,-1.8061,0.0,0.0,0.0,0.0,0.0,0.0,0.0,-1.7291,-1.6427,-1.5994,-1.6451,-1.609,-1.5804,-1.5804,-1.5804,-1.5558,-1.504,-1.4559,-1.4071,-1.3525,-1.3113,0.0,0.0,0.0,0.0,0.0,0.0,0.0,0.0,0.0,0.0,0.0,0.0,0.0,0.0,0.0,0.0,0.0,0.0,0.0,0.0,0.0,0.0,0.0,0.0,0.0,0.0,0.0,0.0,0.0,-2.5487,-2.5836,-2.494,-2.5343,-2.5438,0.0,0.0,0.0,0.0,0.0,0.0,0.0,0.0,0.0,-2.9319,-3.0306,-3.1058,-3.1452,-3.2941,-3.3508,-3.3202,-3.4076,-3.4221,-3.3733,-3.3004,-3.2617,-3.2473,-3.1554,-2.9865,-2.7616,-2.5338,-2.4001,-2.3408,0.0,0.0,0.0,0.0,-2.2767,-2.2863,-2.3496,-2.3135,0.0,-2.2975,0.0,0.0,0.0,0.0,0.0,0.0,0.0,0.0,0.0,0.0,-2.2366,-2.2654,-2.2951,-2.2927,-2.2204,-2.1819,-2.1193,0.0,-1.9552,-1.9648,-1.9576,0.0,0.0,0.0,0.0,-1.7291,-1.6979,-1.6547,-1.6235,-1.6163,-1.5924,-1.5804,-1.5804,-1.5804,-1.5603,-1.5131,-1.488,-1.4398,-1.3644,-1.3406,-1.3162,0.0,0.0,0.0,0.0,0.0,0.0,0.0,0.0,0.0,0.0,0.0,0.0,0.0,0.0,0.0,0.0,0.0,0.0,0.0,0.0,0.0,0.0,0.0,0.0,0.0,0.0,0.0,0.0,-2.7511,-2.7719,-2.5625,-2.6963,-2.7482,0.0,0.0,0.0,0.0,0.0,0.0,-2.99,-3.1409,-3.2193,-3.2048,-3.3151,-3.3752,-3.3797,-3.5352,-3.5977,-3.5691,-3.6777,-3.6979,-3.6408,-3.576,-3.5498,-3.5386,-3.4279,-3.3116,-3.1798,-2.8139,-2.5826,-2.4578,-2.453,-2.4362,-2.4227,-2.4434,-2.4568,-2.4819,-2.5468,-2.518,-2.4496,-2.4554,0.0,-2.3207,-2.2132,0.0,0.0,0.0,0.0,-2.2101,-2.2486,-2.2991,-2.352,-2.4083,-2.4203,-2.4155,-2.4035,-2.3761,-2.2919,0.0,-2.073,-2.1043,-2.049,0.0,0.0,0.0,0.0,-1.7243,-1.6859,-1.6571,-1.6307,-1.602,-1.5876,-1.5804,-1.5804,-1.5804,-1.5647,-1.5289,-1.5176,-1.4766,-1.4001,-1.3739,-1.343,-1.3089,0.0,0.0,0.0,0.0,0.0,0.0,0.0,0.0,0.0,0.0,0.0,0.0,0.0,0.0,0.0,0.0,0.0,0.0,0.0,0.0,0.0,0.0,0.0,0.0,0.0,0.0,0.0,0.0,0.0,-2.6971,-2.9464,0.0,0.0,0.0,0.0,-3.1147,-3.1292,-3.1932,-3.3184,-3.3877,-3.4806,-3.5996,-3.6693,-3.7331,-3.7912,-3.7999,-3.8057,-3.802,-3.8078,-3.8144,-3.8078,-3.804,-3.7927,-3.7663,-3.6296,-3.5492,-3.4926,-3.0162,-2.7594,-2.6585,-2.5072,-2.4819,-2.518,-2.4699,-2.4843,-2.5204,-2.4747,-2.4544,-2.4736,-2.6249,-2.6705,-2.6465,-2.5396,-2.4723,0.0,0.0,-2.3288,-2.3697,-2.3722,-2.4073,-2.4578,-2.5107,-2.5228,-2.5083,-2.4544,-2.4843,-2.4434,0.0,-2.0971,-2.049,-1.9941,0.0,-1.8782,-1.8301,-1.7772,-1.7387,-1.7339,-1.6475,-1.6042,-1.6523,-1.6092,-1.5804,-1.5804,-1.5804,-1.5804,-1.5758,-1.5356,-1.5085,-1.504,-1.4095,-1.3597,-1.3573,-1.3138,0.0,0.0,0.0,0.0,0.0,0.0,0.0,0.0,0.0,0.0,0.0,0.0,0.0,0.0,0.0,0.0,0.0,0.0,0.0,0.0,0.0,0.0,0.0,0.0,0.0,0.0,0.0,0.0,-3.0778,-3.3115,0.0,-3.1963,-3.2542,-3.3122,-3.3354,-3.4138,-3.498,-3.588,-3.6925,-3.7709,-3.8144,-3.8783,-3.9218,-3.9421,-3.9857,-3.9654,-3.8841,-3.9247,-3.8986,-3.8202,-3.8202,-3.8165,-3.8052,-3.7415,-3.6497,-3.5167,-3.2626,-3.0558,-2.8824,-2.7562,-2.6791,-2.6345,-2.6489,-2.6657,-2.6887,-2.7031,-2.6863,-2.6513,-2.643,-2.6166,-2.5805,-2.542,-2.518,-2.5011,-2.4987,-2.5131,-2.5276,-2.5276,-2.5396,-2.5492,-2.5348,-2.53,-2.5252,-2.5083,-2.4915,-2.4434,-2.3159,-2.251,-2.1957,-2.1458,-2.0033,-1.9047,-1.9218,-1.847,-1.7796,-1.7435,-1.7051,-1.6763,-1.6619,-1.6139,-1.5804,-1.5804,-1.5804,-1.5824,-1.5913,-1.5691,-1.5446,-1.522,-1.4789,-1.4258,-1.3621,-1.3739,-1.3597,0.0,0.0,0.0,0.0,0.0,0.0,0.0,0.0,0.0,0.0,0.0,0.0,0.0,0.0,0.0,0.0,0.0,0.0,0.0,0.0,0.0,0.0,0.0,0.0,0.0,0.0,-3.4203,-3.4578,-3.6423,-3.7022,-3.5385,-3.5578,-3.5863,-3.6025,-3.6809,-3.768,-3.8551,-3.9392,-3.9944,-4.0176,-4.0554,-4.0757,-4.0757,-4.1221,-4.0902,-3.9857,-4.0031,-3.9538,-3.8522,-3.8289,-3.8202,-3.8202,-3.7849,-3.7053,-3.5868,-3.4426,-3.2863,-3.1206,-2.939,-2.8285,-2.7704,-2.7965,-2.8047,-2.8096,-2.8378,-2.8282,-2.7873,-2.7152,-2.6671,-2.6358,-2.6166,-2.6117,-2.6166,-2.6334,-2.6382,-2.6334,-2.6142,-2.6093,-2.5973,-2.5444,-2.53,-2.5252,-2.5153,-2.495,-2.453,-2.3763,-2.3272,-2.2751,-2.2053,-2.0586,-1.9648,-2.0009,-1.8999,-1.8133,-1.7965,-1.7484,-1.6979,-1.6643,-1.6139,-1.5804,-1.5804,-1.5948,-1.6017,-1.5959,-1.6015,-1.5882,-1.5491,-1.5406,-1.4966,-1.4089,-1.4358,-1.4042,-1.3086,0.0,0.0,0.0,0.0,0.0,0.0,0.0,0.0,0.0,0.0,0.0,0.0,0.0,0.0,0.0,0.0,0.0,0.0,0.0,0.0,0.0,0.0,0.0,-3.3455,-3.518,-3.6837,-3.815,-3.9276,-3.9622,-3.8788,-3.8714,-3.8865,-3.9247,-3.9305,-3.9857,-4.1076,-4.1163,-4.1453,-4.2063,-4.2092,-4.2092,-4.2092,-4.2092,-4.1744,-4.1047,-4.0408,-3.977,-3.916,-3.8492,-3.8202,-3.8173,-3.7593,-3.7295,-3.7134,-3.5423,-3.4381,-3.355,-3.0394,-2.9131,-2.9131,-2.887,-2.8791,-2.8752,-2.8578,-2.8498,-2.8522,-2.8522,-2.8522,-2.8426,-2.7858,-2.7714,-2.7594,-2.7066,-2.6922,-2.6801,-2.6238,-2.6093,-2.5973,-2.5444,-2.53,-2.5215,-2.4881,-2.5043,-2.4853,-2.3498,-2.3119,-2.2654,-2.162,-2.0971,-2.0581,-2.0581,-1.9263,0.0,-1.8903,-1.7604,-1.6643,-1.6643,-1.6187,-1.5852,-1.5874,-1.6331,-1.6403,-1.585,-1.6307,-1.6355,-1.5826,-1.587,-1.5628,-1.5048,-1.4948,-1.4449,-1.3606,0.0,0.0,0.0,0.0,0.0,0.0,0.0,0.0,0.0,0.0,0.0,0.0,0.0,0.0,0.0,0.0,0.0,0.0,0.0,0.0,0.0,0.0,-3.528,-3.4981,-3.743,-3.951,-4.0226,-4.1813,-4.2277,-4.0774,-4.1046,-4.1346,-4.132,-4.1715,-4.2092,-4.244,-4.2469,-4.2353,-4.2121,-4.2092,-4.2092,-4.2092,-4.2092,-4.1512,-4.0379,-4.0176,-3.9538,-3.8463,-3.8289,-3.8202,-3.8202,-3.8028,-3.7345,-3.6297,-3.5423,-3.4298,-3.3016,-3.1255,-3.0314,-2.9883,-2.9263,-2.8934,-2.8791,-2.8712,-2.8618,-2.8522,-2.8522,-2.8522,-2.8474,-2.833,-2.8306,-2.8186,-2.7618,-2.7474,-2.7296,-2.6334,-2.6093,-2.5973,-2.5444,-2.53,-2.5276,-2.5202,-2.495,-2.4637,-2.4429,-2.3627,-2.2775,-2.2101,-2.1211,-2.0586,-2.061,-1.9552,0.0,-1.8446,-1.7676,-1.7315,-1.7724,-1.7267,-1.7002,-1.7098,-1.7243,-1.6998,-1.6293,-1.6279,-1.6237,-1.6091,-1.6013,-1.6028,-1.615,-1.5006,-1.4769,0.0,0.0,0.0,0.0,0.0,0.0,0.0,0.0,0.0,0.0,0.0,0.0,0.0,0.0,0.0,0.0,0.0,0.0,0.0,0.0,0.0,0.0,-3.6387,-3.8272,-3.8751,-4.0427,-4.1944,-4.2753,-4.3607,-4.3812,-4.2983,-4.2919,-4.2843,-4.2636,-4.3135,-4.3195,-4.2644,-4.2847,-4.2702,-4.2121,-4.2092,-4.2092,-4.2092,-4.2092,-4.157,-4.0525,-4.0234,-3.9567,-3.8609,-3.8347,-3.8202,0.0,-3.7651,-3.6929,-3.6057,-3.521,-3.4327,0.0,0.0,0.0,0.0,0.0,-2.9613,-2.938,-2.9028,-2.8855,-2.8736,-2.8657,-2.8618,-2.8618,-2.8538,-2.8522,-2.8402,-2.7834,-2.7522,-2.7162,-2.631,-2.5925,-2.5685,-2.5372,-2.5335,-2.5357,-2.514,-2.5019,-2.4895,-2.4627,-2.3911,0.0,-2.2701,-2.1512,-2.0682,-2.0899,-1.9841,-1.8951,-1.8879,-1.8205,-1.7869,-1.8181,-1.7774,-1.7509,-1.7581,-1.7849,0.0,0.0,0.0,-1.6773,-1.6704,-1.6382,0.0,0.0,0.0,-1.5669,-1.6116,0.0,0.0,0.0,-1.4922,-1.495,0.0,0.0,0.0,0.0,0.0,0.0,0.0,0.0,0.0,0.0,0.0,0.0,0.0,0.0,0.0,0.0,-3.914,-4.1534,-4.3449,-4.3748,-4.4127,-4.5185,-4.4855,-4.4654,-4.4983,-4.43,-4.3796,-4.3646,-4.399,-4.3615,-4.2395,0.0,0.0,0.0,0.0,-4.2092,-4.2092,-4.2092,-4.1773,-4.1076,-4.0408,-3.977,-3.9189,-3.8522,-3.8202,-3.8144,-3.6925,-3.6373,-3.6228,-3.5009,-3.4486,-3.4264,-3.2791,-3.211,-3.1856,-3.1044,-3.0545,-3.0088,-2.9496,0.0,0.0,-2.887,-2.8831,-2.8791,-2.8578,-2.8538,-2.8442,-2.7873,-2.7354,-2.6849,-2.6262,-2.5757,-2.5372,-2.5324,-2.5465,-2.5484,-2.4998,-2.5265,-2.5408,-2.4623,-2.4122,-2.3715,-2.3393,-2.1862,-2.0851,-2.126,-2.0033,-1.9242,-1.9579,-1.8782,-1.8229,-1.8303,0.0,0.0,-1.7824,-1.8363,-1.8462,-1.7871,-1.7726,-1.7581,-1.7436,-1.6898,-1.6906,-1.7566,-1.7409,-1.6906,-1.6096,-1.6357,-1.6222,-1.5644,-1.5488,-1.5546,0.0,0.0,0.0,0.0,0.0,0.0,0.0,0.0,0.0,0.0,0.0,0.0,0.0,0.0,0.0,-3.923,-4.1833,-4.4077,-4.5544,-4.6202,-4.6232,-4.5394,-4.5663,-4.5699,-4.5072,-4.484,-4.4874,-4.5122,-4.5082,-4.4689,-4.3929,-4.3803,-4.3282,-4.2121,-4.2092,-4.2092,-4.2092,-4.2092,-4.1773,-4.1076,0.0,0.0,-3.9189,-3.8522,-3.8202,-3.8173,-3.7418,-3.6809,-3.6257,-3.5503,-3.4864,-3.4298,-3.3381,-3.2254,-3.1193,-3.1636,-3.0857,-2.9651,-3.0126,-2.9806,-2.9091,-2.9052,-2.9052,-2.9013,-2.8791,-2.8712,0.0,-2.7912,-2.7618,-2.7306,-2.6358,-2.6021,-2.5829,-2.542,-2.5465,-2.5581,-2.5484,-2.5638,-2.5802,-2.564,-2.471,-2.3976,-2.4075,-2.2511,-2.1139,-2.0808,-2.0133,-1.9387,-1.8614,-1.8326,-1.8399,-1.8937,-1.8941,-1.8996,-1.9204,-1.9328,-1.9057,-1.8159,-1.7894,-1.775,-1.7702,-1.7412,-1.7479,-1.8054,-1.7974,-1.8093,-1.8445,-1.8023,-1.7608,-1.7143,-1.6113,-1.5662,0.0,0.0,0.0,0.0,0.0,0.0,0.0,0.0,0.0,0.0,0.0,-3.4023,-3.5639,0.0,-3.932,-4.1923,-4.3718,-4.5274,-4.6621,-4.71,-4.695,-4.5933,-4.6112,-4.616,-4.5675,-4.556,-4.5582,-4.5793,-4.5902,-4.5536,-4.4523,-4.4336,-4.3812,-4.2794,-4.2526,-4.2351,-4.2257,-4.2257,-4.1907,-4.1237,-4.0797,-4.0118,-3.9189,-3.8841,-3.8522,-3.8173,-3.7564,-3.7128,-3.6722,-3.5799,-3.498,-3.4332,-3.3962,-3.3346,-3.2648,-3.2648,-3.211,-3.1315,-3.1341,-3.1007,-3.0545,-3.0012,-2.9819,-2.9767,-2.9106,-2.8973,-2.8812,-2.8183,-2.7936,-2.7617,-2.6529,-2.6239,-2.6118,-2.5586,-2.5676,-2.5875,-2.577,-2.591,-2.6015,-2.591,-2.5076,-2.4448,-2.4672,-2.3571,-2.2376,-2.1404,-2.0795,-2.0162,-1.9308,-1.9133,-1.9133,-1.9289,-1.9289,-1.9368,-1.9578,-1.9656,-1.9358,-1.8559,-1.8314,-1.8167,-1.8093,-1.7896,-1.8061,-1.859,-1.8827,-1.8959,-1.8997,-1.9046,-1.867,-1.7883,-1.7413,-1.6741,0.0,0.0,0.0,0.0,0.0,0.0,0.0,0.0,-3.2766,-3.4502,-3.5699,-3.7045,-3.899,-4.0337,-4.1953,-4.4317,-4.5244,-4.6052,-4.716,-4.7309,-4.71,-4.6591,-4.6459,-4.6459,-4.6459,-4.636,-4.6275,-4.6245,-4.6504,-4.6166,-4.4984,-4.4853,-4.4373,-4.3512,-4.3078,-4.2754,-4.2474,-4.2474,-4.221,-4.1653,-4.1295,-4.0633,-3.9644,-3.9305,-3.8899,-3.8347,-3.7622,-3.7244,-3.7041,-3.5996,-3.5218,-3.4603,-3.4603,-3.4516,-3.4332,-3.3659,-3.3213,-3.2932,-3.247,-3.2218,-3.1928,-3.097,-3.067,-3.0469,-2.9457,-2.917,-2.9071,-2.8614,-2.8352,-2.7978,-2.7004,-2.6761,-2.6615,-2.6115,-2.6167,-2.6328,-2.6163,-2.6193,-2.6213,-2.598,-2.5399,-2.4939,-2.5099,-2.4566,-2.3643,-2.2272,-2.1687,-2.117,-2.045,-2.0171,-1.9927,-1.9643,-1.952,-1.9499,-1.963,-1.9734,-1.9559,-1.9033,-1.8858,-1.878,-1.8751,-1.8621,-1.8785,-1.9287,-1.9817,-1.9912,-1.9492,-2.0,-1.9773,-1.8809,-1.8862,-1.8041,-2.9695,-2.9146,-2.9344,-3.1603,-3.133,-3.1569,0.0,0.0,-3.5938,-3.899,-3.9738,-4.0457,-4.2363,-4.3389,-4.4377,-4.5831,-4.6651,-4.713,-4.7279,-4.7309,-4.7279,-4.7219,-4.7189,-4.7189,-4.7189,-4.7146,-4.7146,-4.7146,-4.6989,-4.6561,-4.5892,-4.5618,-4.4929,-4.3691,-4.3643,-4.3278,-4.2648,-4.2648,-4.2618,-4.253,-4.1741,-4.127,-4.1094,-3.979,-3.916,-3.9015,-3.7825,-3.6983,-3.6402,-3.6257,-3.5822,-3.5305,-3.5305,-3.4922,-3.4366,-3.4298,-3.3381,-3.229,-3.2861,-3.2648,-3.1965,-3.1156,-3.0857,-3.067,-2.9665,-2.938,-2.9341,-2.9096,-2.8993,-2.8831,-2.8257,-2.8109,-2.7962,-2.7434,-2.7088,-2.6884,-2.6884,-2.6652,-2.6396,-2.6213,-2.5707,-2.531,-2.5277,-2.4855,-2.408,-2.2794,-2.2573,-2.2154,-2.1145,-2.0499,-2.0234,-2.0347,-1.9901,-1.963,-1.9785,-1.9811,-1.9786,-1.9685,-1.9556,-1.9624,-1.9956,-1.987,-2.0,-2.0418,-2.0947,-2.133,-2.1565,-2.1584,-2.1389,-2.1027,-2.0117,-1.8963,-3.19,-3.1627,-3.168,0.0,-3.3544,-3.4592,-3.6896,-3.7883,-3.896,-4.1115,-4.2132,-4.318,-4.4725,-4.5263,-4.5783,0.0,-4.713,-4.7309,-4.7309,-4.698,-4.6591,-4.6172,-4.6142,-4.6441,-4.7219,-4.7309,-4.7309,-4.7309,-4.7222,-4.703,-4.6761,-4.6288,-4.5535,-4.446,-4.4198,-4.3664,-4.289,-4.289,-4.289,-4.289,-4.2393,-4.1949,-4.1527,-4.0451,-3.945,-3.858,-3.8057,-3.7476,-3.6896,-3.6896,-3.6286,-3.5392,-3.5392,-3.5014,-3.4399,-3.4399,-3.3962,-3.3451,-3.3791,-3.3722,-3.3241,-3.2001,-3.1599,-3.1341,-3.0037,-2.9638,-2.9624,-2.9546,-2.9404,-2.9139,-2.8658,-2.851,-2.8323,-2.7792,-2.7666,-2.7637,-2.7637,-2.7534,-2.7283,-2.6746,-2.6497,-2.6223,-2.5856,-2.5667,-2.5278,-2.4514,-2.3866,-2.3193,-2.2367,-2.1712,-2.1237,-2.0998,-2.0532,-2.026,-2.0313,-2.0339,-2.0339,-2.0339,-2.048,-2.059,-2.0646,-2.0531,-2.0512,-2.061,-2.1204,-2.1612,-2.1731,-2.2204,-2.2209,-2.1805,-2.142,-2.0643,-3.2733,0.0,0.0,-3.3867,-3.54,-3.7045,-3.8242,-3.9619,-4.1085,-4.262,-4.3658,-4.4676,-4.5813,-4.6022,-4.6262,-4.692,-4.704,-4.704,-4.704,-4.6471,-4.5783,-4.5095,-4.4855,-4.5214,-4.6381,-4.6651,-4.683,-4.701,-4.704,-4.71,-4.7309,-4.686,-4.6117,-4.5126,-4.4743,-4.4086,-4.309,-4.3061,-4.3061,-4.3061,-4.289,-4.2533,-4.2031,-4.1038,-3.9847,-3.8614,-3.8477,-3.809,-3.7711,-3.7711,-3.7077,-3.6056,-3.5846,-3.5345,-3.4729,-3.4486,-3.4399,-3.4399,-3.4399,-3.4399,-3.4162,-3.2577,-3.211,-3.1783,-3.0254,-2.9804,-2.9804,-2.9804,-2.9663,-2.9422,-2.9086,-2.8986,-2.8824,-2.8425,-2.8337,-2.8323,-2.8323,-2.8222,-2.796,-2.739,-2.7315,-2.714,-2.6582,-2.6482,-2.6342,-2.5912,-2.5034,-2.418,-2.3421,-2.263,-2.1948,-2.1428,-2.1087,-2.0918,-2.0918,-2.0918,-2.0918,-2.0918,-2.1184,-2.1343,-2.1321,-2.1149,-2.1078,-2.1102,-2.1553,-2.1837,-2.1896,-2.2559,-2.274,-2.2371,-2.2314,-2.187,0.0,0.0,-3.2178,-3.479,-3.6417,-3.8063,-4.0666,-4.1362,-4.1893,-4.3868,-4.4287,-4.4526,-4.5214,-4.5334,-4.5544,-4.619,-4.6309,-4.6309,-4.6309,-4.5753,-4.5095,-4.4436,-4.3738,-4.3618,0.0,-4.4975,-4.5633,-4.6249,-4.6309,-4.6621,-4.7279,-4.7279,-4.6651,-4.5334,-4.5274,-4.4646,-4.329,-4.329,-4.329,-4.329,-4.309,-4.2981,-4.2921,-4.1449,-4.0389,-3.974,-3.9062,-3.8767,-3.8767,-3.8767,-3.8384,-3.7765,-3.6904,-3.619,-3.5546,-3.47,-3.4399,-3.4399,-3.4399,-3.4399,-3.4162,-3.2577,-3.211,-3.1783,-3.0254,-2.9804,-2.9804,-2.9804,-2.9779,-2.9779,-2.9779,-2.9779,-2.9754,-2.9754,-2.9327,-2.8863,-2.8863,-2.8473,-2.8097,-2.8072,-2.8072,-2.7896,-2.7344,-2.7268,-2.7067,-2.6549,-2.5971,-2.5159,-2.4104,-2.3,-2.2096,-2.1543,-2.1468,-2.1496,-2.1496,-2.1496,-2.1496,-2.1496,-2.1468,-2.1688,-2.2039,-2.1888,-2.1956,-2.2341,-2.2365,-2.2457,-2.2665,-2.2818,-2.2944,-2.307,-2.2518,-2.2297,-3.3413,0.0,-3.5347,-3.7545,-3.908,-4.0397,-4.1782,-4.2701,-4.3389,-4.3589,-4.3618,-4.3599,-4.3429,-4.3399,-4.3718,-4.4825,-4.5364,-4.5963,-4.686,-4.6411,-4.5424,-4.3868,-4.3868,0.0,0.0,0.0,0.0,-4.619,-4.6279,-4.6621,-4.7279,-4.7309,-4.689,-4.5992,-4.5963,-4.5544,-4.4646,-4.4646,-4.4407,-4.3947,-4.3459,-4.2892,-4.2396,-4.1902,-4.0985,-3.9799,-3.9563,-3.9209,-3.8797,-3.8797,-3.8413,-3.7853,-3.7575,-3.681,-3.5776,-3.54,-3.5244,-3.5122,-3.4578,-3.4399,-3.4162,-3.2577,-3.211,-3.1783,-3.0254,-2.9804,-2.9804,-2.9804,-2.9804,-2.9804,-2.9804,-2.9804,-2.9804,-2.9804,-2.9654,-2.9503,-2.9503,-2.9352,-2.9126,-2.8725,-2.8612,-2.8473,-2.7921,-2.7821,-2.7519,-2.6625,-2.5661,-2.4833,-2.4079,-2.3326,-2.2769,-2.2569,-2.2246,-2.202,-2.202,-2.202,-2.202,-2.202,-2.2343,-2.2585,-2.2635,-2.2575,-2.2529,-2.2604,-2.2696,-2.2757,-2.2818,-2.2969,-2.306,-2.3095,-2.292,-2.2644,-3.525,-3.6327,-3.7345,-3.9559,-4.0935,-4.1931,-4.2551,-4.3,-4.306,-4.2393,-4.1893,-4.1444,-4.1063,-4.0793,-4.1212,-4.297,-4.3629,-4.4436,-4.6022,-4.5873,-4.5125,-4.3868,-4.3868,-4.3569,0.0,0.0,0.0,-4.5843,-4.613,-4.6621,-4.7279,-4.7309,-4.701,-4.6309,-4.6279,-4.5992,-4.5304,-4.5065,-4.4616,-4.3958,-4.3499,-4.3041,-4.2505,-4.2296,-4.1692,-4.0707,-4.0232,-3.9787,-3.9343,-3.9106,-3.8779,-3.8424,-3.8151,-3.7493,-3.666,-3.6177,-3.5985,-3.5804,-3.4787,-3.4574,-3.445,-3.2696,-3.211,-3.1783,-3.0254,-2.9804,-2.9829,-3.003,-2.9955,-2.9829,-3.003,-2.993,-2.9804,-2.9804,-2.9804,-2.9804,-2.9804,-2.9804,-2.9679,-2.9302,-2.9227,-2.9051,-2.8499,-2.8072,-2.757,-2.6901,-2.5812,-2.4908,-2.4356,-2.3803,-2.3421,-2.3421,-2.292,-2.2569,-2.2569,-2.2569,-2.2569,-2.2569,-2.292,-2.306,-2.3,-2.2939,-2.2848,-2.2781,-2.2848,-2.2909,-2.2909,-2.303,-2.3095,-2.3095,-2.3095,-2.292,-3.6297,-3.7135,-3.8242,-4.0846,-4.1961,-4.256,-4.305,-4.2222,-4.1085,-4.0397,-3.917,-3.8212,0.0,0.0,-3.8212,-4.0846,-4.1384,-4.2192,-4.4197,-4.4466,-4.4436,0.0,0.0,0.0,0.0,0.0,0.0,-4.5244,0.0,-4.6561,-4.7279,-4.7309,-4.701,-4.6339,-4.6339,-4.6052,-4.5394,-4.4706,-4.3977,-4.3349,-4.3319,-4.329,-4.326,-4.2701,-4.244,-4.2321,-4.1025,-4.0457,-4.0337,-3.9738,-3.9439,-3.9313,-3.8543,-3.824,-3.8085,-3.7069,-3.6693,-3.6482,-3.502,-3.4893,-3.5056,-3.2916,-3.2182,-3.1853,-3.033,-2.988,-2.998,-3.0507,-3.0281,-3.0005,-3.0507,-3.0256,-2.9829,-2.9829,-2.9804,-2.9804,-2.9804,-2.9804,-2.9804,-2.9804,-2.9804,-2.9628,-2.9038,-2.8072,-2.7344,-2.7344,-2.6389,-2.5485,-2.4901,-2.4381,-2.4029,-2.4004,-2.3471,-2.3145,-2.3145,-2.3145,-2.317,-2.3195,-2.317,-2.3145,-2.3145,-2.3024,-2.2934,-2.2909,-2.2934,-2.2934,-2.2909,-2.306,-2.3095,-2.3095,-2.3095,-2.3095,-3.8631,-3.9888,-4.0756,-4.2432,-4.2611,-4.2321,-4.1953,-4.0876,-3.9589,-3.8422,-3.7135,-3.5938,0.0,0.0,0.0,-3.9559,-4.1564,0.0,-4.6202,-4.6531,0.0,-4.5155,0.0,-4.5203,-4.4407,-4.5065,0.0,0.0,-4.5753,-4.6082,-4.7249,-4.7309,-4.7219,-4.707,-4.707,-4.698,-4.68,-4.5633,-4.4706,-4.4047,-4.3529,-4.329,-4.329,-4.311,-4.2821,-4.2381,-4.2051,-4.1294,-4.0397,-4.0217,-3.9858,-3.9373,-3.9158,-3.877,-3.8292,-3.7961,-3.776,-3.7571,-3.643,-3.5625,-3.4925,-3.3823,-3.3013,-3.228,-3.128,-3.0984,-3.1009,-3.116,-3.1085,-3.1009,-3.116,-3.0809,-3.0407,-3.0407,-3.008,-2.9804,-2.9804,-2.9804,-2.9804,-2.9804,-2.9804,-2.9754,-2.9603,-2.8976,-2.8373,-2.7971,-2.7293,-2.649,-2.5511,-2.4933,-2.4456,-2.4029,-2.3879,-2.3778,-2.3778,-2.3778,-2.3954,-2.4324,-2.4004,-2.3778,-2.3778,-2.3747,-2.3516,-2.306,-2.3491,-2.3516,-2.306,-2.3065,-2.3095,-2.3095,-2.3095,-2.3095,-4.0247,-4.1362,-4.2021,-4.2731,-4.2402,-4.1632,-4.0367,-3.8841,-3.7225,-3.5609,-3.4203,0.0,0.0,0.0,0.0,0.0,0.0,0.0,-4.5574,-4.6501,-4.6711,0.0,-4.6531,0.0,-4.5693,-4.6052,-4.6399,0.0,-4.6411,-4.6501,-4.7279,-4.7309,-4.7309,-4.7309,-4.7309,-4.716,-4.686,-4.5813,-4.4975,-4.4317,-4.3618,-4.329,-4.329,-4.329,-4.315,-4.2761,0.0,-4.1811,-4.0816,-4.0816,-4.0277,-3.9439,-3.9738,-3.9619,-3.926,-3.9079,-3.9037,-3.8905,-3.8223,-3.7111,-3.5733,-3.4361,-3.3584,-3.2961,-3.1752,-3.1386,-3.1436,-3.1687,-3.1587,-3.1436,-3.1687,-3.1361,-3.0909,-3.0658,-3.0382,-3.008,-2.9854,-2.9804,-2.9804,-2.9804,-2.9804,-2.9804,-2.9804,-2.9302,-2.8787,-2.8524,-2.7996,-2.7318,-2.644,-2.5661,-2.5034,-2.4732,-2.4506,-2.4356,-2.4356,-2.4356,-2.4481,-2.4775,-2.4305,-2.4104,-2.4356,-2.413,-2.3853,-2.3496,-2.3828,-2.3703,-2.3095,-2.3095,-2.3095,-2.3095,-2.3095,-2.3095,-4.1534,-4.2171,-4.253,-4.253,-4.1901,-4.0696,-3.8601,-3.6626,-3.4681,-3.2647,0.0,-3.0342,-3.0253,-3.1002,-3.2676,-3.5968,0.0,-4.0636,-4.4107,-4.5514,-4.6471,-4.7219,-4.7309,-4.7309,-4.7309,-4.68,-4.6681,-4.7279,-4.7309,-4.7309,-4.7309,-4.7309,-4.7309,-4.7309,-4.7309,-4.698,-4.6279,-4.5633,-4.4975,-4.4317,-4.3618,-4.329,-4.329,-4.329,-4.329,-4.326,-4.2731,0.0,-4.1504,-4.1504,-4.0786,-3.9738,-4.0307,-4.0516,-4.0479,-4.033,-4.0293,-4.0256,-4.003,-3.8975,-3.7337,-3.5068,-3.4306,-3.3946,-3.2426,-3.2006,-3.2158,-3.2565,-3.2336,-3.2016,-3.2398,-3.2079,-3.1549,-3.0934,-3.0708,-3.0482,-3.0005,-2.9854,-2.9804,-2.9804,-2.9804,-2.9804,-2.9804,-2.9377,-2.8988,-2.8888,-2.8487,-2.8021,-2.7469,-2.6465,-2.5762,-2.5611,-2.5184,-2.4901,-2.4901,-2.4901,-2.4926,-2.5034,-2.4506,-2.4406,-2.4775,-2.4356,-2.4029,-2.3879,-2.3954,-2.3703,-2.3095,-2.3095,-2.3095,-2.3095,-2.3095,-2.3095,-4.3329,-4.3479,-4.318,-4.321,-4.1893,-3.9918,-3.7375,-3.528,0.0,0.0,0.0,-2.9592,-2.9026,-3.0791,0.0,-3.6028,0.0,0.0,0.0,0.0,-4.5933,0.0,0.0,0.0,0.0,0.0,0.0,0.0,0.0,-4.7309,-4.7309,-4.7309,-4.7309,-4.7309,-4.7309,-4.698,-4.6279,-4.5633,-4.4975,-4.4317,-4.3618,-4.329,-4.329,-4.329,-4.329,-4.329,-4.317,0.0,-4.2231,-4.2231,-4.1782,-4.1055,-4.1175,-4.1205,-4.1205,-4.1205,-4.1167,-4.1129,-4.0969,-4.0689,-3.9991,-3.7443,-3.6413,-3.594,-3.5103,-3.5277,-3.5572,-3.5129,-3.4942,-3.4753,-3.4173,-3.3591,-3.292,-3.2129,-3.126,-3.0583,-3.0482,-3.0105,-2.9804,-2.9804,-2.9804,-2.9804,-2.9804,-2.9704,-2.9478,-2.8963,-2.8813,-2.8574,-2.8021,-2.7394,-2.664,-2.5686,-2.5511,-2.546,-2.546,-2.546,-2.5661,-2.6172,-2.5636,-2.5184,-2.48,-2.47,-2.4199,-2.3271,-2.3753,-2.3703,-2.3095,-2.3095,-2.3095,-2.3095,-2.3095,-2.3095,-4.3958,-4.4077,-4.3688,-4.303,-4.1085,-3.8571,-3.5609,0.0,0.0,0.0,-2.8483,-2.8064,-2.8068,0.0,0.0,0.0,0.0,0.0,0.0,0.0,0.0,0.0,0.0,0.0,0.0,0.0,0.0,0.0,0.0,-4.7309,-4.7309,-4.7309,-4.7309,-4.7309,-4.7309,-4.716,-4.683,-4.6172,-4.5663,-4.5334,-4.4317,-4.4018,-4.4317,-4.3618,-4.3469,-4.3798,-4.3439,0.0,-4.241,-4.2731,-4.2282,-4.1414,-4.1782,-4.1931,-4.1931,-4.1931,-4.1931,-4.1893,-4.1816,-4.1492,-4.0914,-3.9662,-3.8432,-3.7189,-3.5952,-3.5818,-3.6008,-3.571,-3.5628,-3.5427,-3.462,-3.4188,-3.3617,-3.212,-3.0959,-3.0181,-3.0181,-2.998,-2.9804,-2.9804,-2.9804,-2.9804,-2.9804,-2.9804,-2.9704,-2.9428,-2.9377,-2.9176,-2.8599,-2.8298,-2.772,-2.659,-2.6465,-2.6364,-2.6097,-2.6072,-2.6197,-2.6474,-2.5912,-2.5611,-2.5661,-2.5385,-2.4833,-2.3998,-2.4249,-2.3973,-2.3095,-2.3095,-2.3095,-2.3095,-2.3095,-2.3095,-4.4107,-4.4317,-4.4047,-4.2851,-4.0457,-3.7524,-3.4233,-3.1928,0.0,0.0,-2.7195,-2.6986,-2.7495,0.0,0.0,0.0,0.0,0.0,0.0,0.0,0.0,0.0,0.0,0.0,0.0,0.0,0.0,0.0,0.0,0.0,-4.7309,-4.7309,-4.7309,-4.7309,-4.7309,-4.7309,-4.7309,-4.6651,-4.6279,-4.6279,-4.5095,-4.4796,-4.5244,-4.4227,-4.3958,-4.4287,-4.3738,0.0,0.0,-4.312,-4.2731,-4.1863,-4.241,-4.262,-4.262,-4.262,-4.262,-4.262,-4.262,-4.2145,-4.1504,-4.1198,-4.0003,-3.841,-3.6893,-3.642,-3.6353,-3.6175,-3.6148,-3.5949,-3.5155,-3.4786,-3.4125,-3.1924,-3.0834,-3.0256,-3.0005,-2.9955,-2.9955,-2.9955,-2.988,-2.9804,-2.9804,-2.9804,-2.9804,-2.9804,-2.9804,-2.9628,-2.9139,-2.9063,-2.8725,-2.7745,-2.7419,-2.7153,-2.67,-2.6575,-2.6499,-2.6499,-2.6072,-2.5971,-2.6298,-2.5837,-2.536,-2.48,-2.48,-2.4299,-2.3296,-2.3421,-2.3346,-2.312,-2.3346,-2.3321,-4.3988,-4.4317,-4.4137,-4.3379,-4.0786,-3.7524,-3.4233,0.0,0.0,-2.8004,-2.7555,-2.7525,-2.7585,-2.8154,-2.9475,0.0,0.0,0.0,0.0,0.0,0.0,0.0,0.0,0.0,0.0,0.0,0.0,0.0,0.0,0.0,-4.7309,-4.7309,-4.7309,-4.7309,-4.7309,-4.7309,-4.7309,-4.6651,-4.6279,-4.6279,-4.5574,-4.5244,-4.5304,-4.5155,-4.4825,-4.4317,-4.4257,0.0,0.0,-4.326,-4.323,-4.311,-4.317,-4.32,-4.32,-4.32,-4.32,-4.32,-4.32,-4.317,-4.2891,-4.1573,-4.0742,-4.014,-3.9392,-3.8996,-3.8727,-3.8121,-3.7947,-3.7758,-3.6883,-3.6068,-3.4807,-3.2047,-3.1712,-3.1712,-3.0758,-3.0532,-3.0532,-3.0532,-3.0131,-2.9804,-2.9804,-2.9804,-2.9804,-2.9804,-2.9804,-2.9779,-2.9729,-2.9704,-2.9478,-2.8813,-2.7871,-2.7268,-2.7253,-2.6776,-2.6499,-2.6499,-2.6449,-2.6197,-2.5686,-2.5611,-2.536,-2.48,-2.48,-2.4531,-2.3929,-2.4431,-2.4098,-2.312,-2.4148,-2.4073,-4.2671,-4.3718,-4.4047,-4.3,-4.0247,-3.7045,-3.4143,0.0,-2.9532,-2.7914,-2.7285,-2.7136,-2.7525,-2.7495,-2.8248,0.0,0.0,0.0,0.0,0.0,0.0,0.0,0.0,0.0,0.0,0.0,0.0,0.0,0.0,0.0,-4.7309,-4.7309,-4.7309,-4.7309,-4.7309,-4.7309,-4.7309,-4.704,-4.692,-4.689,-4.6232,-4.6112,-4.6471,-4.5663,-4.5364,-4.5442,-4.4676,0.0,0.0,-4.3469,-4.329,-4.329,-4.329,-4.329,-4.329,-4.329,-4.329,-4.329,-4.329,-4.329,-4.314,-4.2204,-4.1406,-4.0633,-3.9308,-3.9136,-3.9284,-3.8908,-3.8812,-3.8592,-3.772,-3.5936,-3.3922,-3.2279,-3.1813,-3.1612,-3.116,-3.1085,-3.0984,-3.0683,-3.0683,-3.0557,-2.9905,-3.0055,-3.0181,-2.9854,-2.9804,-2.9804,-2.9804,-2.9804,-2.9704,-2.9478,-2.875,-2.7996,-2.7344,-2.7128,-2.6851,-2.6524,-2.6499,-2.6399,-2.6147,-2.6147,-2.5862,-2.5285,-2.5285,-2.4858,-2.4004,-2.4556,-2.4399,-2.3678,-2.4424,-2.455,-4.1272,-4.2731,-4.3479,-4.2381,-3.9589,-3.6447,0.0,0.0,-2.8992,-2.7824,-2.7076,-2.6806,-2.7465,-2.7225,-2.7619,0.0,0.0,0.0,0.0,0.0,0.0,0.0,0.0,0.0,0.0,0.0,0.0,0.0,0.0,0.0,-4.7309,-4.7309,-4.7309,-4.7309,-4.7309,-4.7309,-4.7309,-4.7309,-4.7219,-4.701,-4.6741,-4.6741,-4.698,-4.6232,-4.5933,-4.5963,-4.5035,0.0,0.0,-4.3469,-4.329,-4.329,-4.329,-4.329,-4.329,-4.329,-4.329,-4.329,-4.329,-4.317,-4.294,-4.2321,-4.1697,-4.088,-3.9172,-3.9082,-3.9466,-3.9343,-3.9373,-3.9131,-3.7613,-3.5832,-3.4024,-3.2541,-3.2039,-3.1838,-3.1662,-3.1637,-3.1512,-3.116,-3.126,-3.116,-3.0407,-3.0583,-3.0658,-3.0105,-3.003,-2.998,-2.9804,-2.9804,-2.9804,-2.9804,-2.9428,-2.88,-2.7846,-2.7469,-2.7228,-2.7002,-2.6675,-2.6575,-2.6725,-2.6575,-2.6298,-2.5862,-2.5862,-2.541,-2.4481,-2.5034,-2.4933,-2.4255,-2.4983,-2.531,-3.9858,-4.1422,-4.2261,-4.1602,-3.8931,-3.5789,0.0,0.0,-2.8427,-2.7735,-2.7076,-2.6806,-2.7465,-2.7585,-2.8034,-2.9382,0.0,0.0,0.0,0.0,0.0,0.0,0.0,0.0,0.0,0.0,0.0,0.0,0.0,0.0,-4.7309,-4.7309,-4.7309,-4.7309,-4.7309,-4.7309,-4.7309,-4.7309,-4.698,-4.6352,-4.698,-4.695,-4.6309,-4.698,-4.6561,0.0,0.0,0.0,0.0,-4.329,-4.329,-4.329,-4.329,-4.329,-4.329,-4.329,-4.329,-4.329,-4.329,-4.291,-4.2291,-4.1632,-4.1384,-4.1107,-3.9579,-3.9268,-3.9504,-3.9504,-3.978,-3.9416,-3.6371,-3.6062,-3.5814,-3.2928,-3.2641,-3.2893,-3.2315,-3.2215,-3.2215,-3.219,-3.1763,-3.1386,-3.1386,-3.1386,-3.121,-3.0683,-3.0608,-3.0407,-2.9854,-2.9804,-2.9804,-2.9804,-2.9779,-2.9553,-2.8938,-2.7921,-2.7519,-2.8047,-2.7102,-2.6751,-2.7278,-2.6776,-2.6499,-2.6474,-2.6474,-2.6197,-2.5586,-2.6197,-2.5921,-2.48,-2.5971,-2.6474,-3.54,-3.6985,-3.8098,-3.6989,-3.519,-3.3215,-3.1001,0.0,-2.8278,-2.7165,-2.6776,-2.6806,-2.7465,-2.7225,-2.7619,-2.9864,0.0,0.0,0.0,0.0,0.0,0.0,0.0,0.0,0.0,0.0,0.0,0.0,0.0,0.0,-4.7309,-4.7309,-4.7309,-4.7309,-4.7309,-4.7309,-4.7309,-4.7309,-4.7189,-4.701,-4.7219,-4.695,-4.6279,-4.6488,-4.6142,0.0,0.0,0.0,0.0,-4.3469,-4.329,-4.329,-4.329,-4.329,-4.329,-4.329,-4.329,-4.329,-4.329,-4.291,-4.2291,-4.1632,-4.1085,-4.0546,-3.9606,-3.9892,-4.0465,-3.9879,-3.9973,-3.9689,-3.7123,-3.6511,-3.6029,-3.3895,-3.3219,-3.3061,-3.2842,-3.2792,-3.2692,-3.229,-3.239,-3.229,-3.1512,-3.1712,-3.1763,-3.1235,-3.0834,-3.073,-3.1048,-3.0329,-3.0011,-3.0507,-3.0101,-2.9553,-2.8938,-2.8599,-2.8543,-2.8892,-2.7738,-2.7373,-2.8023,-2.7052,-2.6714,-2.7162,-2.7196,-2.6912,-2.6343,-2.6912,-2.6747,-2.5971,-2.6806,-2.6952,-3.2736,-3.4233,-3.516,-3.4322,-3.3125,0.0,0.0,0.0,-2.7829,-2.6482,-2.6213,-2.6422,-2.7106,-2.6896,-2.729,-2.9445,0.0,0.0,0.0,0.0,0.0,0.0,0.0,0.0,0.0,0.0,0.0,0.0,0.0,0.0,-4.7309,-4.707,-4.692,-4.692,-4.7189,-4.7189,-4.695,-4.7189,-4.704,-4.6561,-4.68,-4.6441,-4.5532,-4.5813,-4.5574,0.0,0.0,0.0,0.0,-4.3469,-4.329,-4.329,-4.329,-4.329,-4.329,-4.329,-4.329,-4.329,-4.329,-4.2731,-4.1961,-4.1542,-4.0756,-4.0008,-3.9828,-4.0219,-4.0596,-3.9955,-4.0088,-3.9807,-3.7149,-3.6525,-3.6136,-3.431,-3.3646,-3.3445,-3.3646,-3.3545,-3.3269,-3.2918,-3.2968,-3.2842,-3.2139,-3.2315,-3.234,-3.1788,-3.1436,-3.1392,-3.2006,-3.0918,-3.0392,-3.1197,-3.0381,-2.9744,-2.9668,-2.9476,-2.952,-2.9876,-2.9012,-2.8778,-2.9449,-2.8023,-2.743,-2.7844,-2.7635,-2.7347,-2.7013,-2.7347,-2.7297,-2.6884,-2.733,-2.7297,0.0,-3.2647,-3.3125,-3.3095,-3.2138,-3.0703,-2.8816,0.0,0.0,-2.5884,-2.5615,-2.5854,-2.6662,-2.6692,-2.7081,-2.8637,0.0,0.0,0.0,0.0,0.0,0.0,0.0,0.0,0.0,0.0,0.0,0.0,0.0,0.0,-4.7249,-4.6651,-4.6249,-4.613,-4.683,-4.689,-4.6322,-4.689,-4.6561,-4.5364,-4.5963,-4.5574,-4.4347,-4.4945,-4.4855,0.0,0.0,0.0,0.0,-4.329,-4.329,-4.329,-4.329,-4.329,-4.329,-4.329,-4.326,-4.323,-4.323,-4.2402,-4.1294,-4.1265,-4.0427,-3.9529,-4.0157,-4.0189,-4.0032,-3.9874,-4.0097,-3.9731,-3.6841,-3.6347,-3.6178,-3.4405,-3.3922,-3.4048,-3.4555,-3.4324,-3.3947,-3.3897,-3.3495,-3.3119,-3.3136,-3.3111,-3.2893,-3.2365,-3.224,-3.2345,-3.2777,-3.1533,-3.0939,-3.1861,-3.0663,-3.0101,-3.082,-3.0424,-3.042,-3.1029,-3.0672,-3.0712,-3.1354,-2.9552,-2.8557,-2.8626,-2.8065,-2.7768,-2.7768,-2.7735,-2.7702,-2.7702,-2.7716,-2.7716,-2.8603,0.0,-2.9624,-2.9112,-2.8753,-2.8128,0.0,0.0,0.0,0.0,0.0,0.0,0.0,0.0,0.0,0.0,0.0,0.0,0.0,0.0,0.0,0.0,0.0,0.0,0.0,0.0,0.0,0.0,0.0,-4.71,-4.6591,-4.6369,-4.5801,-4.4825,-4.5424,-4.5933,-4.6279,-4.5963,-4.5873,-4.6082,-4.5693,-4.5095,-4.4317,-4.4466,-4.4197,0.0,0.0,0.0,-4.329,-4.329,-4.329,-4.329,-4.329,-4.329,-4.329,-4.329,-4.303,-4.262,-4.262,-4.1713,-4.0546,-4.0038,-3.9679,-3.9439,-3.9619,-3.9612,-3.9659,-4.0099,-4.0218,-3.9836,-3.8231,-3.7345,-3.6466,-3.5135,-3.4357,-3.4048,-3.4555,-3.4625,-3.4399,-3.3972,-3.3796,-3.3571,-3.3144,-3.3111,-3.3043,-3.2893,-3.2491,-3.2679,-3.4019,-3.2082,-3.1175,-3.2595,-3.0983,-3.0101,-3.082,-3.0764,-3.1256,-3.2585,-3.1678,-3.1391,-3.2115,-3.0713,-3.0195,-3.076,-3.0621,-3.0566,-3.0566,-3.0004,-2.9706,-2.9706,-2.9778,-2.9525,-2.7475,-2.8094,-2.8517,-2.8154,-2.8064,-2.7735,-2.6363,0.0,0.0,0.0,0.0,0.0,0.0,0.0,0.0,0.0,0.0,0.0,0.0,0.0,0.0,0.0,0.0,0.0,0.0,0.0,0.0,0.0,0.0,-4.6561,-4.5903,-4.5574,-4.5065,-4.4347,-4.4377,-4.4706,-4.5394,-4.5334,-4.5334,-4.5394,-4.5035,-4.4496,-4.3828,-4.3828,-4.3618,0.0,0.0,0.0,-4.329,-4.329,-4.329,-4.329,-4.329,-4.329,-4.329,-4.329,-4.312,-4.2791,-4.2791,-4.2132,-4.1085,-3.9828,-3.9619,-3.9798,-3.9499,-3.9373,-3.9559,-4.0217,-4.0248,-3.9782,-3.8364,-3.7468,-3.6577,-3.5377,-3.4679,-3.45,-3.5303,-3.5278,-3.4881,-3.4374,-3.4073,-3.3721,-3.3169,-3.3111,-3.3111,-3.3111,-3.3174,-3.3654,-3.4928,-3.3067,-3.2045,-3.3338,-3.1253,-3.0254,-3.1341,-3.1452,-3.1965,-3.3108,-3.2897,-3.2901,-3.3311,-3.2044,-3.1394,-3.1509,-3.1509,-3.1641,-3.1936,-3.1249,-3.0914,-3.0887,-3.0946,-3.0746,-2.7293,-2.8192,-2.8697,-2.8487,-2.8517,-2.8248,-2.6901,0.0,0.0,0.0,0.0,0.0,0.0,0.0,0.0,0.0,0.0,0.0,0.0,0.0,0.0,0.0,0.0,0.0,0.0,0.0,0.0,0.0,0.0,-4.5963,-4.5185,-4.4616,-4.4257,-4.4167,-4.3589,-4.3559,-4.4167,-4.4706,-4.4766,-4.4317,-4.4227,-4.3828,-4.329,-4.329,-4.329,-4.329,0.0,0.0,-4.329,-4.329,-4.329,-4.329,-4.329,-4.329,-4.329,-4.329,-4.323,-4.314,-4.3021,-4.2671,-4.1961,-4.0157,-3.9948,-4.0277,-3.9619,-3.9373,-3.9589,-4.0337,-4.0345,-3.9799,-3.8314,-3.7534,-3.6768,-3.5447,-3.5041,-3.5229,-3.6286,-3.6181,-3.572,-3.5052,-3.4622,-3.4098,-3.3237,-3.3273,-3.3384,-3.3283,-3.4021,-3.4909,-3.5709,-3.4166,-3.3341,-3.423,-3.1911,-3.0851,-3.2282,-3.2309,-3.2577,-3.3346,-3.3997,-3.4399,-3.4399,-3.3311,-3.2466,-3.1924,-3.1924,-3.2221,-3.2771,-3.2221,-3.1924,-3.1957,-3.1872,-3.1815,-2.7368,-2.8583,-2.9146,-2.8034,-2.8158,-2.8248,-2.6901,0.0,0.0,0.0,0.0,0.0,0.0,0.0,0.0,0.0,0.0,0.0,0.0,0.0,0.0,0.0,0.0,0.0,0.0,0.0,0.0,0.0,0.0,0.0,-4.4526,-4.4377,-4.4047,-4.3469,-4.3349,-4.3349,-4.3439,-4.3559,-4.3828,-4.4317,-4.3708,-4.3379,-4.329,-4.329,-4.329,-4.329,0.0,-4.329,-4.329,-4.329,-4.329,-4.329,-4.329,-4.329,-4.329,-4.329,-4.3,-4.247,-4.1863,-4.1624,-4.1384,-4.0516,-4.0307,-4.0277,-3.9619,-3.9373,-3.9679,-4.0876,-4.0816,-4.0194,-3.9552,-3.8768,-3.7702,-3.5789,-3.5771,-3.6279,-3.6798,-3.7387,-3.75,-3.6131,-3.6233,-3.583,-3.3492,-3.4067,-3.4708,-3.4266,-3.4883,-3.5709,-3.661,-3.5386,-3.4792,-3.5665,-3.3803,-3.287,-3.3812,-3.3345,-3.3381,-3.4162,-3.4332,-3.4399,-3.4399,-3.4211,-3.4028,-3.3941,-3.3941,-3.4008,-3.4109,-3.4008,-3.3941,-3.3941,-3.3425,-3.3194,-2.6104,-2.7321,-2.7994,-2.7684,-2.8876,-2.9717,0.0,0.0,0.0,0.0,0.0,0.0,0.0,0.0,0.0,0.0,0.0,0.0,0.0,0.0,0.0,0.0,0.0,0.0,0.0,0.0,0.0,0.0,0.0,0.0,-4.3798,-4.3738,-4.3618,-4.329,-4.329,-4.329,-4.329,-4.329,-4.3439,-4.3738,-4.3439,-4.329,-4.329,-4.329,-4.329,-4.329,0.0,-4.329,-4.329,-4.329,-4.329,-4.329,-4.329,-4.329,-4.329,-4.329,-4.315,-4.2791,-4.2171,-4.1961,-4.1782,-4.0726,-4.0397,-4.0337,-4.0038,-3.9948,-4.0217,-4.1572,-4.1482,-4.088,-4.0556,-4.0069,-3.935,-3.7908,-3.7693,-3.7914,-3.8246,-3.8688,-3.863,-3.7541,-3.7149,-3.6682,-3.5683,-3.5362,-3.5299,-3.5538,-3.5994,-3.6452,-3.6844,-3.608,-3.5652,-3.6061,-3.4544,-3.3871,-3.4674,-3.4458,-3.4328,-3.439,-3.4399,-3.4399,-3.4399,-3.4399,-3.4399,-3.4399,-3.4399,-3.4399,-3.4399,-3.4399,-3.4399,-3.4399,-3.4109,-3.3993,-2.5116,-2.623,-2.6971,-2.7667,0.0,0.0,0.0,0.0,0.0,0.0,0.0,0.0,0.0,0.0,0.0,0.0,0.0,0.0,0.0,0.0,0.0,0.0,0.0,0.0,0.0,0.0,0.0,0.0,0.0,0.0,-4.3319,-4.329,-4.329,-4.329,-4.329,-4.329,-4.329,-4.329,-4.329,-4.329,-4.329,-4.329,-4.329,-4.329,-4.329,-4.329,-4.329,-4.329,-4.329,-4.329,-4.329,-4.329,-4.329,-4.329,-4.329,-4.329,-4.329,-4.323,-4.2761,-4.253,-4.2201,-4.0995,-4.0636,-4.0606,-4.0457,-4.0516,-4.0876,-4.2081,-4.2021,-4.159,-4.1357,-4.1181,-4.0797,-3.9662,-3.9396,-3.9466,-3.9683,-3.988,-3.9784,-3.8956,-3.838,-3.7923,-3.764,-3.6745,-3.6324,-3.7058,-3.7191,-3.7278,-3.742,-3.692,-3.659,-3.659,-3.5507,-3.4975,-3.5419,-3.5492,-3.5282,-3.4888,-3.4719,-3.4574,-3.4428,-3.4399,-3.4399,-3.4399,-3.4399,-3.4399,-3.4399,-3.4399,-3.4399,-3.4399,-3.4462,-3.4496,-2.5418,-2.6383,-2.7088,-2.8263,-2.8667,0.0,-3.0913,-3.0853,0.0,-3.2826,0.0,0.0,0.0,0.0,0.0,0.0,0.0,0.0,0.0,0.0,0.0,0.0,0.0,0.0,0.0,0.0,0.0,0.0,0.0,0.0,-4.3319,-4.329,-4.329,-4.329,-4.329,-4.329,-4.329,-4.329,-4.329,-4.329,-4.329,-4.329,-4.329,-4.329,-4.329,-4.329,-4.329,-4.329,-4.329,-4.329,-4.329,-4.329,-4.329,-4.329,-4.329,-4.329,-4.329,-4.329,-4.323,-4.288,-4.2291,-4.1572,-4.1362,-4.1205,-4.0576,-4.0816,-4.1482,-4.2201,-4.2381,-4.2276,-4.2018,-4.1918,-4.1497,-3.9816,-4.0009,-4.0531,-4.0465,-4.1024,-4.1226,-4.0203,-4.0532,-4.028,-3.8017,-3.8241,-3.8705,-3.8721,-3.8406,-3.8359,-3.8967,-3.8475,-3.804,-3.804,-3.7482,-3.6837,-3.6273,-3.6244,-3.6186,-3.617,-3.5654,-3.5072,-3.4428,-3.4399,-3.4399,-3.4399,-3.4399,-3.4399,-3.4399,-3.4399,-3.4399,-3.4399,-3.4597,-3.4664,-2.4141,-2.5475,-2.6633,-2.7709,-2.9205,0.0,0.0,-3.2287,-3.3425,-3.504,-3.5998,0.0,0.0,0.0,0.0,0.0,0.0,0.0,0.0,0.0,0.0,0.0,0.0,0.0,0.0,0.0,0.0,0.0,0.0,0.0,0.0,-4.329,-4.315,-4.2731,-4.2731,-4.2731,-4.2731,-4.2731,-4.2731,-4.2731,-4.2731,-4.2731,-4.2731,-4.2731,-4.2731,-4.2761,-4.311,-4.329,-4.329,-4.329,-4.329,-4.329,-4.329,-4.309,-4.2791,-4.314,-4.306,-4.2731,-4.2731,-4.262,-4.2231,-4.1115,-4.1055,-4.1324,-4.1085,-4.1512,-4.2171,-4.2791,-4.297,-4.2951,-4.2841,-4.278,-4.264,-4.2012,-4.2074,-4.2265,-4.2074,-4.2275,-4.2345,-4.1791,-4.1472,-4.1066,-4.029,-3.9874,-3.9536,-3.9312,-3.9016,-3.8792,-3.876,-3.8423,-3.824,-3.8352,-3.8074,-3.7767,-3.7506,-3.7476,-3.7331,-3.6954,-3.5973,-3.5305,-3.5009,-3.4632,-3.4399,-3.4399,-3.4399,-3.4399,-3.4399,-3.4399,-3.4399,-3.4399,-3.4597,-3.4698,-2.2958,-2.4317,-2.5688,-2.6798,0.0,0.0,-3.2527,-3.3993,-3.5701,-3.7614,-3.8392,0.0,0.0,0.0,0.0,0.0,0.0,0.0,0.0,0.0,0.0,0.0,0.0,0.0,0.0,0.0,0.0,0.0,0.0,0.0,0.0,-4.303,-4.2731,-4.2111,-4.2081,-4.2081,-4.2081,-4.2081,-4.2081,-4.2081,-4.1871,-4.1901,-4.2081,-4.2081,-4.2081,-4.2111,-4.2521,-4.2821,-4.303,-4.303,-4.303,-4.303,-4.303,-4.2611,-4.2141,-4.2551,-4.2432,-4.2081,-4.2081,-4.2081,-4.1931,-4.0995,-4.1145,-4.1722,-4.1722,-4.2201,-4.2761,-4.317,-4.329,-4.329,-4.329,-4.329,-4.329,-4.329,-4.329,-4.325,-4.313,-4.3061,-4.305,-4.285,-4.2333,-4.1954,-4.2019,-4.1163,-4.0533,-4.0412,-3.9722,-3.9179,-3.9107,-3.8652,-3.8352,-3.8493,-3.8315,-3.8202,-3.8202,-3.8202,-3.8028,-3.7622,-3.6373,-3.5595,-3.5421,-3.4748,-3.4399,-3.4399,-3.4399,-3.4399,-3.4399,-3.4399,-3.4399,-3.4399,-3.4597,-3.4698,-2.2058,-2.2967,-2.4239,0.0,0.0,0.0,-3.4771,-3.6028,-3.7434,-4.0726,0.0,0.0,0.0,0.0,0.0,0.0,0.0,0.0,0.0,0.0,0.0,0.0,0.0,0.0,0.0,0.0,0.0,0.0,0.0,0.0,0.0,-4.2381,-4.2081,-4.1384,-4.1422,-4.1422,-4.1422,-4.1422,-4.1422,-4.1354,-4.0696,-4.0756,-4.1422,-4.1422,-4.1422,-4.1422,-4.1422,-4.1782,-4.2381,-4.2381,-4.2381,-4.2381,-4.2381,-4.1991,-4.1422,-4.1422,-4.1422,-4.1422,-4.1422,-4.1422,-4.1384,-4.1384,-4.1871,-4.241,-4.241,-4.2821,-4.329,-4.329,-4.329,-4.329,-4.329,-4.329,-4.329,-4.329,-4.329,-4.329,-4.329,-4.329,-4.325,-4.3021,-4.317,-4.317,-4.2769,-4.2158,-4.1871,-4.2316,-4.0596,-3.9499,-4.0305,-3.9282,-3.853,-3.8493,-3.8315,-3.8202,-3.8202,-3.8202,-3.8202,-3.8202,-3.7012,-3.6025,-3.5421,-3.4748,-3.4428,-3.4399,-3.4428,-3.4428,-3.4399,-3.4399,-3.4399,-3.4399,-3.4597,-3.4698,-2.2485,-2.3501,0.0,-2.7027,0.0,0.0,0.0,-3.6948,0.0,0.0,0.0,0.0,0.0,0.0,0.0,0.0,0.0,0.0,0.0,0.0,0.0,0.0,0.0,0.0,0.0,0.0,0.0,0.0,0.0,0.0,0.0,-4.1961,-4.1422,-4.0696,-4.0696,-4.0696,-4.0696,-4.0696,-4.0696,-4.0696,-4.0487,-4.0487,-4.0696,-4.0696,-4.0696,-4.0726,-4.1175,-4.1542,-4.1722,-4.1722,-4.1722,-4.1722,-4.1722,-4.1265,-4.0756,-4.1205,-4.1085,-4.0696,-4.0696,-4.1294,-4.1961,-4.0995,-4.1773,-4.294,-4.253,-4.2821,-4.329,-4.329,-4.329,-4.329,-4.329,-4.329,-4.329,-4.329,-4.329,-4.329,-4.329,-4.329,-4.329,-4.321,-4.325,-4.314,-4.2574,-4.2535,-4.2357,-4.1597,-4.1087,-4.05,-3.9847,-3.9673,-3.9365,-3.8559,-3.8456,-3.8352,-3.8202,-3.8202,-3.8202,-3.8202,-3.7447,-3.6722,-3.6054,-3.5415,-3.4864,-3.4428,-3.4864,-3.4864,-3.4399,-3.4399,-3.4399,-3.4399,-3.4597,-3.4698,-2.1951,-2.3277,0.0,-2.7237,-3.0693,-3.4311,0.0,0.0,0.0,0.0,0.0,0.0,0.0,0.0,0.0,0.0,0.0,0.0,0.0,0.0,0.0,0.0,0.0,0.0,0.0,0.0,0.0,0.0,0.0,0.0,0.0,-4.1205,-4.0696,-4.0038,-4.0008,-4.0008,-4.0008,-4.0008,-4.0008,-4.0008,-4.0008,-4.0008,-4.0008,-4.0008,-4.0008,-4.0038,-4.0696,-4.0995,-4.0995,-4.1265,-4.1235,-4.0995,-4.0995,-4.0576,-4.0068,-4.0457,-4.0337,-4.0008,-4.0008,-4.0876,-4.1871,-4.1055,-4.1953,-4.323,-4.288,-4.303,-4.329,-4.329,-4.329,-4.329,-4.329,-4.329,-4.329,-4.329,-4.329,-4.329,-4.329,-4.329,-4.329,-4.329,-4.329,-4.317,-4.2821,-4.2902,-4.2743,-4.1971,-4.1745,-4.1204,-3.9909,-3.9958,-3.9721,-3.8737,-3.8567,-3.8389,-3.8202,-3.8202,-3.8202,-3.8202,-3.7651,-3.7128,-3.6722,-3.6083,-3.5561,-3.5183,-3.5532,-3.5595,-3.5287,-3.5189,-3.5189,-3.5287,-3.5321,-3.5355,-2.0977,0.0,0.0,-2.6786,0.0,0.0,0.0,0.0,0.0,0.0,0.0,0.0,0.0,0.0,0.0,0.0,0.0,0.0,0.0,0.0,0.0,0.0,0.0,0.0,0.0,0.0,0.0,0.0,0.0,0.0,0.0,-4.0337,-4.0038,-3.9403,-3.9313,-3.932,-3.932,-3.926,-3.9194,-3.9194,-3.9194,-3.926,-3.932,-3.9379,-3.9373,-3.9403,-4.0038,-4.0307,-4.0367,-4.0965,-4.0846,-4.0307,-4.0307,-3.9948,-3.9373,-3.9373,-3.9373,-3.9373,-3.9373,-4.0247,-4.1294,-4.1392,-4.2222,-4.323,-4.326,-4.329,-4.329,-4.329,-4.329,-4.329,-4.329,-4.329,-4.329,-4.329,-4.329,-4.329,-4.329,-4.329,-4.329,-4.329,-4.329,-4.329,-4.329,-4.317,-4.3021,-4.2981,-4.2476,-4.1644,-4.0375,-4.0196,-3.9854,-3.8892,-3.8649,-3.8427,-3.8202,-3.8202,-3.8202,-3.824,-3.768,-3.7389,-3.7389,-3.6751,-3.6373,-3.6315,-3.6373,-3.648,-3.6599,-3.6422,-3.6422,-3.6599,-3.6387,-3.6315,-2.1873,-2.3132,0.0,0.0,0.0,0.0,0.0,0.0,0.0,0.0,0.0,0.0,0.0,0.0,0.0,0.0,0.0,0.0,0.0,0.0,0.0,0.0,0.0,0.0,0.0,0.0,0.0,0.0,0.0,0.0,-4.0367,-3.9918,-3.9559,-3.9373,-3.8901,-3.8601,-3.8601,-3.8093,-3.7853,0.0,-3.7853,-3.8123,-3.8631,-3.917,-3.9373,-3.9403,-3.9559,-3.9619,-3.9649,-3.9798,-3.9768,-3.9619,-3.9619,-3.9559,-3.9373,-3.9373,-3.9373,-3.9373,-3.9373,-3.9948,-4.0696,-4.1205,-4.1961,-4.2671,-4.314,-4.329,-4.329,-4.329,-4.329,-4.329,-4.329,-4.329,-4.329,-4.329,-4.329,-4.329,-4.329,-4.329,-4.329,-4.329,-4.329,-4.329,-4.329,-4.325,-4.317,-4.3021,-4.3011,-4.2485,-4.1088,-4.1024,-4.0509,-3.8988,-3.876,-3.8612,-3.824,-3.8202,-3.8277,-3.8427,-3.8161,-3.8103,-3.8251,-3.7492,-3.6838,-3.6315,-3.6989,-3.7061,-3.6599,-3.6564,-3.6564,-3.6599,-3.6387,-3.6315,0.0,0.0,0.0,0.0,0.0,0.0,0.0,0.0,0.0,0.0,0.0,0.0,0.0,0.0,0.0,0.0,0.0,0.0,0.0,0.0,0.0,0.0,0.0,0.0,0.0,0.0,0.0,0.0,0.0,-3.8931,-3.896,-3.8631,-3.8452,-3.8452,-3.8093,-3.7913,-3.7913,-3.7584,-3.7404,-3.7404,-3.7404,-3.7584,-3.7943,-3.896,-3.9373,-3.9373,-3.9373,-3.923,-3.8931,-3.8931,-3.8751,-3.8482,-3.8811,-3.8931,-3.896,-3.929,-3.9373,-3.9373,-3.9373,-3.9858,-4.0457,-4.0816,-4.1602,-4.247,-4.2761,-4.309,-4.329,-4.329,-4.329,-4.329,-4.329,-4.329,-4.329,-4.329,-4.329,-4.329,-4.329,-4.329,-4.329,-4.329,-4.329,-4.329,-4.329,-4.329,-4.325,-4.317,-4.325,-4.2931,-4.1867,-4.1556,-4.092,-3.9543,-3.9047,-3.8686,-3.8352,-3.853,-3.8626,-3.8493,-3.8681,-3.8748,-3.8679,-3.8245,-3.7747,-3.7215,-3.7674,-3.7821,-3.7651,-3.7542,-3.7542,-3.7651,-3.7434,-3.7288,0.0,0.0,0.0,0.0,0.0,0.0,0.0,0.0,0.0,0.0,0.0,0.0,0.0,0.0,0.0,0.0,0.0,0.0,0.0,0.0,0.0,0.0,0.0,0.0,0.0,0.0,0.0,0.0,0.0,-3.7973,-3.7434,-3.7404,-3.7404,-3.7404,-3.7315,-3.7255,-3.7255,-3.7135,-3.7075,-3.7075,-3.7195,-3.7255,-3.7285,-3.8512,-3.9044,-3.9044,-3.9044,-3.8751,-3.8212,-3.8212,-3.7913,-3.7464,-3.8123,-3.8332,-3.8302,-3.899,-3.923,-3.923,-3.923,-3.9679,-4.0247,-4.0367,-4.1145,-4.2081,-4.2201,-4.2641,-4.311,-4.311,-4.32,-4.329,-4.329,-4.329,-4.329,-4.329,-4.329,-4.329,-4.329,-4.329,-4.329,-4.329,-4.329,-4.329,-4.329,-4.329,-4.329,-4.329,-4.329,-4.309,-4.25,-4.1931,-4.1257,-4.0375,-3.9595,-3.9047,-3.8852,-3.9159,-3.9246,-3.8919,-3.9387,-3.9522,-3.9225,-3.9158,-3.8913,-3.8489,-3.841,-3.8597,-3.9018,-3.8745,-3.8649,-3.8797,-3.8575,-3.8389,0.0,0.0,0.0,0.0,0.0,0.0,0.0,0.0,0.0,0.0,0.0,0.0,0.0,0.0,0.0,0.0,0.0,0.0,0.0,0.0,0.0,0.0,0.0,0.0,0.0,0.0,0.0,0.0,-3.7853,-3.7494,-3.7404,-3.7404,-3.7404,-3.7404,-3.6896,-3.6596,-3.6596,-3.6058,-3.5759,-3.5759,-3.6327,-3.6596,-3.6626,-3.7345,-3.7674,-3.7674,-3.7674,-3.7614,-3.7524,-3.7524,-3.7494,-3.7464,-3.8123,-3.8033,-3.7614,-3.8272,-3.8512,-3.8512,-3.8512,-3.896,-3.9649,-4.0217,-4.0516,-4.0756,-4.1354,-4.2021,-4.253,-4.253,-4.291,-4.329,-4.329,-4.329,-4.329,-4.329,-4.329,-4.329,-4.329,-4.329,-4.329,-4.329,-4.329,-4.329,-4.329,-4.329,-4.329,-4.329,-4.329,-4.309,-4.25,-4.2321,-4.1944,-4.1058,-4.0719,-4.043,-4.0266,-4.0061,-4.014,-4.0468,-4.0402,-4.0509,-4.0804,-4.0622,-4.0241,-3.9606,-3.9166,-3.9313,-3.9951,-3.9313,-3.8943,-3.8797,-3.8575,-3.8389,-2.3176,0.0,0.0,0.0,0.0,0.0,0.0,0.0,0.0,0.0,0.0,0.0,0.0,0.0,0.0,0.0,0.0,0.0,0.0,0.0,0.0,0.0,0.0,0.0,0.0,0.0,0.0,0.0,-3.7045,-3.6716,-3.6357,-3.6357,-3.6357,-3.6357,-3.6088,-3.5938,-3.5938,-3.5639,-3.5519,-3.5519,-3.5789,-3.5938,-3.5938,-3.6207,-3.6716,-3.7404,-3.7404,-3.7225,-3.6896,-3.6896,-3.6656,-3.6417,-3.7075,-3.7135,-3.6956,-3.7614,-3.8063,-3.8392,-3.8392,-3.8841,-3.9433,-3.9768,-4.0098,-4.0457,-4.0756,-4.1602,-4.241,-4.241,-4.2821,-4.329,-4.329,-4.329,-4.329,-4.329,-4.329,-4.329,-4.329,-4.329,-4.329,-4.329,-4.329,-4.329,-4.329,-4.329,-4.329,-4.329,-4.329,-4.32,-4.294,-4.262,-4.2252,-4.1867,-4.1317,-4.0888,-4.0694,-4.0862,-4.093,-4.084,-4.1135,-4.135,-4.1262,-4.1194,-4.1186,-4.1275,-4.0469,-4.0084,-4.0107,-4.0159,-4.0181,-4.0106,-3.9993,-3.9597,0.0,0.0,0.0,0.0,0.0,0.0,0.0,0.0,0.0,0.0,0.0,0.0,0.0,0.0,0.0,0.0,0.0,0.0,0.0,0.0,0.0,0.0,0.0,0.0,0.0,0.0,0.0,0.0,-3.6327,-3.6028,-3.5519,-3.5519,-3.5519,-3.5519,-3.5519,-3.5519,-3.5519,-3.5519,-3.5519,-3.5519,-3.5519,-3.5519,-3.5519,-3.5519,-3.6028,-3.6926,-3.6926,-3.6656,-3.6237,-3.6237,-3.5938,-3.5579,-3.6237,-3.6387,-3.6297,-3.6956,-3.7584,-3.8153,-3.8153,-3.8691,-3.9373,-3.9373,-3.9738,-4.0157,-4.0157,-4.1055,-4.2141,-4.2141,-4.2701,-4.329,-4.329,-4.329,-4.329,-4.329,-4.329,-4.329,-4.329,-4.329,-4.329,-4.329,-4.329,-4.329,-4.329,-4.329,-4.329,-4.329,-4.329,-4.329,-4.329,-4.291,-4.265,-4.265,-4.1969,-4.1546,-4.1361,-4.1725,-4.1774,-4.139,-4.1922,-4.2138,-4.1893,-4.1863,-4.2043,-4.2381,-4.1772,-4.119,-4.0688,-4.1007,-4.1118,-4.1109,-4.1109,-4.0622,0.0,0.0,0.0,0.0,0.0,0.0,0.0,0.0,0.0,0.0,0.0,0.0,0.0,0.0,0.0,0.0,0.0,0.0,0.0,0.0,0.0,0.0,0.0,0.0,0.0,0.0,0.0,0.0,-3.5908,-3.5549,-3.5519,-3.5519,-3.5519,-3.5519,-3.5519,-3.5519,-3.5519,-3.5519,-3.5519,-3.5519,-3.5519,-3.5519,-3.5519,-3.5519,-3.5549,-3.5609,-3.5609,-3.5579,-3.5549,-3.5549,-3.5549,-3.5579,-3.6237,-3.6118,-3.5639,-3.6297,-3.6926,-3.7464,-3.7464,-3.8332,-3.9373,-3.9373,-3.9403,-3.9433,-3.9433,-4.0397,-4.1482,-4.1482,-4.2342,-4.329,-4.329,-4.329,-4.329,-4.329,-4.329,-4.329,-4.329,-4.329,-4.329,-4.329,-4.329,-4.329,-4.329,-4.329,-4.329,-4.329,-4.329,-4.329,-4.329,-4.326,-4.323,-4.323,-4.3041,-4.2892,-4.2892,-4.2721,-4.271,-4.2892,-4.2921,-4.3001,-4.32,-4.32,-4.297,-4.241,-4.2901,-4.2871,-4.2291,-4.1654,-4.127,-4.1109,-4.1109,-4.0888,0.0,0.0,0.0,0.0,0.0,0.0,0.0,0.0,0.0,0.0,0.0,0.0,0.0,0.0,0.0,0.0,0.0,0.0,0.0,0.0,0.0,0.0,0.0,0.0,0.0,0.0,0.0,0.0,0.0,-3.5519,-3.5519,-3.5519,-3.5519,-3.5519,-3.5519,-3.5519,-3.5519,-3.5519,-3.5519,-3.5519,-3.5519,-3.5519,-3.5519,-3.5519,-3.5519,-3.5519,-3.5519,-3.5519,-3.5519,-3.5519,-3.5519,-3.5519,-3.5759,-3.5699,-3.5519,-3.5759,-3.6507,-3.7404,-3.7404,-3.8302,-3.9373,-3.9373,-3.9373,-3.9373,-3.9373,-4.0337,-4.1422,-4.1422,-4.2312,-4.329,-4.329,-4.329,-4.329,-4.329,-4.329,-4.329,-4.329,-4.329,-4.329,-4.329,-4.329,-4.329,-4.329,-4.329,-4.329,-4.329,-4.329,-4.329,-4.329,-4.329,-4.329,-4.329,-4.325,-4.317,-4.3021,-4.305,-4.305,-4.2981,-4.313,-4.321,-4.329,-4.329,-4.32,-4.3,-4.317,-4.3,-4.241,-4.2551,-4.2602,-4.2524,-4.2524,-4.2158,0.0,0.0,0.0,0.0,0.0,0.0,0.0,0.0,0.0,0.0,0.0,0.0,0.0,0.0,0.0,0.0,0.0,0.0,0.0,0.0,0.0,0.0,0.0,0.0,0.0,0.0,0.0,0.0,0.0,0.0,-3.5519,-3.5519,-3.5519,-3.5519,-3.5519,-3.5519,-3.5519,-3.5519,-3.5519,-3.5519,-3.5519,-3.5519,-3.5519,-3.5519,-3.5519,-3.5519,-3.5519,-3.5519,-3.5519,-3.5519,-3.5519,-3.5519,-3.5519,-3.5519,-3.5519,-3.5519,-3.6327,-3.7404,-3.7404,-3.8302,-3.9373,-3.9373,-3.9373,-3.9373,-3.9373,-4.0337,-4.1422,-4.1422,-4.2312,-4.329,-4.329,-4.329,-4.329,-4.329,-4.329,-4.329,-4.329,-4.329,-4.329,-4.329,-4.329,-4.329,-4.329,-4.329,-4.329,-4.329,-4.329,-4.329,-4.329,-4.329,-4.329,-4.329,-4.329,-4.325,-4.313,-4.321,-4.325,-4.313,-4.325,-4.329,-4.329,-4.329,-4.329,-4.329,-4.329,-4.312,-4.2671,-4.312,-4.329,-4.329,-4.329,-4.2882,0.0,0.0,0.0,0.0,0.0,0.0,0.0,0.0,0.0,0.0,0.0,0.0,0.0,0.0,0.0,0.0,0.0,0.0,0.0,0.0,0.0,0.0,0.0,0.0,0.0,0.0,0.0,0.0,-3.5519,-3.5519,-3.5519,-3.5519,-3.5489,-3.5459,-3.5489,-3.5489,-3.5459,-3.5489,-3.5519,-3.5519,-3.5519,-3.5519,-3.5519,-3.5519,-3.5519,-3.5519,-3.5519,-3.5519,-3.5519,-3.5519,-3.5519,-3.5519,-3.5519,-3.5519,-3.5519,-3.5519,-3.6327,-3.7404,-3.7434,-3.8302,-3.9373,-3.9373,-3.9373,-3.9373,-3.9403,-4.0337,-4.1422,-4.1414,-4.2342,-4.329,-4.329,-4.329,-4.329,-4.329,-4.329,-4.329,-4.329,-4.329,-4.329,-4.329,-4.329,-4.329,-4.3319,-4.3319,-4.3319,-4.3319,-4.3349,-4.3349,-4.329,-4.3319,-4.3319,-4.329,-4.329,-4.329,-4.3319,-4.329,-4.329,-4.3319,-4.3319,-4.3319,-4.329,-4.3319,-4.3319,-4.329,-4.329,-4.329,-4.329,-4.329,-4.329,-4.329,-4.329,-4.2882,-2.2115,0.0,0.0,0.0,0.0,0.0,0.0,-2.7046,0.0,0.0,0.0,0.0,0.0,0.0,0.0,0.0,0.0,0.0,0.0,0.0,0.0,0.0,0.0,0.0,0.0,0.0,0.0,0.0,-3.5519,-3.5519,-3.5519,-3.5519,-3.528,-3.4771,-3.525,-3.528,-3.4803,-3.525,-3.5519,-3.5519,-3.5519,-3.5519,-3.5519,-3.5519,-3.5519,-3.5519,-3.5519,-3.5519,-3.5519,-3.5519,-3.5519,-3.5519,-3.5519,-3.5519,-3.5579,-3.6028,-3.6716,-3.7494,-3.7943,-3.8691,-3.9373,-3.9373,-3.9373,-3.9499,-3.9978,-4.0726,-4.1512,-4.1991,-4.2701,-4.329,-4.329,-4.329,-4.329,-4.329,-4.329,-4.329,-4.329,-4.329,-4.329,-4.329,-4.329,-4.3439,-4.3958,-4.4007,-4.4007,-4.4007,-4.4436,-4.4407,-4.3409,-4.3708,-4.3828,-4.3349,-4.329,-4.3499,-4.3977,-4.3559,-4.3499,-4.4018,-4.4007,-4.3838,-4.3319,-4.3738,-4.3798,-4.329,-4.329,-4.329,-4.329,-4.329,-4.329,-4.329,-4.329,-4.3121,0.0,0.0,0.0,0.0,0.0,0.0,-2.4287,-2.5781,-2.7075,0.0,0.0,0.0,0.0,0.0,0.0,0.0,0.0,0.0,0.0,0.0,0.0,0.0,0.0,0.0,0.0,0.0,0.0,-3.4681,-3.519,-3.5519,-3.5519,-3.5519,-3.519,-3.4533,-3.516,-3.504,-3.4114,-3.4741,-3.507,-3.507,-3.507,-3.522,-3.5519,-3.5519,-3.5519,-3.5519,-3.5519,-3.5519,-3.5519,-3.5519,-3.5519,-3.5519,-3.5519,-3.5519,-3.5579,-3.6237,-3.6866,-3.7494,-3.8153,-3.8841,-3.9373,-3.9373,-3.9619,-3.9888,-4.0277,-4.1055,-4.1901,-4.2291,-4.2821,-4.329,-4.329,-4.329,-4.329,-4.329,-4.329,-4.329,-4.329,-4.329,-4.329,-4.329,-4.329,-4.3409,-4.3838,-4.4137,-4.4317,-4.4317,-4.4885,-4.4915,-4.3828,-4.4077,-4.4167,-4.3738,-4.3708,-4.3898,-4.4287,-4.4227,-4.4197,-4.4317,-4.4556,-4.4436,-4.3738,-4.4107,-4.4137,-4.3708,-4.3708,-4.3708,-4.3708,-4.3439,-4.329,-4.329,-4.329,-4.325,0.0,0.0,0.0,0.0,0.0,0.0,-2.4661,-2.5041,-2.5281,0.0,0.0,0.0,0.0,0.0,0.0,0.0,0.0,0.0,0.0,0.0,0.0,0.0,0.0,0.0,0.0,-3.4023,-3.4144,-3.3544,-3.4681,-3.537,-3.528,-3.5429,-3.513,-3.4292,-3.507,-3.4831,-3.3395,-3.4144,-3.4503,-3.4503,-3.4503,-3.4831,-3.5519,-3.5519,-3.5519,-3.5519,-3.5519,-3.5519,-3.5519,-3.5519,-3.5519,-3.5519,-3.5519,-3.5549,-3.5699,-3.6357,-3.6985,-3.7614,-3.8272,-3.8901,-3.9373,-3.9373,-3.9798,-4.0307,-4.0457,-4.1324,-4.2321,-4.247,-4.294,-4.3379,-4.3319,-4.3349,-4.3379,-4.3319,-4.329,-4.329,-4.329,-4.329,-4.329,-4.329,-4.329,-4.3349,-4.3499,-4.4047,-4.4436,-4.4526,-4.5095,-4.5244,-4.4526,-4.4496,-4.4496,-4.4436,-4.4436,-4.4466,-4.4526,-4.5005,-4.5095,-4.4556,-4.5095,-4.5125,-4.4436,-4.4496,-4.4496,-4.4436,-4.4436,-4.4436,-4.4436,-4.3648,-4.329,-4.329,-4.329,-4.329,0.0,0.0,0.0,0.0,0.0,0.0,-2.4959,-2.5963,-2.661,0.0,0.0,0.0,0.0,0.0,0.0,0.0,0.0,0.0,0.0,0.0,0.0,0.0,0.0,0.0,0.0,-3.3512,-3.3634,-3.3514,-3.4233,-3.4442,-3.3903,-3.4921,-3.4711,-3.2946,-3.4592,-3.4622,-3.2706,-3.3873,-3.4503,-3.4503,-3.4503,-3.4831,-3.5519,-3.5519,-3.5519,-3.5519,-3.5519,-3.5519,-3.5519,-3.5519,-3.5519,-3.5519,-3.5519,-3.5818,-3.6357,-3.7015,-3.7644,-3.8302,-3.899,-3.932,-3.9373,-3.9373,-3.9499,-3.9798,-4.0876,-4.1422,-4.1803,-4.2851,-4.3629,-4.3988,-4.3439,-4.3678,-4.3947,-4.3409,-4.329,-4.329,-4.329,-4.329,-4.329,-4.329,-4.329,-4.3618,-4.4736,-4.5005,-4.5304,-4.5801,-4.6501,-4.6471,-4.5274,-4.5603,-4.5723,-4.5155,-4.5095,-4.5334,-4.5831,-4.5544,-4.5484,-4.5903,-4.601,-4.5813,-4.5125,-4.5633,-4.5663,-4.5125,-4.5095,-4.5095,-4.5095,-4.3858,-4.329,-4.329,-4.329,-4.329,0.0,0.0,0.0,-2.5561,0.0,0.0,0.0,-2.5507,-2.6034,0.0,0.0,0.0,0.0,0.0,0.0,0.0,0.0,0.0,0.0,0.0,0.0,0.0,0.0,0.0,0.0,-3.175,-3.2287,-3.2946,-3.3305,-3.3484,-3.3484,-3.4143,-3.4053,-3.3036,-3.4292,-3.4352,-3.3006,-3.3993,-3.4503,-3.4503,-3.4503,-3.4831,-3.5519,-3.5519,-3.5519,-3.5519,-3.5519,-3.5519,-3.5519,-3.5519,-3.5519,-3.5519,-3.5519,-3.5699,-3.6118,-3.7045,-3.7614,-3.8033,-3.908,-3.9373,-3.9373,-3.9373,-3.9858,-4.0516,-4.1175,-4.1833,-4.2491,-4.311,-4.3529,-4.3708,-4.3379,-4.3529,-4.3708,-4.3379,-4.329,-4.329,-4.329,-4.329,-4.3379,-4.3708,-4.3798,-4.3928,-4.4257,-4.4855,-4.5394,-4.5753,-4.6651,-4.695,-4.5933,-4.6112,-4.6202,-4.5843,-4.5813,-4.5933,-4.6249,-4.6322,-4.6292,-4.6279,-4.6621,-4.6501,-4.5843,-4.6142,-4.613,-4.5813,-4.5813,-4.5813,-4.5813,-4.4796,-4.4137,-4.3768,-4.3439,-4.329,0.0,0.0,0.0,0.0,0.0,-2.5365,0.0,0.0,0.0,0.0,0.0,0.0,0.0,0.0,0.0,0.0,0.0,0.0,0.0,0.0,0.0,0.0,0.0,0.0,0.0,-3.0043,-3.0821,-3.2019,-3.2228,-3.2557,-3.3095,-3.3365,-3.3395,-3.3125,-3.4024,-3.4144,-3.3305,-3.4114,-3.4503,-3.4503,-3.4503,-3.4831,-3.5519,-3.5519,-3.5519,-3.5519,-3.5519,-3.5519,-3.5519,-3.5519,-3.5519,-3.5519,-3.5519,-3.5669,-3.5998,-3.7015,-3.7584,-3.7943,-3.9014,-3.9373,-3.9373,-3.9373,-4.0307,-4.1414,-4.1572,-4.2402,-4.329,-4.329,-4.3379,-4.3439,-4.3319,-4.3379,-4.3439,-4.3319,-4.3379,-4.3469,-4.3469,-4.3589,-4.3828,-4.4407,-4.4496,-4.4377,-4.3947,-4.4796,-4.5544,-4.5663,-4.6621,-4.71,-4.6591,-4.6501,-4.6501,-4.6501,-4.6501,-4.6501,-4.6501,-4.701,-4.707,-4.6561,-4.701,-4.707,-4.6488,-4.6501,-4.6501,-4.6501,-4.6501,-4.6501,-4.6501,-4.5813,-4.5155,-4.4496,-4.3798,-4.3559,0.0,0.0,0.0,0.0,-2.7469,0.0,0.0,0.0,-2.6044,0.0,0.0,0.0,0.0,0.0,0.0,0.0,0.0,0.0,0.0,0.0,0.0,0.0,0.0,0.0,0.0,0.0,-2.9983,-3.0672,-3.1271,-3.166,-3.172,-3.2856,-3.2976,-3.175,-3.3514,-3.3873,-3.2647,-3.3844,-3.4503,-3.4503,-3.4503,-3.4831,-3.5519,-3.5519,-3.5519,-3.5519,-3.5519,-3.5519,-3.5519,-3.5519,-3.5519,-3.5519,-3.5519,-3.6207,-3.7195,-3.7375,-3.8153,-3.9164,-3.9343,-3.9373,-3.9373,-3.9373,-4.0307,-4.1542,-4.2111,-4.2761,-4.329,-4.329,-4.3708,-4.4077,-4.3439,-4.3738,-4.4047,-4.3439,-4.3738,-4.4197,-4.4197,-4.4646,-4.5095,-4.5155,-4.5185,-4.5364,-4.5903,-4.607,-4.6411,-4.698,-4.7219,-4.7279,-4.7219,-4.7189,-4.7189,-4.7189,-4.7189,-4.7189,-4.7189,-4.7249,-4.7279,-4.7189,-4.7279,-4.7279,-4.7189,-4.7189,-4.7189,-4.7189,-4.7189,-4.7189,-4.7189,-4.6531,-4.5843,-4.5155,-4.4496,-4.4496,0.0,0.0,0.0,0.0,0.0,0.0,0.0,0.0,-2.5974,0.0,0.0,0.0,0.0,0.0,0.0,0.0,0.0,0.0,0.0,0.0,0.0,0.0,0.0,0.0,0.0,0.0,0.0,0.0,0.0,-3.1331,-3.0943,-3.2198,-3.2677,-3.2079,-3.3275,-3.3814,-3.3664,-3.4592,-3.507,-3.507,-3.507,-3.522,-3.5519,-3.5519,-3.5519,-3.5519,-3.5519,-3.5519,-3.5519,-3.5519,-3.5519,-3.5549,-3.5938,-3.6417,-3.6926,-3.7285,-3.8003,-3.8871,-3.929,-3.9373,-3.9559,-4.0307,-4.1175,-4.2111,-4.2731,-4.312,-4.329,-4.329,-4.3499,-4.3648,-4.3349,-4.3499,-4.3738,-4.3828,-4.4107,-4.4436,-4.4796,-4.5095,-4.5424,-4.5813,-4.5903,-4.6112,-4.677,-4.6591,-4.6369,-4.6681,-4.707,-4.7309,-4.7309,-4.7309,-4.7309,-4.7309,-4.7309,-4.7309,-4.7309,-4.7309,-4.7309,-4.7309,-4.7309,-4.7309,-4.7309,-4.7309,-4.7309,-4.7309,-4.7309,-4.7309,-4.7309,-4.704,-4.6741,-4.6441,-4.5364,-4.5035,-2.9804,0.0,0.0,0.0,0.0,0.0,0.0,0.0,0.0,0.0,0.0,0.0,0.0,0.0,0.0,0.0,0.0,0.0,0.0,0.0,0.0,0.0,0.0,0.0,0.0,0.0,0.0,0.0,0.0,0.0,-3.0522,-3.1599,-3.2288,-3.2467,-3.3155,-3.3814,-3.4503,-3.516,-3.5519,-3.5519,-3.5519,-3.5519,-3.5519,-3.5519,-3.5519,-3.5519,-3.5519,-3.5519,-3.5519,-3.5519,-3.5519,-3.5579,-3.6237,-3.6596,-3.6806,-3.7434,-3.8093,-3.8751,-3.926,-3.9493,-3.9918,-4.1235,-4.2021,-4.253,-4.315,-4.329,-4.329,-4.329,-4.329,-4.329,-4.329,-4.329,-4.3469,-4.4167,-4.4436,-4.4766,-4.5424,-4.5723,-4.5992,-4.6501,-4.6591,-4.6741,-4.7219,-4.692,-4.6591,-4.6591,-4.701,-4.7309,-4.7309,-4.7309,-4.7309,-4.7309,-4.7309,-4.7309,-4.7309,-4.7309,-4.7309,-4.7309,-4.7309,-4.7309,-4.7309,-4.7309,-4.7309,-4.7309,-4.7309,-4.7309,-4.7309,-4.7309,-4.7309,-4.7279,-4.6112,-4.5663,0.0,0.0,0.0,-2.9063,0.0,0.0,0.0,0.0,-2.7102,0.0,0.0,0.0,0.0,0.0,0.0,0.0,0.0,0.0,0.0,0.0,0.0,0.0,0.0,0.0,0.0,0.0,0.0,0.0,0.0,0.0,-3.0462,-3.1152,-3.1839,-3.2497,-3.3155,-3.3814,-3.4503,-3.516,-3.5519,-3.5519,-3.5519,-3.5519,-3.5519,-3.5519,-3.5519,-3.5519,-3.5519,-3.5519,-3.5519,-3.5519,-3.5519,-3.5579,-3.6237,-3.6866,-3.7464,-3.8123,-3.8781,-3.9379,-3.9373,-3.9828,-4.0576,-4.1931,-4.2381,-4.253,-4.315,-4.329,-4.329,-4.329,-4.329,-4.329,-4.329,-4.329,-4.3469,-4.4167,-4.4796,-4.5454,-4.6142,-4.68,-4.7249,-4.7279,-4.7279,-4.7279,-4.7309,-4.7279,-4.7279,-4.7279,-4.7309,-4.7309,-4.7309,-4.7309,-4.7309,-4.7309,-4.7309,-4.7309,-4.7309,-4.7309,-4.7309,-4.7309,-4.7309,-4.7309,-4.7309,-4.7309,-4.7309,-4.7309,-4.7309,-4.7309,-4.7309,-4.7309,-4.7309,-4.7279,-4.6621,-4.6621,0.0,0.0,-2.9754,-2.9553,0.0,0.0,0.0,0.0,0.0,0.0,0.0,0.0,0.0,0.0,0.0,0.0,0.0,0.0,0.0,0.0,0.0,0.0,0.0,0.0,0.0,0.0,0.0,0.0,0.0,0.0,0.0,-3.0913,-3.1809,-3.2497,-3.3155,-3.3814,-3.4503,-3.516,-3.5519,-3.5519,-3.5519,-3.5519,-3.5519,-3.5519,-3.5519,-3.5519,-3.5519,-3.5519,-3.5549,-3.5968,-3.6148,-3.6267,-3.7315,-3.7883,-3.8093,-3.8302,-3.8811,-3.9433,-3.9918,-4.0487,-4.1205,-4.2111,-4.2641,-4.303,-4.323,-4.329,-4.329,-4.329,-4.329,-4.329,-4.329,-4.329,-4.3559,-4.4706,-4.5125,-4.5603,-4.6741,-4.716,-4.7309,-4.7309,-4.7309,-4.7309,-4.7309,-4.7309,-4.7309,-4.7309,-4.7309,-4.7309,-4.7309,-4.7309,-4.7309,-4.7309,-4.7309,-4.7309,-4.7309,-4.7309,-4.7309,-4.7309,-4.7309,-4.7309,-4.7309,-4.7309,-4.7309,-4.7309,-4.7309,-4.7309,-4.7309,-4.7309,-4.7309,-4.7309,-4.707,-4.71,-2.9804,-2.9804,0.0,-2.9804,-2.9528,0.0,-2.9227,0.0,0.0,0.0,0.0,0.0,0.0,0.0,0.0,0.0,0.0,0.0,0.0,-2.5119,0.0,0.0,0.0,0.0,0.0,0.0,0.0,0.0,0.0,0.0,0.0,0.0,-3.1899,-3.2826,-3.3514,-3.4173,-3.4863,-3.528,-3.5519,-3.5519,-3.5519,-3.5519,-3.5519,-3.5519,-3.5519,-3.5519,-3.5519,-3.5519,-3.5549,-3.6207,-3.6477,-3.6626,-3.7883,-3.8392,-3.8422,-3.8661,-3.905,-3.9589,-4.0696,-4.1235,-4.1572,-4.2432,-4.3,-4.329,-4.329,-4.329,-4.329,-4.329,-4.329,-4.329,-4.329,-4.3469,-4.3917,-4.5035,-4.5484,-4.5963,-4.707,-4.7309,-4.7309,-4.7309,-4.7309,-4.7309,-4.7309,-4.7309,-4.7309,-4.7309,-4.7309,-4.7309,-4.7309,-4.7309,-4.7309,-4.7309,-4.7309,-4.7309,-4.7309,-4.7309,-4.7309,-4.7309,-4.7309,-4.7309,-4.7309,-4.7309,-4.7519,-4.7997,-4.7549,-4.7549,-4.7997,-4.7549,-4.7309,-4.7309,-4.7309,-4.7309]},{"header":{"parameterUnit":"m.s-1","parameterCategory":1,"la1":30.6,"la2":29.2853,"lo1":-89.7004,"lo2":-87.6739,"dy":0.0162,"dx":0.0183,"nx":112,"ny":82,"refTime":"2024-03-12T12:00:00:Z","depth":0,"parameterNumber":3,"parameterNumberName":"V-component_of_WINDS"},"data":[0.0,0.0,0.0,0.0,0.0,0.0,0.0,0.0,0.0,0.0,0.0,0.0,0.0,0.0,0.0,0.0,0.0,0.0,0.0,0.0,0.0,0.0,0.0,0.0,0.0,0.0,0.0,0.0,0.0,0.0,0.0,0.0,0.0,0.0,0.0,0.0,0.0,0.0,0.0,0.0,0.0,0.0,0.0,0.0,0.0,0.0,0.0,0.0,0.0,0.0,0.0,0.0,0.0,0.0,0.0,0.0,0.0,0.0,0.0,0.0,0.0,0.0,0.0,0.0,0.0,0.0,0.0,0.0,0.0,0.0,0.0,0.0,0.0,0.0,0.0,0.0,0.0,0.0,0.0,0.0,0.0,0.0,0.0,0.0,0.0,0.0,0.0,0.0,0.0,0.0,0.0,2.3903,2.5482,2.6069,2.5365,2.4593,2.3659,2.2437,0.0,0.0,0.0,0.0,0.0,0.0,0.0,0.0,0.0,0.0,0.0,0.0,0.0,0.0,0.0,0.0,0.0,0.0,0.0,0.0,0.0,0.0,0.0,0.0,0.0,0.0,0.0,0.0,0.0,0.0,0.0,0.0,0.0,0.0,0.0,0.0,0.0,0.0,0.0,0.0,0.0,0.0,0.0,0.0,0.0,0.0,0.0,0.0,0.0,0.0,0.0,0.0,0.0,0.0,0.0,0.0,0.0,0.0,0.0,0.0,0.0,0.0,0.0,0.0,0.0,0.0,0.0,0.0,0.0,0.0,0.0,0.0,0.0,0.0,0.0,0.0,0.0,0.0,0.0,0.0,0.0,0.0,0.0,0.0,0.0,0.0,0.0,0.0,0.0,0.0,0.0,0.0,0.0,0.0,0.0,0.0,0.0,0.0,0.0,0.0,0.0,0.0,0.0,0.0,2.1915,2.471,2.623,2.6826,2.6265,2.4502,2.3231,2.2754,0.0,0.0,0.0,0.0,0.0,0.0,0.0,0.0,0.0,0.0,0.0,0.0,0.0,0.0,0.0,0.0,0.0,0.0,0.0,0.0,0.0,0.0,0.0,0.0,0.0,0.0,0.0,0.0,0.0,0.0,0.0,0.0,0.0,0.0,0.0,0.0,0.0,0.0,0.0,0.0,0.0,0.0,0.0,0.0,0.0,0.0,0.0,0.0,0.0,0.0,0.0,0.0,0.0,0.0,0.0,0.0,0.0,0.0,0.0,0.0,0.0,0.0,0.0,0.0,0.0,0.0,0.0,0.0,0.0,0.0,0.0,0.0,0.0,0.0,0.0,0.0,0.0,0.0,0.0,0.0,0.0,0.0,0.0,0.0,0.0,0.0,0.0,0.0,0.0,0.0,0.0,0.0,0.0,0.0,0.0,0.0,0.0,0.0,0.0,0.0,0.0,0.0,0.0,2.1858,2.3029,2.5032,2.5799,2.5913,2.5302,2.3702,2.2592,2.2272,2.2087,0.0,0.0,0.0,0.0,0.0,0.0,0.0,0.0,0.0,0.0,0.0,0.0,0.0,0.0,0.0,0.0,0.0,0.0,0.0,0.0,0.0,0.0,0.0,0.0,0.0,0.0,0.0,0.0,0.0,0.0,0.0,0.0,0.0,0.0,0.0,0.0,0.0,0.0,0.0,0.0,0.0,0.0,0.0,0.0,0.0,0.0,0.0,0.0,0.0,0.0,0.0,0.0,0.0,0.0,0.0,0.0,0.0,0.0,0.0,0.0,0.0,0.0,0.0,0.0,0.0,0.0,0.0,0.0,0.0,0.0,0.0,0.0,0.0,0.0,0.0,0.0,0.0,0.0,0.0,0.0,0.0,0.0,0.0,0.0,0.0,0.0,0.0,0.0,0.0,0.0,0.0,0.0,0.0,0.0,0.0,0.0,0.0,0.0,0.0,0.0,0.0,0.0,2.315,2.3825,2.5158,2.5158,2.485,2.4348,2.2778,2.1804,2.1817,2.1344,0.0,0.0,0.0,0.0,0.0,0.0,0.0,0.0,0.0,0.0,0.0,0.0,0.0,0.0,0.0,0.0,0.0,0.0,0.0,0.0,0.0,0.0,0.0,0.0,0.0,0.0,0.0,0.0,0.0,0.0,0.0,0.0,0.0,0.0,0.0,0.0,0.0,0.0,0.0,0.0,0.0,0.0,0.0,0.0,0.0,0.0,0.0,0.0,0.0,0.0,0.0,0.0,0.0,0.0,0.0,0.0,0.0,0.0,0.0,0.0,0.0,0.0,0.0,0.0,0.0,0.0,0.0,0.0,0.0,0.0,0.0,0.0,0.0,0.0,0.0,0.0,0.0,0.0,0.0,0.0,0.0,0.0,0.0,0.0,0.0,0.0,0.0,0.0,0.0,0.0,0.0,0.0,0.0,0.0,0.0,0.0,0.0,0.0,0.0,0.0,0.0,0.0,2.2874,2.3825,2.5158,2.4748,2.4348,2.4317,2.1935,2.0829,2.1754,2.091,0.0,0.0,0.0,0.0,0.0,0.0,0.0,0.0,0.0,0.0,0.0,0.0,0.0,0.0,0.0,0.0,0.0,0.0,0.0,0.0,0.0,0.0,0.0,0.0,0.0,0.0,0.0,0.0,0.0,0.0,0.0,0.0,0.0,0.0,0.0,0.0,0.0,0.0,0.0,0.0,0.0,0.0,0.0,0.0,0.0,0.0,0.0,0.0,0.0,0.0,0.0,0.0,0.0,0.0,0.0,0.0,0.0,0.0,0.0,0.0,0.0,0.0,0.0,0.0,0.0,0.0,0.0,0.0,0.0,0.0,0.0,0.0,0.0,0.0,0.0,0.0,0.0,0.0,0.0,0.0,0.0,0.0,0.0,0.0,0.0,0.0,0.0,0.0,0.0,0.0,0.0,0.0,0.0,0.0,0.0,0.0,0.0,0.0,0.0,0.0,0.0,0.0,2.2494,2.3025,0.0,2.3825,2.3332,2.2501,2.1103,2.0464,2.0833,0.0,0.0,0.0,0.0,0.0,0.0,0.0,0.0,0.0,0.0,0.0,0.0,0.0,0.0,0.0,0.0,0.0,0.0,0.0,0.0,0.0,0.0,0.0,0.0,0.0,0.0,0.0,0.0,0.0,0.0,0.0,0.0,0.0,0.0,0.0,0.0,0.0,0.0,0.0,0.0,0.0,0.0,0.0,0.0,0.0,0.0,0.0,0.0,0.0,0.0,0.0,0.0,0.0,0.0,0.0,0.0,0.0,0.0,0.0,0.0,0.0,0.0,0.0,0.0,0.0,0.0,0.0,0.0,0.0,0.0,0.0,0.0,0.0,0.0,0.0,0.0,0.0,0.0,0.0,0.0,0.0,0.0,0.0,0.0,0.0,0.0,0.0,0.0,0.0,0.0,0.0,0.0,0.0,0.0,0.0,0.0,0.0,0.0,0.0,0.0,0.0,0.0,2.1961,2.2007,2.2248,0.0,2.2902,2.2212,2.1073,2.0234,1.9817,1.998,0.0,0.0,0.0,0.0,0.0,0.0,0.0,0.0,0.0,0.0,0.0,0.0,0.0,0.0,0.0,0.0,0.0,0.0,0.0,0.0,0.0,0.0,0.0,0.0,0.0,0.0,0.0,0.0,0.0,0.0,0.0,0.0,0.0,0.0,0.0,0.0,0.0,0.0,0.0,0.0,0.0,0.0,0.0,0.0,0.0,0.0,0.0,0.0,0.0,0.0,0.0,0.0,0.0,0.0,0.0,0.0,0.0,0.0,0.0,0.0,0.0,0.0,0.0,0.0,0.0,0.0,0.0,0.0,0.0,0.0,0.0,0.0,0.0,0.0,0.0,0.0,0.0,0.0,0.0,0.0,0.0,0.0,0.0,0.0,0.0,0.0,0.0,0.0,0.0,0.0,0.0,0.0,0.0,0.0,0.0,0.0,0.0,0.0,0.0,0.0,0.0,0.0,2.1796,2.1466,2.1651,2.3117,2.2089,2.1011,2.0381,1.9248,1.8795,0.0,0.0,0.0,0.0,0.0,0.0,0.0,0.0,0.0,0.0,0.0,0.0,0.0,0.0,0.0,0.0,0.0,0.0,0.0,0.0,0.0,0.0,0.0,0.0,0.0,0.0,0.0,0.0,0.0,0.0,0.0,0.0,0.0,0.0,0.0,0.0,0.0,0.0,0.0,0.0,0.0,0.0,0.0,0.0,0.0,0.0,0.0,0.0,0.0,0.0,0.0,0.0,0.0,0.0,0.0,0.0,0.0,0.0,0.0,0.0,0.0,0.0,0.0,0.0,0.0,0.0,0.0,0.0,0.0,0.0,0.0,0.0,0.0,0.0,0.0,0.0,0.0,0.0,0.0,0.0,0.0,0.0,0.0,0.0,0.0,0.0,0.0,0.0,0.0,0.0,0.0,0.0,0.0,0.0,0.0,0.0,0.0,0.0,0.0,0.0,0.0,0.0,0.0,2.1252,2.1228,2.1314,2.1824,2.1535,2.1011,2.0381,1.9088,1.8889,2.0268,0.0,0.0,0.0,0.0,0.0,0.0,0.0,0.0,0.0,0.0,0.0,0.0,0.0,0.0,0.0,0.0,0.0,0.0,0.0,0.0,0.0,0.0,0.0,0.0,0.0,0.0,0.0,0.0,0.0,0.0,0.0,0.0,0.0,0.0,0.0,0.0,0.0,0.0,0.0,0.0,0.0,0.0,0.0,0.0,0.0,0.0,0.0,0.0,0.0,0.0,0.0,0.0,0.0,0.0,0.0,0.0,0.0,0.0,0.0,0.0,0.0,0.0,0.0,0.0,0.0,0.0,0.0,0.0,0.0,0.0,0.0,0.0,0.0,0.0,0.0,0.0,0.0,0.0,0.0,0.0,0.0,0.0,0.0,0.0,0.0,0.0,0.0,0.0,0.0,0.0,0.0,0.0,0.0,0.0,0.0,0.0,0.0,0.0,0.0,0.0,0.0,0.0,2.1014,2.088,2.0855,2.1257,2.1042,2.0628,1.995,1.9229,1.9264,2.032,0.0,0.0,0.0,0.0,0.0,0.0,0.0,0.0,0.0,0.0,0.0,0.0,0.0,0.0,0.0,0.0,0.0,0.0,0.0,0.0,0.0,0.0,0.0,0.0,0.0,0.0,0.0,0.0,0.0,0.0,0.0,0.0,0.0,0.0,0.0,0.0,0.0,0.0,0.0,0.0,0.0,0.0,0.0,0.0,0.0,0.0,0.0,0.0,0.0,0.0,0.0,0.0,0.0,0.0,0.0,0.0,0.0,0.0,0.0,0.0,0.0,0.0,0.0,0.0,0.0,0.0,0.0,0.0,0.0,0.0,0.0,0.0,0.0,0.0,0.0,0.0,0.0,0.0,0.0,0.0,0.0,0.0,0.0,0.0,0.0,0.0,0.0,0.0,0.0,0.0,0.0,0.0,0.0,0.0,0.0,0.0,0.0,0.0,0.0,0.0,0.0,0.0,2.1014,2.0513,2.0395,2.1134,2.0641,2.0042,1.9425,1.9545,1.9752,1.9925,0.0,0.0,0.0,0.0,0.0,0.0,0.0,0.0,0.0,0.0,0.0,0.0,0.0,0.0,0.0,0.0,0.0,0.0,0.0,0.0,0.0,0.0,0.0,0.0,0.0,0.0,0.0,0.0,0.0,0.0,0.0,0.0,0.0,0.0,0.0,0.0,0.0,0.0,0.0,0.0,0.0,0.0,0.0,0.0,0.0,0.0,0.0,0.0,0.0,0.0,0.0,0.0,0.0,0.0,0.0,0.0,0.0,0.0,0.0,0.0,2.4727,0.0,0.0,0.0,0.0,0.0,0.0,0.0,0.0,0.0,0.0,0.0,0.0,0.0,0.0,0.0,0.0,0.0,0.0,0.0,0.0,0.0,0.0,0.0,0.0,0.0,0.0,0.0,0.0,0.0,0.0,0.0,0.0,0.0,0.0,0.0,0.0,0.0,0.0,0.0,0.0,0.0,2.1075,2.0513,2.0212,2.0487,2.0381,2.0258,2.0104,1.9677,1.9829,2.0924,2.0624,0.0,0.0,0.0,0.0,0.0,0.0,0.0,0.0,0.0,0.0,0.0,0.0,0.0,0.0,0.0,0.0,0.0,0.0,0.0,0.0,0.0,0.0,0.0,0.0,0.0,0.0,0.0,0.0,0.0,0.0,0.0,0.0,0.0,0.0,0.0,0.0,0.0,0.0,0.0,0.0,0.0,0.0,0.0,0.0,0.0,0.0,0.0,0.0,0.0,0.0,0.0,0.0,0.0,0.0,0.0,0.0,0.0,0.0,0.0,0.0,2.5764,0.0,0.0,0.0,0.0,0.0,0.0,0.0,0.0,0.0,0.0,0.0,0.0,0.0,0.0,0.0,0.0,0.0,0.0,0.0,0.0,0.0,0.0,0.0,0.0,0.0,0.0,0.0,0.0,0.0,0.0,0.0,0.0,0.0,0.0,0.0,0.0,0.0,0.0,0.0,0.0,2.1197,2.0615,2.022,2.0272,2.032,2.032,2.032,1.998,2.0236,2.1228,2.0951,0.0,0.0,0.0,0.0,0.0,0.0,0.0,0.0,0.0,0.0,0.0,0.0,0.0,0.0,0.0,0.0,0.0,0.0,0.0,0.0,0.0,0.0,0.0,0.0,0.0,0.0,0.0,0.0,0.0,0.0,0.0,0.0,0.0,0.0,0.0,0.0,0.0,0.0,0.0,0.0,0.0,0.0,0.0,0.0,0.0,0.0,0.0,0.0,0.0,0.0,0.0,0.0,0.0,2.8781,2.9684,3.0371,3.107,3.1073,3.0451,2.8984,2.7201,2.5518,2.758,0.0,0.0,0.0,0.0,0.0,0.0,0.0,0.0,0.0,0.0,0.0,0.0,0.0,0.0,0.0,0.0,0.0,0.0,0.0,0.0,0.0,0.0,0.0,0.0,2.6195,2.5127,0.0,0.0,0.0,0.0,0.0,0.0,0.0,0.0,0.0,0.0,0.0,0.0,2.1473,2.0795,2.0333,2.0474,2.0381,2.032,2.032,2.032,2.0561,2.1166,2.1276,2.1569,0.0,0.0,0.0,0.0,0.0,0.0,0.0,0.0,0.0,0.0,0.0,0.0,0.0,0.0,0.0,0.0,0.0,0.0,0.0,0.0,0.0,0.0,0.0,0.0,0.0,0.0,0.0,0.0,0.0,0.0,0.0,0.0,2.1328,2.2191,0.0,0.0,0.0,0.0,0.0,0.0,0.0,0.0,0.0,0.0,0.0,0.0,0.0,2.5913,2.7097,2.7676,2.8237,2.8685,2.9673,3.0275,3.0571,3.1139,3.1439,3.1546,3.198,0.0,2.9525,2.875,0.0,0.0,0.0,0.0,0.0,0.0,0.0,0.0,0.0,0.0,0.0,0.0,0.0,0.0,0.0,0.0,0.0,0.0,0.0,0.0,0.0,0.0,2.7026,2.7211,2.7642,2.7396,0.0,2.4973,2.4933,2.4071,2.3117,0.0,0.0,0.0,0.0,0.0,0.0,0.0,2.2182,2.1073,2.0518,2.1103,2.0641,2.032,2.032,2.032,2.046,2.0844,2.1135,2.1462,2.1857,2.2152,0.0,0.0,0.0,0.0,0.0,0.0,0.0,0.0,0.0,0.0,0.0,0.0,0.0,0.0,0.0,0.0,0.0,0.0,0.0,0.0,0.0,0.0,0.0,0.0,0.0,0.0,0.0,0.0,0.0,2.2949,2.3263,2.2506,2.3684,2.3982,0.0,0.0,0.0,0.0,0.0,0.0,0.0,0.0,0.0,2.6399,2.7288,2.8088,2.8757,2.9791,3.0503,3.0893,3.1846,3.2262,3.2152,3.2789,3.3119,3.3261,3.4134,3.413,3.3427,3.1855,3.072,2.9894,0.0,0.0,0.0,0.0,2.9206,2.9329,3.0074,2.9612,0.0,2.9341,0.0,0.0,0.0,0.0,0.0,0.0,0.0,0.0,0.0,0.0,2.8627,2.8996,2.931,2.9279,2.8356,2.7864,2.7065,0.0,2.5025,2.5149,2.5056,0.0,0.0,0.0,0.0,2.2182,2.1781,2.1227,2.0826,2.0734,2.0474,2.032,2.032,2.032,2.0426,2.0778,2.0958,2.1245,2.1783,2.193,2.2123,0.0,0.0,0.0,0.0,0.0,0.0,0.0,0.0,0.0,0.0,0.0,0.0,0.0,0.0,0.0,0.0,0.0,0.0,0.0,0.0,0.0,0.0,0.0,0.0,0.0,0.0,0.0,0.0,2.4554,2.4849,2.2972,2.4925,2.5572,0.0,0.0,0.0,0.0,0.0,0.0,2.6863,2.8281,2.8987,2.8856,2.9849,3.0524,3.0766,3.1901,3.2607,3.292,3.37,3.3885,3.3582,3.4158,3.443,3.4546,3.5265,3.5669,3.5705,3.4059,3.2614,3.1459,3.1397,3.1182,3.094,3.1274,3.1516,3.1767,3.2598,3.2228,3.1424,3.1428,0.0,2.9704,2.8264,0.0,0.0,0.0,0.0,2.8288,2.8781,2.9427,3.0104,3.0755,3.0909,3.0848,3.0694,3.0412,2.9335,0.0,2.6534,2.6934,2.6226,0.0,0.0,0.0,0.0,2.212,2.1627,2.1257,2.0919,2.0597,2.0412,2.032,2.032,2.032,2.0392,2.0662,2.0745,2.1039,2.1508,2.1723,2.1915,2.2166,0.0,0.0,0.0,0.0,0.0,0.0,0.0,0.0,0.0,0.0,0.0,0.0,0.0,0.0,0.0,0.0,0.0,0.0,0.0,0.0,0.0,0.0,0.0,0.0,0.0,0.0,0.0,0.0,0.0,2.3809,2.6413,0.0,0.0,0.0,0.0,2.8106,2.8237,2.8752,2.9813,3.0503,3.1339,3.2411,3.3038,3.3613,3.4136,3.4214,3.4267,3.4308,3.4361,3.4345,3.4361,3.4402,3.4526,3.4815,3.4898,3.5107,3.5232,3.3868,3.3698,3.4104,3.2163,3.1767,3.2228,3.1613,3.1797,3.2259,3.1674,3.1486,3.1732,3.3673,3.4258,3.395,3.2505,3.1643,0.0,0.0,2.974,3.0263,3.0294,3.0812,3.1459,3.2136,3.229,3.2105,3.1486,3.1797,3.1274,0.0,2.6842,2.6226,2.5465,0.0,2.404,2.3425,2.2748,2.2305,2.2243,2.1134,2.058,2.1196,2.069,2.032,2.032,2.032,2.032,2.0306,2.0611,2.0811,2.0844,2.1447,2.1812,2.1827,2.2137,0.0,0.0,0.0,0.0,0.0,0.0,0.0,0.0,0.0,0.0,0.0,0.0,0.0,0.0,0.0,0.0,0.0,0.0,0.0,0.0,0.0,0.0,0.0,0.0,0.0,0.0,0.0,0.0,2.717,2.9362,0.0,2.8717,2.9301,2.9823,3.0032,3.0738,3.1496,3.2306,3.3247,3.3953,3.4345,3.492,3.5312,3.5495,3.5887,3.5704,3.4972,3.5338,3.5103,3.4397,3.4397,3.4439,3.4564,3.4738,3.5477,3.6416,3.5218,3.4769,3.4811,3.4728,3.4291,3.3796,3.3981,3.4197,3.4414,3.4599,3.4383,3.4012,3.3829,3.349,3.3029,3.2536,3.2228,3.2013,3.1982,3.2167,3.2351,3.2351,3.2505,3.2628,3.2444,3.2382,3.2321,3.2105,3.189,3.1274,2.9643,2.8812,2.8104,2.7403,2.5641,2.4379,2.4543,2.364,2.2778,2.2366,2.1874,2.1504,2.1319,2.0703,2.032,2.032,2.032,2.0254,2.0185,2.0357,2.0544,2.0663,2.0974,2.1339,2.1797,2.1723,2.1812,0.0,0.0,0.0,0.0,0.0,0.0,0.0,0.0,0.0,0.0,0.0,0.0,0.0,0.0,0.0,0.0,0.0,0.0,0.0,0.0,0.0,0.0,0.0,0.0,0.0,0.0,2.9602,3.0124,3.1872,3.261,3.1513,3.1824,3.215,3.2437,3.3143,3.3927,3.4711,3.5469,3.5966,3.6175,3.6515,3.6698,3.6698,3.7116,3.6828,3.5887,3.6044,3.56,3.4685,3.4476,3.4397,3.4397,3.438,3.5009,3.5947,3.5339,3.4782,3.4506,3.5812,3.5799,3.5064,3.5554,3.5738,3.5799,3.6322,3.6199,3.5676,3.4752,3.4137,3.3737,3.349,3.3429,3.349,3.3706,3.3767,3.3706,3.346,3.3398,3.3244,3.2567,3.2382,3.2321,3.205,3.1863,3.1397,3.0211,2.9654,2.9119,2.8227,2.6349,2.5149,2.561,2.4317,2.3209,2.2994,2.2378,2.1781,2.135,2.0703,2.032,2.032,2.0505,2.0501,2.0198,2.0452,2.0605,2.051,2.0915,2.1423,2.2009,2.2162,2.2363,2.2665,0.0,0.0,0.0,0.0,0.0,0.0,0.0,0.0,0.0,0.0,0.0,0.0,0.0,0.0,0.0,0.0,0.0,0.0,0.0,0.0,0.0,0.0,0.0,2.8072,2.9782,3.1392,3.244,3.3768,3.4443,3.4091,3.4176,3.4536,3.5338,3.5391,3.5887,3.6985,3.7063,3.7325,3.7874,3.79,3.79,3.79,3.79,3.7586,3.6959,3.6384,3.5809,3.526,3.4659,3.4397,3.4371,3.3849,3.3654,3.3657,3.4059,3.3786,3.3404,3.5274,3.5973,3.5973,3.6133,3.6196,3.6227,3.6414,3.6476,3.6507,3.6507,3.6507,3.6384,3.5737,3.5552,3.5398,3.472,3.4536,3.4382,3.3583,3.3398,3.3244,3.2567,3.2382,3.2201,3.142,3.1839,3.174,2.9674,2.9327,2.8996,2.7673,2.6842,2.6402,2.6402,2.4656,0.0,2.4194,2.2532,2.135,2.135,2.0764,2.0381,2.0364,2.0949,2.1042,2.0333,2.0919,2.098,2.0302,2.1252,2.196,2.2362,2.3408,2.3811,2.3448,0.0,0.0,0.0,0.0,0.0,0.0,0.0,0.0,0.0,0.0,0.0,0.0,0.0,0.0,0.0,0.0,0.0,0.0,0.0,0.0,0.0,0.0,2.9603,2.9352,3.1477,3.3374,3.428,3.5791,3.6509,3.5915,3.6315,3.6741,3.7123,3.756,3.79,3.8214,3.824,3.8135,3.7926,3.79,3.79,3.79,3.79,3.7377,3.6358,3.6175,3.56,3.4633,3.4476,3.4397,3.4397,3.4241,3.4295,3.4445,3.4059,3.3926,3.404,3.5405,3.5651,3.5299,3.5816,3.6132,3.6196,3.6258,3.6383,3.6507,3.6507,3.6507,3.6445,3.6261,3.623,3.6076,3.5429,3.5244,3.4937,3.3706,3.3398,3.3244,3.2567,3.2382,3.2351,3.2112,3.1863,3.1463,3.0781,2.9971,2.915,2.8288,2.7149,2.6349,2.638,2.5025,0.0,2.3609,2.2675,2.2212,2.2686,2.2151,2.1713,2.1688,2.1872,2.1369,2.0031,2.0193,2.0276,2.0093,2.0404,2.0887,2.1579,2.2671,2.3521,0.0,0.0,0.0,0.0,0.0,0.0,0.0,0.0,0.0,0.0,0.0,0.0,0.0,0.0,0.0,0.0,0.0,0.0,0.0,0.0,0.0,0.0,3.0532,3.2114,3.2516,3.3922,3.5273,3.6193,3.6998,3.7419,3.7365,3.7556,3.7821,3.8054,3.8668,3.8893,3.8397,3.8579,3.8449,3.7926,3.79,3.79,3.79,3.79,3.7429,3.6488,3.6227,3.5626,3.4763,3.4528,3.4397,0.0,3.3901,3.3766,3.3845,3.2978,3.2718,0.0,0.0,0.0,0.0,0.0,3.5527,3.572,3.6006,3.6195,3.6289,3.6352,3.6383,3.6383,3.6445,3.6507,3.6353,3.5706,3.5306,3.4844,3.3675,3.3183,3.2875,3.2475,3.2355,3.2238,3.1962,3.1808,3.1508,3.0823,3.0195,0.0,2.8861,2.741,2.6472,2.6749,2.5395,2.4256,2.4164,2.3302,2.2871,2.3271,2.2647,2.221,2.2152,2.2389,0.0,0.0,0.0,2.0898,2.0953,2.1157,0.0,0.0,0.0,2.4244,2.4699,0.0,0.0,0.0,2.5845,2.5829,0.0,0.0,0.0,0.0,0.0,0.0,0.0,0.0,0.0,0.0,0.0,0.0,0.0,0.0,0.0,0.0,3.2842,3.4851,3.6458,3.6709,3.7109,3.7914,3.7638,3.7635,3.8334,3.8171,3.8156,3.8445,3.9177,3.9185,3.8089,0.0,0.0,0.0,0.0,3.79,3.79,3.79,3.7612,3.6985,3.6384,3.5809,3.5286,3.4685,3.4397,3.4345,3.3247,3.2751,3.262,3.1522,3.1052,3.1123,3.2506,3.3178,3.3422,3.4177,3.4677,3.5073,3.5623,0.0,0.0,3.6133,3.6164,3.6196,3.6414,3.6445,3.6322,3.5676,3.509,3.4443,3.3614,3.2967,3.2475,3.2413,3.2302,3.2038,3.1427,3.1763,3.1799,3.0475,3.0326,3.015,2.9409,2.7731,2.6688,2.7211,2.5641,2.4574,2.5004,2.404,2.3332,2.3374,0.0,0.0,2.2308,2.2778,2.2748,2.202,2.2037,2.2152,2.2267,2.2629,2.3109,2.3739,2.4862,2.5301,2.5084,2.5799,2.6343,2.6691,2.6691,2.6657,0.0,0.0,0.0,0.0,0.0,0.0,0.0,0.0,0.0,0.0,0.0,0.0,0.0,0.0,0.0,3.2918,3.5102,3.6985,3.8216,3.8768,3.8793,3.809,3.8316,3.8516,3.841,3.8382,3.8581,3.931,3.9711,3.9625,3.8951,3.9268,3.8972,3.7926,3.79,3.79,3.79,3.79,3.7612,3.6985,0.0,0.0,3.5286,3.4685,3.4397,3.4371,3.3692,3.3143,3.2646,3.1967,3.1392,3.1086,3.1955,3.3038,3.4041,3.363,3.4346,3.5494,3.5041,3.5365,3.6005,3.6037,3.6037,3.6068,3.6196,3.6258,0.0,3.5645,3.5429,3.5028,3.3737,3.3306,3.3059,3.2536,3.2302,3.216,3.2038,3.2015,3.1934,3.1663,3.0857,3.0143,2.9863,2.8363,2.7057,2.6573,2.5711,2.4758,2.3825,2.3456,2.3497,2.3968,2.3866,2.3722,2.3504,2.3604,2.3119,2.1834,2.1901,2.2017,2.2056,2.2286,2.2728,2.337,2.4457,2.5191,2.5563,2.6101,2.6477,2.678,2.6684,2.6589,0.0,0.0,0.0,0.0,0.0,0.0,0.0,0.0,0.0,0.0,0.0,2.8549,2.9905,0.0,3.2993,3.5177,3.6684,3.799,3.912,3.9521,3.9396,3.8542,3.8693,3.8818,3.8666,3.8741,3.9017,3.9371,3.9902,3.9846,3.9046,3.9139,3.8847,3.8111,3.7707,3.7551,3.7716,3.7716,3.7404,3.6805,3.6653,3.6123,3.5286,3.4972,3.4685,3.4371,3.3822,3.343,3.3064,3.2163,3.1496,3.1048,3.1394,3.1992,3.2648,3.2648,3.3178,3.3876,3.3905,3.4211,3.4677,3.5139,3.5302,3.5397,3.5943,3.61,3.5979,3.5431,3.5278,3.5032,3.3652,3.3284,3.313,3.2456,3.2135,3.2025,3.2109,3.1996,3.1912,3.1996,3.1314,3.0666,3.0536,2.9567,2.8321,2.6848,2.6085,2.529,2.4273,2.4162,2.4162,2.4088,2.4088,2.4024,2.3803,2.3739,2.3275,2.2314,2.2415,2.2534,2.2543,2.2701,2.3117,2.3794,2.4647,2.5331,2.579,2.6335,2.6602,2.6575,2.6371,2.6341,0.0,0.0,0.0,0.0,0.0,0.0,0.0,0.0,2.7555,2.895,2.9955,3.1085,3.2717,3.3847,3.5203,3.7186,3.7965,3.8642,3.9572,3.9697,3.9521,3.9094,3.907,3.907,3.907,3.9247,3.9348,3.9323,3.9982,3.9955,3.8932,3.8905,3.8743,3.8243,3.7612,3.733,3.7413,3.7413,3.718,3.669,3.6858,3.6426,3.5539,3.5391,3.5025,3.4528,3.3875,3.3535,3.3352,3.2411,3.1641,3.1156,3.1156,3.1078,3.1048,3.1663,3.2074,3.2362,3.2826,3.3073,3.3353,3.4245,3.4514,3.4743,3.5655,3.5941,3.582,3.5336,3.5247,3.5095,3.3873,3.3568,3.3385,3.2684,3.2241,3.2009,3.2093,3.1917,3.1799,3.194,3.1506,3.1073,3.0995,3.0472,2.9459,2.7504,2.6721,2.6084,2.531,2.5133,2.4828,2.4204,2.4052,2.3919,2.376,2.3674,2.3413,2.2987,2.308,2.3244,2.3468,2.3621,2.3989,2.4687,2.5364,2.5834,2.6103,2.6601,2.6722,2.6552,2.6081,2.5946,2.7032,2.6358,2.5961,2.6813,2.6289,2.649,0.0,0.0,3.0156,3.2717,3.3345,3.3947,3.5625,3.6408,3.7236,3.8542,3.9145,3.9546,3.9672,3.9697,3.9672,3.9622,3.9597,3.9597,3.9597,3.9648,3.9648,3.9648,3.9955,3.9855,3.9195,3.9394,3.9056,3.798,3.7855,3.7621,3.7155,3.7155,3.7129,3.7052,3.6767,3.6593,3.6437,3.567,3.526,3.5129,3.4058,3.33,3.2777,3.2646,3.2254,3.1719,3.1719,3.1444,3.1011,3.1086,3.1955,3.3003,3.2434,3.2648,3.3318,3.4075,3.4346,3.4514,3.5432,3.572,3.5752,3.585,3.5883,3.5763,3.4972,3.479,3.4607,3.3879,3.3154,3.2613,3.2613,3.2045,3.1597,3.1799,3.1255,3.0772,3.08,3.0286,2.9407,2.8086,2.7813,2.7297,2.6054,2.5371,2.4932,2.4738,2.4195,2.376,2.3631,2.361,2.358,2.3511,2.3618,2.4018,2.4754,2.4924,2.5369,2.6134,2.6811,2.7057,2.6869,2.6954,2.701,2.7095,2.5923,2.528,2.7608,2.792,2.8213,0.0,2.8147,2.9026,3.0959,3.1788,3.2692,3.45,3.5353,3.6232,3.7612,3.8064,3.8417,0.0,3.9546,3.9697,3.9697,3.9421,3.9094,3.8743,3.8718,3.8969,3.9622,3.9697,3.9697,3.9697,3.98,3.9726,3.9499,3.9272,3.8891,3.8225,3.7749,3.7292,3.6875,3.6875,3.6875,3.6875,3.6852,3.6708,3.6418,3.5867,3.5288,3.4737,3.4267,3.3744,3.3221,3.3221,3.2672,3.1797,3.1797,3.1458,3.0973,3.0973,3.1394,3.1882,3.1579,3.1653,3.2101,3.3283,3.3665,3.3905,3.5169,3.5557,3.5619,3.5683,3.575,3.5664,3.4998,3.4817,3.4666,3.394,3.3487,3.3156,3.3156,3.2886,3.2587,3.2373,3.2072,3.1741,3.1436,3.1136,3.0596,2.9606,2.8824,2.8011,2.7073,2.6398,2.5878,2.5417,2.4687,2.4252,2.4208,2.4186,2.4186,2.4186,2.4679,2.5145,2.5553,2.5696,2.5961,2.638,2.6957,2.7231,2.7137,2.7358,2.7303,2.6927,2.6334,2.5606,2.7957,0.0,0.0,2.8734,2.9704,3.1085,3.2089,3.3244,3.4474,3.5683,3.6634,3.7487,3.8442,3.8617,3.8818,3.9371,3.9471,3.9471,3.9471,3.8994,3.8417,3.7839,3.7638,3.7939,3.8919,3.9145,3.9295,3.9446,3.9471,3.9521,3.9697,3.932,3.8869,3.8287,3.7711,3.7157,3.664,3.6615,3.6615,3.6615,3.6875,3.6811,3.6376,3.591,3.5253,3.4464,3.4266,3.3996,3.3658,3.3658,3.3019,3.211,3.1993,3.1616,3.1133,3.1052,3.0973,3.0973,3.0973,3.0973,3.1235,3.272,3.3178,3.3492,3.5034,3.5519,3.5519,3.5519,3.5587,3.5533,3.505,3.493,3.4811,3.433,3.3996,3.3754,3.3754,3.3634,3.3395,3.3006,3.2916,3.2705,3.2103,3.1983,3.1743,3.0881,2.9834,2.8816,2.7974,2.721,2.6507,2.5822,2.5242,2.4874,2.4874,2.4874,2.4874,2.4874,2.5415,2.5892,2.6213,2.6352,2.6558,2.6888,2.7278,2.7452,2.7405,2.7673,2.7525,2.7018,2.6711,2.6063,0.0,0.0,2.8594,2.9517,3.0557,3.1938,3.4123,3.463,3.5152,3.681,3.7161,3.7362,3.7939,3.804,3.8216,3.8844,3.8944,3.8944,3.8944,3.8391,3.7839,3.7287,3.6782,3.6681,0.0,3.7739,3.8291,3.8894,3.8944,3.912,3.9672,3.9672,3.9145,3.804,3.799,3.7462,3.6405,3.6405,3.6405,3.6405,3.664,3.6709,3.6658,3.5794,3.5109,3.4546,3.3956,3.37,3.37,3.37,3.3367,3.2829,3.2507,3.2018,3.1448,3.1107,3.0973,3.0973,3.0973,3.0973,3.1235,3.272,3.3178,3.3492,3.5034,3.5519,3.5519,3.5519,3.5489,3.5489,3.5489,3.5489,3.5459,3.5459,3.4951,3.4474,3.4474,3.3933,3.3484,3.3455,3.3455,3.3245,3.2587,3.2497,3.2258,3.157,3.0883,2.9983,2.8727,2.741,2.6333,2.5674,2.5585,2.5561,2.5561,2.5561,2.5561,2.5561,2.5585,2.5961,2.6736,2.6909,2.7357,2.8149,2.818,2.8107,2.7989,2.7865,2.771,2.7555,2.6896,2.6572,2.8664,0.0,3.0189,3.1644,3.2792,3.3897,3.4981,3.583,3.6408,3.6656,3.6681,3.6584,3.636,3.6335,3.6684,3.7613,3.8065,3.8567,3.932,3.8944,3.8115,3.681,3.681,0.0,0.0,0.0,0.0,3.8844,3.8919,3.912,3.9672,3.9697,3.9346,3.8592,3.8567,3.8216,3.7462,3.7462,3.7262,3.6958,3.6628,3.6391,3.613,3.5867,3.5315,3.4597,3.4392,3.4084,3.3725,3.3725,3.3392,3.2905,3.2808,3.214,3.1306,3.1319,3.1318,3.1279,3.1066,3.0973,3.1235,3.272,3.3178,3.3492,3.5034,3.5519,3.5519,3.5519,3.5519,3.5519,3.5519,3.5519,3.5519,3.5519,3.534,3.516,3.516,3.4981,3.4711,3.4233,3.4174,3.3933,3.3275,3.3155,3.2796,3.166,3.0582,2.9594,2.8697,2.7799,2.7195,2.6956,2.6512,2.6243,2.6243,2.6243,2.6243,2.6243,2.6686,2.7095,2.7459,2.7508,2.7697,2.8039,2.7965,2.7915,2.7865,2.774,2.7665,2.7585,2.7375,2.7046,2.9578,3.0482,3.1336,3.3194,3.4349,3.5107,3.5705,3.6081,3.6132,3.5651,3.5152,3.4776,3.4379,3.4154,3.4505,3.6056,3.6609,3.7287,3.8617,3.8492,3.7864,3.681,3.681,3.6558,0.0,0.0,0.0,3.8467,3.8793,3.912,3.9672,3.9697,3.9446,3.8944,3.8919,3.8592,3.8015,3.7814,3.7437,3.6885,3.6581,3.6276,3.6063,3.5886,3.5451,3.4921,3.4514,3.4132,3.3751,3.3547,3.3267,3.2962,3.28,3.2306,3.1658,3.1796,3.1837,3.1746,3.1185,3.113,3.1499,3.2767,3.3178,3.3492,3.5034,3.5519,3.5549,3.5789,3.5699,3.5549,3.5789,3.5669,3.5519,3.5519,3.5519,3.5519,3.5519,3.5519,3.537,3.4921,3.4831,3.4622,3.3963,3.3455,3.2856,3.1989,3.0761,2.9684,2.9026,2.8368,2.7974,2.7974,2.7375,2.6956,2.6956,2.6956,2.6956,2.6956,2.7375,2.7665,2.7715,2.7765,2.784,2.7945,2.784,2.779,2.779,2.769,2.7585,2.7585,2.7585,2.7375,3.0457,3.116,3.2089,3.4274,3.5132,3.5633,3.6204,3.5429,3.4474,3.3897,3.2867,3.2064,0.0,0.0,3.2064,3.4274,3.4726,3.5403,3.7086,3.7312,3.7287,0.0,0.0,0.0,0.0,0.0,0.0,3.7965,0.0,3.9069,3.9672,3.9697,3.9446,3.8969,3.8969,3.8642,3.809,3.7513,3.6983,3.6455,3.643,3.6405,3.638,3.583,3.5533,3.5433,3.4424,3.3947,3.3847,3.3345,3.3093,3.3061,3.2702,3.2516,3.2456,3.2437,3.2392,3.2277,3.1394,3.1418,3.2052,3.2988,3.3326,3.364,3.5123,3.5609,3.5729,3.6357,3.6088,3.5759,3.6357,3.6058,3.5549,3.5549,3.5519,3.5519,3.5519,3.5519,3.5519,3.5519,3.5519,3.531,3.4683,3.3455,3.2587,3.2587,3.145,3.0372,2.9741,2.9056,2.8637,2.8607,2.8034,2.7645,2.7645,2.7645,2.7675,2.7705,2.7675,2.7645,2.7645,2.7745,2.7821,2.779,2.7821,2.7821,2.779,2.7665,2.7585,2.7585,2.7585,2.7585,3.2416,3.347,3.4198,3.5604,3.5755,3.5433,3.5203,3.4299,3.3219,3.224,3.116,3.0156,0.0,0.0,0.0,3.3194,3.4876,0.0,3.8768,3.9044,0.0,3.7889,0.0,3.8014,3.7262,3.7814,0.0,0.0,3.8391,3.8668,3.9647,3.9697,3.9622,3.9496,3.9496,3.9421,3.927,3.8291,3.7513,3.696,3.6606,3.6405,3.6405,3.6254,3.5931,3.5483,3.5207,3.465,3.3897,3.3746,3.3445,3.3111,3.3003,3.2676,3.2273,3.2422,3.2536,3.2516,3.2159,3.2645,3.3506,3.4344,3.5017,3.5693,3.6624,3.6926,3.6956,3.7135,3.7045,3.6956,3.7135,3.6716,3.6237,3.6237,3.5848,3.5519,3.5519,3.5519,3.5519,3.5519,3.5519,3.5459,3.528,3.4532,3.3814,3.3335,3.2527,3.1569,3.0402,2.9714,2.9146,2.8637,2.8457,2.8338,2.8338,2.8338,2.8547,2.9052,2.8607,2.8338,2.8338,2.8364,2.815,2.7665,2.812,2.815,2.7665,2.761,2.7585,2.7585,2.7585,2.7585,3.3771,3.463,3.5182,3.5855,3.5579,3.4856,3.3872,3.2591,3.1235,2.988,2.8699,0.0,0.0,0.0,0.0,0.0,0.0,0.0,3.8241,3.9019,3.9195,0.0,3.9044,0.0,3.8341,3.8642,3.902,0.0,3.8944,3.9019,3.9672,3.9697,3.9697,3.9697,3.9697,3.9572,3.932,3.8442,3.7739,3.7186,3.6681,3.6405,3.6405,3.6405,3.6207,3.5881,0.0,3.5006,3.4248,3.4248,3.3796,3.3093,3.3345,3.3244,3.2943,3.3156,3.3267,3.3301,3.3373,3.3857,3.4582,3.4966,3.539,3.5971,3.7094,3.7404,3.7464,3.7764,3.7644,3.7464,3.7764,3.7375,3.6836,3.6537,3.6207,3.5848,3.5579,3.5519,3.5519,3.5519,3.5519,3.5519,3.5519,3.4921,3.4384,3.3993,3.3365,3.2557,3.1509,3.0582,2.9834,2.9475,2.9205,2.9026,2.9026,2.9026,2.9175,2.9592,2.8966,2.8727,2.9026,2.8757,2.8427,2.8064,2.8397,2.8248,2.7585,2.7585,2.7585,2.7585,2.7585,2.7585,3.4851,3.5307,3.5608,3.5608,3.5082,3.4148,3.239,3.0733,2.9101,2.7394,0.0,2.546,2.5385,2.6072,2.748,3.0181,0.0,3.4098,3.701,3.8191,3.8994,3.9622,3.9697,3.9697,3.9697,3.927,3.917,3.9672,3.9697,3.9697,3.9697,3.9697,3.9697,3.9697,3.9697,3.9421,3.8919,3.8291,3.7739,3.7186,3.6681,3.6405,3.6405,3.6405,3.6405,3.638,3.5855,0.0,3.4826,3.4826,3.4223,3.3345,3.3822,3.3997,3.4042,3.4218,3.4262,3.4306,3.4568,3.494,3.5277,3.5145,3.5293,3.5693,3.6975,3.7391,3.7569,3.8044,3.7777,3.7486,3.8186,3.7893,3.7267,3.6866,3.6596,3.6327,3.5759,3.5579,3.5519,3.5519,3.5519,3.5519,3.5519,3.5011,3.4623,3.4503,3.4024,3.3395,3.2736,3.1539,3.0702,3.0522,3.0013,2.9741,2.9741,2.9741,2.9771,2.9834,2.9205,2.9086,2.9592,2.9026,2.8637,2.8457,2.8547,2.8248,2.7585,2.7585,2.7585,2.7585,2.7585,2.7585,3.6358,3.6483,3.6232,3.6257,3.5152,3.3495,3.1361,2.9603,0.0,0.0,0.0,2.4775,2.4356,2.5837,0.0,3.0231,0.0,0.0,0.0,0.0,3.8542,0.0,0.0,0.0,0.0,0.0,0.0,0.0,0.0,3.9697,3.9697,3.9697,3.9697,3.9697,3.9697,3.9421,3.8919,3.8291,3.7739,3.7186,3.6681,3.6405,3.6405,3.6405,3.6405,3.6405,3.6304,0.0,3.5357,3.5357,3.4981,3.4449,3.455,3.4575,3.4575,3.4575,3.462,3.4665,3.4914,3.506,3.5149,3.5223,3.6175,3.7299,3.7072,3.7337,3.765,3.7262,3.7063,3.7187,3.8036,3.7718,3.7373,3.7953,3.7255,3.6447,3.6327,3.5878,3.5519,3.5519,3.5519,3.5519,3.5519,3.54,3.513,3.4593,3.4414,3.4053,3.3395,3.2647,3.1749,3.0612,3.0402,3.0342,3.0342,3.0342,3.0582,3.1122,3.0552,3.0013,2.9621,2.9502,2.8903,2.7794,2.8308,2.8248,2.7585,2.7585,2.7585,2.7585,2.7585,2.7585,3.6885,3.6985,3.6659,3.6107,3.4474,3.2365,2.988,0.0,0.0,0.0,2.3847,2.3496,2.3552,0.0,0.0,0.0,0.0,0.0,0.0,0.0,0.0,0.0,0.0,0.0,0.0,0.0,0.0,0.0,0.0,3.9697,3.9697,3.9697,3.9697,3.9697,3.9697,3.9572,3.9295,3.8743,3.8316,3.804,3.7186,3.6935,3.7186,3.6681,3.6556,3.6832,3.6531,0.0,3.5508,3.5855,3.5479,3.4751,3.4981,3.5107,3.5107,3.5107,3.5107,3.5152,3.5244,3.5203,3.5099,3.5167,3.5995,3.6946,3.6906,3.7091,3.7288,3.6978,3.6894,3.7088,3.7947,3.797,3.7747,3.7858,3.6896,3.5968,3.5968,3.5729,3.5519,3.5519,3.5519,3.5519,3.5519,3.5519,3.54,3.507,3.5011,3.4771,3.4083,3.3724,3.3036,3.1689,3.1539,3.142,3.1032,3.1002,3.1152,3.1481,3.0881,3.0522,3.0582,3.0253,2.9594,2.8663,2.8963,2.8633,2.7585,2.7585,2.7585,2.7585,2.7585,2.7585,3.701,3.7186,3.696,3.5956,3.3947,3.1486,2.8725,2.6791,0.0,0.0,2.2769,2.2594,2.302,0.0,0.0,0.0,0.0,0.0,0.0,0.0,0.0,0.0,0.0,0.0,0.0,0.0,0.0,0.0,0.0,0.0,3.9697,3.9697,3.9697,3.9697,3.9697,3.9697,3.9697,3.9145,3.8919,3.8919,3.7839,3.7588,3.7965,3.7111,3.6885,3.7161,3.6782,0.0,0.0,3.6182,3.5855,3.5127,3.5508,3.5683,3.5683,3.5683,3.5683,3.5683,3.5683,3.5521,3.537,3.5187,3.5548,3.6133,3.6413,3.65,3.6512,3.6413,3.6385,3.6582,3.7453,3.7796,3.7817,3.7461,3.6746,3.6058,3.5759,3.5699,3.5699,3.5699,3.5609,3.5519,3.5519,3.5519,3.5519,3.5519,3.5519,3.531,3.4803,3.4713,3.4233,3.3066,3.2677,3.2288,3.175,3.16,3.1511,3.1511,3.1002,3.0883,3.1271,3.0791,3.0223,2.9621,2.9621,2.9022,2.7824,2.7974,2.7884,2.7615,2.7884,2.7854,3.691,3.7186,3.7036,3.648,3.4223,3.1486,2.8725,0.0,0.0,2.3446,2.307,2.3045,2.3095,2.3572,2.4732,0.0,0.0,0.0,0.0,0.0,0.0,0.0,0.0,0.0,0.0,0.0,0.0,0.0,0.0,0.0,3.9697,3.9697,3.9697,3.9697,3.9697,3.9697,3.9697,3.9145,3.8919,3.8919,3.8241,3.7965,3.8015,3.7889,3.7613,3.7186,3.7136,0.0,0.0,3.638,3.6355,3.6254,3.6304,3.6329,3.6329,3.6329,3.6329,3.6329,3.6329,3.6304,3.615,3.535,3.5417,3.5747,3.5236,3.5267,3.5331,3.4778,3.462,3.4827,3.5696,3.6464,3.7082,3.7356,3.7793,3.7793,3.6656,3.6387,3.6387,3.6387,3.5908,3.5519,3.5519,3.5519,3.5519,3.5519,3.5519,3.5489,3.5429,3.54,3.513,3.4414,3.3215,3.2497,3.2407,3.1839,3.1511,3.1511,3.1451,3.1152,3.0612,3.0522,3.0223,2.9621,2.9621,2.9235,2.8517,2.9116,2.8783,2.7615,2.8843,2.8753,3.5805,3.6684,3.696,3.6081,3.3771,3.1085,2.8649,0.0,2.4725,2.3371,2.2844,2.2719,2.3045,2.302,2.3703,0.0,0.0,0.0,0.0,0.0,0.0,0.0,0.0,0.0,0.0,0.0,0.0,0.0,0.0,0.0,3.9697,3.9697,3.9697,3.9697,3.9697,3.9697,3.9697,3.9471,3.9371,3.9346,3.8793,3.8693,3.8994,3.8316,3.8065,3.8215,3.7487,0.0,0.0,3.6556,3.6405,3.6405,3.6405,3.6405,3.6405,3.6405,3.6405,3.6405,3.6405,3.6405,3.6279,3.5571,3.5364,3.5244,3.4624,3.4701,3.5063,3.4956,3.4946,3.5131,3.5952,3.6649,3.7263,3.7877,3.7913,3.7674,3.7135,3.7045,3.6926,3.6567,3.6567,3.6417,3.5639,3.5818,3.5968,3.5579,3.5519,3.5519,3.5519,3.5519,3.54,3.513,3.4262,3.3365,3.2587,3.2258,3.1929,3.154,3.1511,3.1391,3.1092,3.1092,3.0821,3.0133,3.0133,2.9624,2.8607,2.9265,2.9142,2.8218,2.9172,2.9322,3.4555,3.5855,3.6483,3.5483,3.3219,3.0583,0.0,0.0,2.4274,2.3296,2.2669,2.2443,2.2995,2.2794,2.3175,0.0,0.0,0.0,0.0,0.0,0.0,0.0,0.0,0.0,0.0,0.0,0.0,0.0,0.0,0.0,3.9697,3.9697,3.9697,3.9697,3.9697,3.9697,3.9697,3.9697,3.9622,3.9446,3.922,3.922,3.9421,3.8793,3.8542,3.8567,3.7789,0.0,0.0,3.6556,3.6405,3.6405,3.6405,3.6405,3.6405,3.6405,3.6405,3.6405,3.6405,3.6304,3.6031,3.5433,3.5143,3.4838,3.4127,3.4349,3.4917,3.5115,3.5374,3.57,3.6402,3.7024,3.754,3.827,3.8182,3.7943,3.7734,3.7704,3.7554,3.7135,3.7255,3.7135,3.6237,3.6447,3.6537,3.5878,3.5789,3.5729,3.5519,3.5519,3.5519,3.5519,3.507,3.4322,3.3185,3.2736,3.2378,3.2108,3.172,3.16,3.178,3.16,3.1271,3.0821,3.0821,3.0283,2.9175,2.9834,2.9714,2.8906,2.9774,3.0163,3.3445,3.468,3.5382,3.4831,3.2667,3.003,0.0,0.0,2.3853,2.3221,2.2669,2.2443,2.2995,2.3095,2.3471,2.46,0.0,0.0,0.0,0.0,0.0,0.0,0.0,0.0,0.0,0.0,0.0,0.0,0.0,0.0,3.9697,3.9697,3.9697,3.9697,3.9697,3.9697,3.9697,3.9697,3.9421,3.8894,3.9421,3.9396,3.8944,3.9421,3.9069,0.0,0.0,0.0,0.0,3.6405,3.6405,3.6405,3.6405,3.6405,3.6405,3.6405,3.6405,3.6405,3.6405,3.6006,3.5408,3.4856,3.4726,3.457,3.3655,3.4135,3.4874,3.4874,3.5505,3.6198,3.677,3.7344,3.7905,3.8299,3.8901,3.92,3.8512,3.8392,3.8392,3.8362,3.7853,3.7404,3.7404,3.7404,3.7195,3.6567,3.6477,3.6237,3.5579,3.5519,3.5519,3.5519,3.5489,3.522,3.4563,3.3275,3.2796,3.3425,3.2228,3.1809,3.2437,3.1839,3.1511,3.1481,3.1481,3.1152,3.0492,3.1152,3.0823,2.9621,3.0883,3.1481,2.9704,3.1035,3.1897,3.0969,2.9528,2.7871,2.6013,0.0,2.3728,2.2744,2.2418,2.2443,2.2995,2.2794,2.3175,2.5059,0.0,0.0,0.0,0.0,0.0,0.0,0.0,0.0,0.0,0.0,0.0,0.0,0.0,0.0,3.9697,3.9697,3.9697,3.9697,3.9697,3.9697,3.9697,3.9697,3.9597,3.9446,3.9622,3.9396,3.8919,3.9095,3.8718,0.0,0.0,0.0,0.0,3.6556,3.6405,3.6405,3.6405,3.6405,3.6405,3.6405,3.6405,3.6405,3.6405,3.6006,3.5408,3.4856,3.4474,3.4022,3.3381,3.4071,3.5021,3.4743,3.5287,3.613,3.7123,3.7562,3.8132,3.9424,3.9589,3.9313,3.914,3.908,3.896,3.8482,3.8601,3.8482,3.7554,3.7793,3.7853,3.7225,3.6746,3.622,3.5482,3.5433,3.5294,3.471,3.5166,3.522,3.4563,3.4083,3.3568,3.2801,3.2406,3.205,3.1744,3.1605,3.1278,3.0837,3.0807,3.0485,2.9841,3.0485,3.0837,3.0883,3.0837,3.1073,2.7469,2.8725,2.9503,2.88,2.7795,0.0,0.0,0.0,2.3351,2.2221,2.1995,2.2171,2.2694,2.2518,2.2899,2.4707,0.0,0.0,0.0,0.0,0.0,0.0,0.0,0.0,0.0,0.0,0.0,0.0,0.0,0.0,3.9697,3.9496,3.9371,3.9371,3.9597,3.9597,3.9396,3.9597,3.9471,3.9069,3.927,3.8969,3.829,3.8442,3.8241,0.0,0.0,0.0,0.0,3.6556,3.6405,3.6405,3.6405,3.6405,3.6405,3.6405,3.6405,3.6405,3.6405,3.5855,3.5132,3.4781,3.4198,3.3571,3.342,3.4048,3.4749,3.4656,3.5156,3.6,3.6987,3.7494,3.8246,3.9995,4.0098,3.9858,4.0098,3.9978,3.9649,3.923,3.929,3.914,3.8302,3.8512,3.8542,3.7883,3.7464,3.6837,3.5782,3.5803,3.5585,3.4724,3.5182,3.5213,3.4507,3.4209,3.3809,3.318,3.2433,3.1961,3.1718,3.1535,3.1278,3.0857,3.0625,3.0306,2.987,3.0306,3.0718,3.1131,3.0688,3.0718,0.0,2.7394,2.7795,2.777,2.7027,2.582,2.418,0.0,0.0,2.1719,2.1493,2.1694,2.2372,2.2397,2.2723,2.4029,0.0,0.0,0.0,0.0,0.0,0.0,0.0,0.0,0.0,0.0,0.0,0.0,0.0,0.0,3.9647,3.9145,3.8894,3.8793,3.9295,3.9346,3.8868,3.9346,3.9069,3.8065,3.8567,3.8241,3.7211,3.7713,3.7638,0.0,0.0,0.0,0.0,3.6405,3.6405,3.6405,3.6405,3.6405,3.6405,3.6405,3.638,3.6355,3.6355,3.5579,3.465,3.4625,3.3922,3.3169,3.3696,3.4022,3.4266,3.451,3.5087,3.5852,3.6521,3.723,3.8207,4.0017,4.0427,4.0576,4.1272,4.0905,4.0457,4.0397,3.9918,3.9469,3.9403,3.9373,3.92,3.8571,3.8422,3.7872,3.6402,3.6355,3.6145,3.523,3.5351,3.5166,3.438,3.379,3.3636,3.4086,3.2392,3.1596,3.2115,3.1622,3.137,3.1308,3.0762,3.0504,3.0504,3.0534,3.0564,3.0564,3.0446,3.0446,2.3948,0.0,2.4858,2.4374,2.4073,2.3602,0.0,0.0,0.0,0.0,0.0,0.0,0.0,0.0,0.0,0.0,0.0,0.0,0.0,0.0,0.0,0.0,0.0,0.0,0.0,0.0,0.0,0.0,0.0,3.9521,3.9094,3.8994,3.8517,3.7613,3.8115,3.8542,3.8919,3.8567,3.8492,3.8668,3.8341,3.7839,3.7186,3.7312,3.7086,0.0,0.0,0.0,3.6405,3.6405,3.6405,3.6405,3.6405,3.6405,3.6405,3.6405,3.6107,3.5683,3.5683,3.5002,3.4022,3.3596,3.3294,3.3093,3.3244,3.3312,3.35,3.3947,3.435,3.5089,3.7,3.7508,3.8093,4.0418,4.0674,4.0576,4.1272,4.1265,4.0995,4.0487,4.0277,4.0008,3.9499,3.9373,3.9379,3.92,3.8721,3.7843,3.6322,3.6342,3.5942,3.4498,3.5019,3.5166,3.438,3.4167,3.3665,3.2656,3.2236,3.1805,3.1354,3.1322,3.1063,3.0559,3.0421,3.0366,3.0366,3.0867,3.11,3.11,3.0104,2.9914,2.3105,2.3521,2.3929,2.3572,2.3496,2.3221,2.2121,0.0,0.0,0.0,0.0,0.0,0.0,0.0,0.0,0.0,0.0,0.0,0.0,0.0,0.0,0.0,0.0,0.0,0.0,0.0,0.0,0.0,0.0,3.9069,3.8517,3.8241,3.7814,3.7211,3.7236,3.7513,3.809,3.804,3.804,3.809,3.7789,3.7337,3.6857,3.6857,3.6681,0.0,0.0,0.0,3.6405,3.6405,3.6405,3.6405,3.6405,3.6405,3.6405,3.6405,3.6182,3.5906,3.5906,3.5353,3.4474,3.342,3.3244,3.3395,3.3144,3.3111,3.3194,3.3746,3.4073,3.4735,3.6805,3.7386,3.8042,4.0518,4.0964,4.1115,4.2073,4.2043,4.1662,4.0965,4.0606,4.0187,3.9529,3.9373,3.9373,3.9373,3.8756,3.7872,3.6646,3.6404,3.5904,3.4598,3.5093,3.5034,3.3905,3.3802,3.3318,3.2182,3.1838,3.1496,3.1063,3.1148,3.0918,3.0295,3.0295,3.0158,2.9846,3.0508,3.0847,3.0819,3.0147,3.0017,2.3259,2.3708,2.4079,2.3904,2.3929,2.3703,2.2573,0.0,0.0,0.0,0.0,0.0,0.0,0.0,0.0,0.0,0.0,0.0,0.0,0.0,0.0,0.0,0.0,0.0,0.0,0.0,0.0,0.0,0.0,3.8567,3.7914,3.7437,3.7136,3.7061,3.6656,3.6631,3.7061,3.7513,3.7563,3.7186,3.7111,3.6857,3.6405,3.6405,3.6405,3.6405,0.0,0.0,3.6405,3.6405,3.6405,3.6405,3.6405,3.6405,3.6405,3.6405,3.6355,3.6279,3.6179,3.5805,3.5132,3.3696,3.352,3.3796,3.3244,3.3111,3.3219,3.3847,3.4079,3.4597,3.6518,3.7208,3.8074,4.0509,4.1118,4.1522,4.2674,4.2456,4.1822,4.1313,4.0807,4.0278,3.9523,3.939,3.9348,3.9228,3.8538,3.7682,3.6816,3.6399,3.5833,3.4985,3.5131,3.4718,3.3283,3.3094,3.272,3.1992,3.1357,3.0973,3.0973,3.1063,3.0877,3.0427,3.0427,3.0112,2.9572,3.0112,3.0427,3.0392,3.0312,3.0258,2.3949,2.4575,2.4456,2.3471,2.3627,2.3703,2.2573,0.0,0.0,0.0,0.0,0.0,0.0,0.0,0.0,0.0,0.0,0.0,0.0,0.0,0.0,0.0,0.0,0.0,0.0,0.0,0.0,0.0,0.0,0.0,3.7362,3.7236,3.696,3.6556,3.6455,3.6455,3.6531,3.6631,3.6857,3.7186,3.6757,3.648,3.6405,3.6405,3.6405,3.6405,0.0,3.6405,3.6405,3.6405,3.6405,3.6405,3.6405,3.6405,3.6405,3.6405,3.6081,3.5558,3.5127,3.4926,3.4726,3.3997,3.3822,3.3796,3.3244,3.3111,3.3294,3.4299,3.4248,3.4557,3.737,3.7848,3.8199,4.0364,4.0432,4.0292,4.1139,4.0711,4.0126,4.0216,4.0596,4.0588,3.9563,3.9276,3.8973,3.8477,3.7653,3.6816,3.5976,3.593,3.5637,3.4819,3.4473,3.3964,3.3083,3.2554,3.1955,3.1235,3.1048,3.0973,3.0973,3.1007,3.0976,3.0898,3.0898,3.0823,3.0712,3.0823,3.0898,3.0898,3.0361,3.0151,2.2843,2.3646,2.4121,2.3281,2.423,2.4991,0.0,0.0,0.0,0.0,0.0,0.0,0.0,0.0,0.0,0.0,0.0,0.0,0.0,0.0,0.0,0.0,0.0,0.0,0.0,0.0,0.0,0.0,0.0,0.0,3.6832,3.6782,3.6681,3.6405,3.6405,3.6405,3.6405,3.6405,3.6531,3.6782,3.6531,3.6405,3.6405,3.6405,3.6405,3.6405,0.0,3.6405,3.6405,3.6405,3.6405,3.6405,3.6405,3.6405,3.6405,3.6405,3.6207,3.5906,3.5307,3.5132,3.4981,3.4173,3.3897,3.3847,3.3596,3.352,3.3746,3.4806,3.4731,3.4838,3.6919,3.7447,3.7752,3.9255,3.9461,3.9519,4.0391,4.0238,3.9915,3.982,4.0452,4.0561,3.9198,3.9016,3.8861,3.811,3.7029,3.6136,3.5736,3.5456,3.5112,3.4748,3.462,3.4242,3.3485,3.3203,3.2434,3.1101,3.0973,3.0973,3.0973,3.0973,3.0973,3.0973,3.0973,3.0973,3.0973,3.0973,3.0973,3.0973,3.0712,3.0607,2.2368,2.3054,2.3809,2.3422,0.0,0.0,0.0,0.0,0.0,0.0,0.0,0.0,0.0,0.0,0.0,0.0,0.0,0.0,0.0,0.0,0.0,0.0,0.0,0.0,0.0,0.0,0.0,0.0,0.0,0.0,3.643,3.6405,3.6405,3.6405,3.6405,3.6405,3.6405,3.6405,3.6405,3.6405,3.6405,3.6405,3.6405,3.6405,3.6405,3.6405,3.6405,3.6405,3.6405,3.6405,3.6405,3.6405,3.6405,3.6405,3.6405,3.6405,3.6405,3.6355,3.5881,3.5608,3.5332,3.4399,3.4098,3.4073,3.3947,3.3997,3.4299,3.5232,3.5182,3.5209,3.667,3.7161,3.7466,3.8385,3.8546,3.8699,3.9424,3.9447,3.9267,3.9212,3.983,4.005,3.8807,3.8637,3.8445,3.7792,3.6388,3.5453,3.5588,3.5036,3.4647,3.4647,3.459,3.4295,3.3611,3.3534,3.2901,3.1482,3.1261,3.113,3.0999,3.0973,3.0973,3.0973,3.0973,3.0973,3.0973,3.0973,3.0973,3.0973,3.0962,3.0924,2.4174,2.4229,2.3913,2.3927,2.4054,0.0,2.5996,2.5946,0.0,2.7544,0.0,0.0,0.0,0.0,0.0,0.0,0.0,0.0,0.0,0.0,0.0,0.0,0.0,0.0,0.0,0.0,0.0,0.0,0.0,0.0,3.643,3.6405,3.6405,3.6405,3.6405,3.6405,3.6405,3.6405,3.6405,3.6405,3.6405,3.6405,3.6405,3.6405,3.6405,3.6405,3.6405,3.6405,3.6405,3.6405,3.6405,3.6405,3.6405,3.6405,3.6405,3.6405,3.6405,3.6405,3.6355,3.5981,3.5408,3.4806,3.463,3.4575,3.4048,3.4248,3.4731,3.5332,3.5483,3.5789,3.7338,3.7743,3.7859,3.845,3.7967,3.7467,3.7652,3.7101,3.6876,3.7819,3.838,3.8644,3.8602,3.7827,3.7296,3.7392,3.5736,3.469,3.5241,3.4795,3.4402,3.4402,3.3971,3.3461,3.2804,3.2778,3.2725,3.2568,3.2032,3.151,3.0999,3.0973,3.0973,3.0973,3.0973,3.0973,3.0973,3.0973,3.0973,3.0973,3.0811,3.0736,2.2909,2.36,2.4245,2.3614,2.4506,0.0,0.0,2.7092,2.8047,2.9402,3.0206,0.0,0.0,0.0,0.0,0.0,0.0,0.0,0.0,0.0,0.0,0.0,0.0,0.0,0.0,0.0,0.0,0.0,0.0,0.0,0.0,3.6405,3.6207,3.5855,3.5855,3.5855,3.5855,3.5855,3.5855,3.5855,3.5855,3.5855,3.5855,3.5855,3.5855,3.5881,3.6254,3.6405,3.6405,3.6405,3.6405,3.6405,3.6405,3.6157,3.5906,3.6279,3.6132,3.5855,3.5855,3.5683,3.5357,3.45,3.4449,3.4675,3.4474,3.4756,3.5307,3.5906,3.6056,3.62,3.6752,3.6943,3.6985,3.7169,3.6979,3.6821,3.6979,3.6749,3.6729,3.73,3.8002,3.8211,3.7325,3.7427,3.7273,3.6023,3.5362,3.4852,3.4595,3.4444,3.4356,3.423,3.4131,3.4005,3.377,3.3744,3.3613,3.3273,3.2319,3.1719,3.1522,3.1182,3.0973,3.0973,3.0973,3.0973,3.0973,3.0973,3.0973,3.0973,3.0811,3.0698,2.256,2.3177,2.4059,2.3295,0.0,0.0,2.7354,2.8524,2.9891,3.1562,3.2215,0.0,0.0,0.0,0.0,0.0,0.0,0.0,0.0,0.0,0.0,0.0,0.0,0.0,0.0,0.0,0.0,0.0,0.0,0.0,0.0,3.6107,3.5855,3.5257,3.5232,3.5232,3.5232,3.5232,3.5232,3.5232,3.5056,3.5082,3.5232,3.5232,3.5232,3.5257,3.568,3.5931,3.6107,3.6107,3.6107,3.6107,3.6107,3.5755,3.5282,3.5705,3.5604,3.5232,3.5232,3.5232,3.5107,3.4399,3.4525,3.4931,3.4931,3.5332,3.5881,3.6304,3.6405,3.6405,3.6405,3.6405,3.6405,3.6405,3.6405,3.6452,3.6593,3.6615,3.6687,3.6922,3.7453,3.7528,3.6687,3.7063,3.706,3.5911,3.5453,3.5122,3.4675,3.4422,3.423,3.4131,3.4272,3.4397,3.4397,3.4397,3.4241,3.3875,3.2751,3.198,3.1823,3.1287,3.0973,3.0973,3.0973,3.0973,3.0973,3.0973,3.0973,3.0973,3.0811,3.0698,2.3655,2.327,2.3203,0.0,0.0,0.0,2.9176,3.0231,3.1411,3.4173,0.0,0.0,0.0,0.0,0.0,0.0,0.0,0.0,0.0,0.0,0.0,0.0,0.0,0.0,0.0,0.0,0.0,0.0,0.0,0.0,0.0,3.5483,3.5232,3.4726,3.468,3.468,3.468,3.468,3.468,3.47,3.4148,3.4198,3.468,3.468,3.468,3.468,3.468,3.4981,3.5483,3.5483,3.5483,3.5483,3.5483,3.5157,3.468,3.468,3.468,3.468,3.468,3.468,3.4726,3.4726,3.5056,3.5508,3.5508,3.5931,3.6405,3.6405,3.6405,3.6405,3.6405,3.6405,3.6405,3.6405,3.6405,3.6405,3.6405,3.6405,3.6452,3.6662,3.6546,3.6546,3.7015,3.6647,3.6559,3.7356,3.6233,3.5409,3.5737,3.483,3.4089,3.4131,3.4272,3.4397,3.4397,3.4397,3.4397,3.4397,3.3326,3.2437,3.1823,3.1287,3.0999,3.0973,3.0999,3.0999,3.0973,3.0973,3.0973,3.0973,3.0811,3.0698,2.4484,2.4657,0.0,2.5258,0.0,0.0,0.0,3.114,0.0,0.0,0.0,0.0,0.0,0.0,0.0,0.0,0.0,0.0,0.0,0.0,0.0,0.0,0.0,0.0,0.0,0.0,0.0,0.0,0.0,0.0,0.0,3.5132,3.468,3.4148,3.4148,3.4148,3.4148,3.4148,3.4148,3.4148,3.3972,3.3972,3.4148,3.4148,3.4148,3.4173,3.455,3.4781,3.4931,3.4931,3.4931,3.4931,3.4931,3.4625,3.4198,3.4575,3.4474,3.4148,3.4148,3.465,3.5132,3.4399,3.5052,3.6031,3.5608,3.5931,3.6405,3.6405,3.6405,3.6405,3.6405,3.6405,3.6405,3.6405,3.6405,3.6405,3.6405,3.6405,3.6405,3.6499,3.6452,3.6279,3.6042,3.6328,3.6416,3.5922,3.6032,3.5989,3.5253,3.4563,3.4144,3.4115,3.4173,3.423,3.4397,3.4397,3.4397,3.4397,3.3718,3.3064,3.2463,3.1888,3.1392,3.0999,3.1392,3.1392,3.0973,3.0973,3.0973,3.0973,3.0811,3.0698,2.4703,2.5347,0.0,2.7177,2.951,3.1995,0.0,0.0,0.0,0.0,0.0,0.0,0.0,0.0,0.0,0.0,0.0,0.0,0.0,0.0,0.0,0.0,0.0,0.0,0.0,0.0,0.0,0.0,0.0,0.0,0.0,3.4575,3.4148,3.3596,3.3571,3.3571,3.3571,3.3571,3.3571,3.3571,3.3571,3.3571,3.3571,3.3571,3.3571,3.3596,3.4148,3.4399,3.4399,3.4625,3.46,3.4399,3.4399,3.4048,3.3621,3.3947,3.3847,3.3571,3.3571,3.4299,3.5056,3.4449,3.5203,3.6355,3.5981,3.6107,3.6405,3.6405,3.6405,3.6405,3.6405,3.6405,3.6405,3.6405,3.6405,3.6405,3.6405,3.6405,3.6405,3.6405,3.6405,3.6304,3.5931,3.6319,3.6506,3.5846,3.6049,3.5897,3.4768,3.4354,3.415,3.3972,3.4047,3.4189,3.4397,3.4397,3.4397,3.4397,3.3901,3.343,3.3064,3.2489,3.2019,3.1679,3.1993,3.198,3.1564,3.1615,3.1615,3.1564,3.1525,3.1487,2.467,0.0,0.0,2.8913,0.0,0.0,0.0,0.0,0.0,0.0,0.0,0.0,0.0,0.0,0.0,0.0,0.0,0.0,0.0,0.0,0.0,0.0,0.0,0.0,0.0,0.0,0.0,0.0,0.0,0.0,0.0,3.3847,3.3596,3.3136,3.3061,3.2993,3.2993,3.2943,3.296,3.296,3.296,3.2943,3.2993,3.3043,3.3111,3.3136,3.3596,3.3822,3.3872,3.4374,3.4274,3.3822,3.3822,3.352,3.3111,3.3111,3.3111,3.3111,3.3111,3.3771,3.465,3.4655,3.5429,3.6355,3.638,3.6405,3.6405,3.6405,3.6405,3.6405,3.6405,3.6405,3.6405,3.6405,3.6405,3.6405,3.6405,3.6405,3.6405,3.6405,3.6405,3.6405,3.6405,3.6546,3.6662,3.6709,3.6278,3.5567,3.4407,3.4255,3.4114,3.3734,3.3894,3.4147,3.4397,3.4397,3.4397,3.4356,3.3927,3.3666,3.3666,3.3091,3.2751,3.2698,3.2751,3.2632,3.238,3.2579,3.2579,3.238,3.2619,3.2698,2.601,2.6318,0.0,0.0,0.0,0.0,0.0,0.0,0.0,0.0,0.0,0.0,0.0,0.0,0.0,0.0,0.0,0.0,0.0,0.0,0.0,0.0,0.0,0.0,0.0,0.0,0.0,0.0,0.0,0.0,3.3872,3.3495,3.3194,3.3111,3.2641,3.239,3.239,3.1964,3.1763,0.0,3.1763,3.1989,3.2416,3.2867,3.3111,3.3136,3.3194,3.3244,3.3269,3.3395,3.337,3.3244,3.3244,3.3194,3.3111,3.3111,3.3111,3.3111,3.3111,3.352,3.4148,3.4575,3.5132,3.5805,3.6279,3.6405,3.6405,3.6405,3.6405,3.6405,3.6405,3.6405,3.6405,3.6405,3.6405,3.6405,3.6405,3.6405,3.6405,3.6405,3.6405,3.6405,3.6405,3.6452,3.6546,3.6662,3.6492,3.5966,3.5015,3.4729,3.4369,3.3743,3.3768,3.3937,3.4356,3.4397,3.4314,3.4147,3.421,3.4158,3.3991,3.361,3.3169,3.2698,3.2942,3.2861,3.238,3.242,3.242,3.238,3.2619,3.2698,0.0,0.0,0.0,0.0,0.0,0.0,0.0,0.0,0.0,0.0,0.0,0.0,0.0,0.0,0.0,0.0,0.0,0.0,0.0,0.0,0.0,0.0,0.0,0.0,0.0,0.0,0.0,0.0,0.0,3.2667,3.2692,3.2416,3.2265,3.2265,3.1964,3.1813,3.1813,3.1537,3.1386,3.1386,3.1386,3.1537,3.1838,3.2692,3.3111,3.3111,3.3111,3.2918,3.2667,3.2667,3.2516,3.229,3.2566,3.2667,3.2692,3.2968,3.3111,3.3111,3.3111,3.3445,3.3947,3.4248,3.4831,3.5558,3.5881,3.6157,3.6405,3.6405,3.6405,3.6405,3.6405,3.6405,3.6405,3.6405,3.6405,3.6405,3.6405,3.6405,3.6405,3.6405,3.6405,3.6405,3.6405,3.6405,3.6452,3.6546,3.6452,3.6103,3.5365,3.4947,3.4488,3.3997,3.3794,3.3852,3.423,3.4617,3.4627,3.4131,3.4448,3.4432,3.392,3.3762,3.3617,3.3509,3.3699,3.3535,3.3019,3.3142,3.3142,3.3019,3.3264,3.3427,0.0,0.0,0.0,0.0,0.0,0.0,0.0,0.0,0.0,0.0,0.0,0.0,0.0,0.0,0.0,0.0,0.0,0.0,0.0,0.0,0.0,0.0,0.0,0.0,0.0,0.0,0.0,0.0,0.0,3.1863,3.1411,3.1386,3.1386,3.1386,3.1311,3.126,3.126,3.116,3.111,3.111,3.121,3.126,3.1286,3.2315,3.2835,3.2835,3.2835,3.2516,3.2064,3.2064,3.1813,3.1436,3.1989,3.2164,3.2139,3.2717,3.2918,3.2918,3.2918,3.3294,3.3771,3.3872,3.4525,3.5232,3.5332,3.578,3.6254,3.6254,3.6329,3.6405,3.6405,3.6405,3.6405,3.6405,3.6405,3.6405,3.6405,3.6405,3.6405,3.6405,3.6405,3.6405,3.6405,3.6405,3.6405,3.6405,3.6405,3.6157,3.5583,3.5107,3.4695,3.4407,3.4117,3.4093,3.4373,3.5027,3.5106,3.4357,3.477,3.4736,3.3947,3.3965,3.4126,3.4428,3.4282,3.4072,3.3769,3.3904,3.3894,3.3725,3.3979,3.4189,0.0,0.0,0.0,0.0,0.0,0.0,0.0,0.0,0.0,0.0,0.0,0.0,0.0,0.0,0.0,0.0,0.0,0.0,0.0,0.0,0.0,0.0,0.0,0.0,0.0,0.0,0.0,0.0,3.1763,3.1461,3.1386,3.1386,3.1386,3.1386,3.0959,3.0708,3.0708,3.0256,3.0005,3.0005,3.0482,3.0708,3.0733,3.1336,3.1612,3.1612,3.1612,3.1562,3.1486,3.1486,3.1461,3.1436,3.1989,3.1913,3.1562,3.2114,3.2315,3.2315,3.2315,3.2692,3.3269,3.3746,3.3997,3.4198,3.47,3.5182,3.5608,3.5608,3.6006,3.6405,3.6405,3.6405,3.6405,3.6405,3.6405,3.6405,3.6405,3.6405,3.6405,3.6405,3.6405,3.6405,3.6405,3.6405,3.6405,3.6405,3.6405,3.6157,3.5583,3.5433,3.5273,3.499,3.5086,3.53,3.5546,3.5835,3.5747,3.5256,3.551,3.5447,3.4927,3.5079,3.4981,3.4581,3.3896,3.3725,3.4121,3.3725,3.3556,3.3725,3.3979,3.4189,2.4962,0.0,0.0,0.0,0.0,0.0,0.0,0.0,0.0,0.0,0.0,0.0,0.0,0.0,0.0,0.0,0.0,0.0,0.0,0.0,0.0,0.0,0.0,0.0,0.0,0.0,0.0,0.0,3.1085,3.0809,3.0507,3.0507,3.0507,3.0507,3.0281,3.0156,3.0156,2.9905,2.9804,2.9804,3.003,3.0156,3.0156,3.0382,3.0809,3.1386,3.1386,3.1235,3.0959,3.0959,3.0758,3.0557,3.111,3.116,3.1009,3.1562,3.1938,3.2215,3.2215,3.2591,3.3162,3.337,3.3646,3.3947,3.4198,3.4831,3.5508,3.5508,3.5931,3.6405,3.6405,3.6405,3.6405,3.6405,3.6405,3.6405,3.6405,3.6405,3.6405,3.6405,3.6405,3.6405,3.6405,3.6405,3.6405,3.6405,3.6405,3.6329,3.6031,3.5683,3.5454,3.5365,3.5288,3.5309,3.5531,3.5993,3.5974,3.5424,3.568,3.5551,3.4931,3.4951,3.5021,3.5097,3.4717,3.4386,3.4179,3.4299,3.4393,3.4481,3.4612,3.465,0.0,0.0,0.0,0.0,0.0,0.0,0.0,0.0,0.0,0.0,0.0,0.0,0.0,0.0,0.0,0.0,0.0,0.0,0.0,0.0,0.0,0.0,0.0,0.0,0.0,0.0,0.0,0.0,3.0482,3.0231,2.9804,2.9804,2.9804,2.9804,2.9804,2.9804,2.9804,2.9804,2.9804,2.9804,2.9804,2.9804,2.9804,2.9804,3.0231,3.0984,3.0984,3.0758,3.0407,3.0407,3.0156,2.9854,3.0407,3.0532,3.0457,3.1009,3.1537,3.2014,3.2014,3.2466,3.3111,3.3111,3.3345,3.3696,3.3696,3.4449,3.5282,3.5282,3.583,3.6405,3.6405,3.6405,3.6405,3.6405,3.6405,3.6405,3.6405,3.6405,3.6405,3.6405,3.6405,3.6405,3.6405,3.6405,3.6405,3.6405,3.6405,3.6405,3.6405,3.6006,3.5708,3.5708,3.5608,3.5562,3.5717,3.6191,3.6314,3.5743,3.5963,3.5831,3.5152,3.5127,3.5278,3.5483,3.5598,3.5257,3.4521,3.4869,3.5041,3.5111,3.5111,3.5079,0.0,0.0,0.0,0.0,0.0,0.0,0.0,0.0,0.0,0.0,0.0,0.0,0.0,0.0,0.0,0.0,0.0,0.0,0.0,0.0,0.0,0.0,0.0,0.0,0.0,0.0,0.0,0.0,3.0131,2.9829,2.9804,2.9804,2.9804,2.9804,2.9804,2.9804,2.9804,2.9804,2.9804,2.9804,2.9804,2.9804,2.9804,2.9804,2.9829,2.988,2.988,2.9854,2.9829,2.9829,2.9829,2.9854,3.0407,3.0306,2.9905,3.0457,3.0984,3.1436,3.1436,3.2164,3.3111,3.3111,3.3136,3.3162,3.3162,3.3897,3.4731,3.4731,3.5529,3.6405,3.6405,3.6405,3.6405,3.6405,3.6405,3.6405,3.6405,3.6405,3.6405,3.6405,3.6405,3.6405,3.6405,3.6405,3.6405,3.6405,3.6405,3.6405,3.6405,3.638,3.6355,3.6355,3.6518,3.6633,3.6633,3.6892,3.6964,3.6633,3.6658,3.6564,3.6329,3.6329,3.6056,3.5508,3.6078,3.6053,3.5408,3.4951,3.4861,3.5111,3.5111,3.5309,0.0,0.0,0.0,0.0,0.0,0.0,0.0,0.0,0.0,0.0,0.0,0.0,0.0,0.0,0.0,0.0,0.0,0.0,0.0,0.0,0.0,0.0,0.0,0.0,0.0,0.0,0.0,0.0,0.0,2.9804,2.9804,2.9804,2.9804,2.9804,2.9804,2.9804,2.9804,2.9804,2.9804,2.9804,2.9804,2.9804,2.9804,2.9804,2.9804,2.9804,2.9804,2.9804,2.9804,2.9804,2.9804,2.9804,3.0005,2.9955,2.9804,3.0005,3.0633,3.1386,3.1386,3.2139,3.3111,3.3111,3.3111,3.3111,3.3111,3.3847,3.468,3.468,3.5504,3.6405,3.6405,3.6405,3.6405,3.6405,3.6405,3.6405,3.6405,3.6405,3.6405,3.6405,3.6405,3.6405,3.6405,3.6405,3.6405,3.6405,3.6405,3.6405,3.6405,3.6405,3.6405,3.6405,3.6452,3.6546,3.6662,3.6687,3.6687,3.6709,3.6593,3.6499,3.6405,3.6405,3.6329,3.6081,3.6304,3.6081,3.5508,3.5705,3.5827,3.5919,3.5919,3.5927,0.0,0.0,0.0,0.0,0.0,0.0,0.0,0.0,0.0,0.0,0.0,0.0,0.0,0.0,0.0,0.0,0.0,0.0,0.0,0.0,0.0,0.0,0.0,0.0,0.0,0.0,0.0,0.0,0.0,0.0,2.9804,2.9804,2.9804,2.9804,2.9804,2.9804,2.9804,2.9804,2.9804,2.9804,2.9804,2.9804,2.9804,2.9804,2.9804,2.9804,2.9804,2.9804,2.9804,2.9804,2.9804,2.9804,2.9804,2.9804,2.9804,2.9804,3.0482,3.1386,3.1386,3.2139,3.3111,3.3111,3.3111,3.3111,3.3111,3.3847,3.468,3.468,3.5504,3.6405,3.6405,3.6405,3.6405,3.6405,3.6405,3.6405,3.6405,3.6405,3.6405,3.6405,3.6405,3.6405,3.6405,3.6405,3.6405,3.6405,3.6405,3.6405,3.6405,3.6405,3.6405,3.6405,3.6405,3.6452,3.6593,3.6499,3.6452,3.6593,3.6452,3.6405,3.6405,3.6405,3.6405,3.6405,3.6405,3.6182,3.5805,3.6182,3.6405,3.6405,3.6405,3.6222,0.0,0.0,0.0,0.0,0.0,0.0,0.0,0.0,0.0,0.0,0.0,0.0,0.0,0.0,0.0,0.0,0.0,0.0,0.0,0.0,0.0,0.0,0.0,0.0,0.0,0.0,0.0,0.0,2.9804,2.9804,2.9804,2.9804,2.9779,2.9754,2.9779,2.9779,2.9754,2.9779,2.9804,2.9804,2.9804,2.9804,2.9804,2.9804,2.9804,2.9804,2.9804,2.9804,2.9804,2.9804,2.9804,2.9804,2.9804,2.9804,2.9804,2.9804,3.0482,3.1386,3.1411,3.2139,3.3111,3.3111,3.3111,3.3111,3.3136,3.3847,3.468,3.4751,3.5529,3.6405,3.6405,3.6405,3.6405,3.6405,3.6405,3.6405,3.6405,3.6405,3.6405,3.6405,3.6405,3.6405,3.643,3.643,3.643,3.643,3.6455,3.6455,3.6405,3.643,3.643,3.6405,3.6405,3.6405,3.643,3.6405,3.6405,3.643,3.643,3.643,3.6405,3.643,3.643,3.6405,3.6405,3.6405,3.6405,3.6405,3.6405,3.6405,3.6405,3.6222,2.424,0.0,0.0,0.0,0.0,0.0,0.0,2.4892,0.0,0.0,0.0,0.0,0.0,0.0,0.0,0.0,0.0,0.0,0.0,0.0,0.0,0.0,0.0,0.0,0.0,0.0,0.0,0.0,2.9804,2.9804,2.9804,2.9804,2.9603,2.9176,2.9578,2.9603,2.9139,2.9578,2.9804,2.9804,2.9804,2.9804,2.9804,2.9804,2.9804,2.9804,2.9804,2.9804,2.9804,2.9804,2.9804,2.9804,2.9804,2.9804,2.9854,3.0231,3.0809,3.1461,3.1838,3.2466,3.3111,3.3111,3.3111,3.3144,3.3545,3.4173,3.4756,3.5157,3.583,3.6405,3.6405,3.6405,3.6405,3.6405,3.6405,3.6405,3.6405,3.6405,3.6405,3.6405,3.6405,3.6531,3.6885,3.7008,3.7008,3.7008,3.7287,3.7262,3.6505,3.6757,3.6857,3.6455,3.6405,3.6581,3.6983,3.6631,3.6581,3.6935,3.7008,3.6784,3.643,3.6782,3.6832,3.6405,3.6405,3.6405,3.6405,3.6405,3.6405,3.6405,3.6405,3.6424,0.0,0.0,0.0,0.0,0.0,0.0,2.3659,2.4359,2.4919,0.0,0.0,0.0,0.0,0.0,0.0,0.0,0.0,0.0,0.0,0.0,0.0,0.0,0.0,0.0,0.0,0.0,0.0,2.9101,2.9528,2.9804,2.9804,2.9804,2.9528,2.8913,2.9503,2.9402,2.8562,2.9151,2.9428,2.9428,2.9428,2.9553,2.9804,2.9804,2.9804,2.9804,2.9804,2.9804,2.9804,2.9804,2.9804,2.9804,2.9804,2.9804,2.9854,3.0407,3.0934,3.1461,3.2014,3.2591,3.3111,3.3111,3.3244,3.347,3.3796,3.4449,3.5082,3.5408,3.5931,3.6405,3.6405,3.6405,3.6405,3.6405,3.6405,3.6405,3.6405,3.6405,3.6405,3.6405,3.6405,3.6505,3.6784,3.7036,3.7186,3.7186,3.7663,3.7688,3.6857,3.6985,3.7061,3.6782,3.6757,3.6835,3.7161,3.7111,3.7086,3.7186,3.7387,3.7287,3.6782,3.701,3.7036,3.6757,3.6757,3.6757,3.6757,3.6531,3.6405,3.6405,3.6405,3.6452,0.0,0.0,0.0,0.0,0.0,0.0,2.4394,2.4341,2.4148,0.0,0.0,0.0,0.0,0.0,0.0,0.0,0.0,0.0,0.0,0.0,0.0,0.0,0.0,0.0,0.0,2.8549,2.8587,2.8147,2.9101,2.9679,2.9603,2.9729,2.9478,2.8775,2.9428,2.9227,2.8021,2.8587,2.8888,2.8888,2.8888,2.9227,2.9804,2.9804,2.9804,2.9804,2.9804,2.9804,2.9804,2.9804,2.9804,2.9804,2.9804,2.9829,2.9955,3.0507,3.1035,3.1562,3.2114,3.2641,3.3111,3.3111,3.3395,3.3822,3.3947,3.4675,3.5433,3.5558,3.6031,3.648,3.643,3.6455,3.648,3.643,3.6405,3.6405,3.6405,3.6405,3.6405,3.6405,3.6405,3.6455,3.6581,3.696,3.7287,3.7362,3.7839,3.7965,3.7362,3.7337,3.7337,3.7287,3.7287,3.7312,3.7362,3.7764,3.7839,3.7387,3.7839,3.7864,3.7287,3.7337,3.7337,3.7287,3.7287,3.7287,3.7287,3.6707,3.6405,3.6405,3.6405,3.6405,0.0,0.0,0.0,0.0,0.0,0.0,2.6073,2.602,2.5641,0.0,0.0,0.0,0.0,0.0,0.0,0.0,0.0,0.0,0.0,0.0,0.0,0.0,0.0,0.0,0.0,2.8307,2.8222,2.8122,2.8725,2.89,2.8448,2.9302,2.9126,2.7645,2.9026,2.9051,2.7444,2.8423,2.8888,2.8888,2.8888,2.9227,2.9804,2.9804,2.9804,2.9804,2.9804,2.9804,2.9804,2.9804,2.9804,2.9804,2.9804,3.0055,3.0507,3.106,3.1587,3.2139,3.2717,3.2993,3.3111,3.3111,3.3144,3.3395,3.4299,3.468,3.5077,3.5956,3.6609,3.691,3.6531,3.6732,3.6958,3.6505,3.6405,3.6405,3.6405,3.6405,3.6405,3.6405,3.6405,3.6681,3.7538,3.7764,3.8015,3.8517,3.9019,3.8994,3.799,3.8266,3.8366,3.7889,3.7839,3.804,3.8542,3.8216,3.8165,3.8517,3.8693,3.8442,3.7864,3.8291,3.8316,3.7864,3.7839,3.7839,3.7839,3.6883,3.6405,3.6405,3.6405,3.6405,0.0,0.0,0.0,3.0462,0.0,0.0,0.0,2.7115,2.6609,0.0,0.0,0.0,0.0,0.0,0.0,0.0,0.0,0.0,0.0,0.0,0.0,0.0,0.0,0.0,0.0,2.676,2.7092,2.7645,2.7946,2.8097,2.8097,2.8649,2.8574,2.772,2.8775,2.8825,2.7695,2.8524,2.8888,2.8888,2.8888,2.9227,2.9804,2.9804,2.9804,2.9804,2.9804,2.9804,2.9804,2.9804,2.9804,2.9804,2.9804,2.9955,3.0306,3.1085,3.1562,3.1913,3.2792,3.3111,3.3111,3.3111,3.3445,3.3997,3.455,3.5102,3.5655,3.6254,3.6606,3.6757,3.648,3.6606,3.6757,3.648,3.6405,3.6405,3.6405,3.6405,3.648,3.6757,3.6832,3.686,3.7136,3.7638,3.809,3.8391,3.9145,3.9396,3.8542,3.8693,3.8768,3.8467,3.8442,3.8542,3.8894,3.8868,3.8843,3.8919,3.912,3.9019,3.8467,3.8718,3.8793,3.8442,3.8442,3.8442,3.8442,3.7588,3.7036,3.6807,3.6531,3.6405,0.0,0.0,0.0,0.0,0.0,2.9963,0.0,0.0,0.0,0.0,0.0,0.0,0.0,0.0,0.0,0.0,0.0,0.0,0.0,0.0,0.0,0.0,0.0,0.0,0.0,2.5209,2.5862,2.6927,2.7102,2.7318,2.777,2.7996,2.8021,2.7795,2.8487,2.8587,2.7946,2.8562,2.8888,2.8888,2.8888,2.9227,2.9804,2.9804,2.9804,2.9804,2.9804,2.9804,2.9804,2.9804,2.9804,2.9804,2.9804,2.993,3.0206,3.106,3.1537,3.1838,3.281,3.3111,3.3111,3.3111,3.3822,3.4751,3.4806,3.5579,3.6405,3.6405,3.648,3.6531,3.643,3.648,3.6531,3.643,3.648,3.6556,3.6556,3.6656,3.6857,3.7262,3.7337,3.7236,3.6958,3.7588,3.8216,3.8316,3.912,3.9521,3.9094,3.9019,3.9019,3.9019,3.9019,3.9019,3.9019,3.9446,3.9496,3.9069,3.9446,3.9496,3.9095,3.9019,3.9019,3.9019,3.9019,3.9019,3.9019,3.8442,3.7889,3.7337,3.6832,3.6631,0.0,0.0,0.0,0.0,3.2736,0.0,0.0,0.0,2.8798,0.0,0.0,0.0,0.0,0.0,0.0,0.0,0.0,0.0,0.0,0.0,0.0,0.0,0.0,0.0,0.0,0.0,2.5159,2.5737,2.6298,2.6625,2.6675,2.757,2.767,2.67,2.8122,2.8423,2.7394,2.8398,2.8888,2.8888,2.8888,2.9227,2.9804,2.9804,2.9804,2.9804,2.9804,2.9804,2.9804,2.9804,2.9804,2.9804,2.9804,3.0382,3.121,3.1361,3.2014,3.2935,3.3086,3.3111,3.3111,3.3111,3.3822,3.4781,3.5257,3.5881,3.6405,3.6405,3.6757,3.6985,3.6531,3.6782,3.696,3.6531,3.6782,3.7086,3.7086,3.7462,3.7839,3.7889,3.7914,3.8065,3.8517,3.8743,3.8944,3.9421,3.9622,3.9672,3.9622,3.9597,3.9597,3.9597,3.9597,3.9597,3.9597,3.9647,3.9672,3.9597,3.9672,3.9672,3.9597,3.9597,3.9597,3.9597,3.9597,3.9597,3.9597,3.9044,3.8467,3.7889,3.7337,3.7337,0.0,0.0,0.0,0.0,0.0,0.0,0.0,0.0,2.9748,0.0,0.0,0.0,0.0,0.0,0.0,0.0,0.0,0.0,0.0,0.0,0.0,0.0,0.0,0.0,0.0,0.0,0.0,0.0,0.0,2.6348,2.6021,2.7017,2.7419,2.6977,2.7921,2.8373,2.8247,2.9026,2.9428,2.9428,2.9428,2.9553,2.9804,2.9804,2.9804,2.9804,2.9804,2.9804,2.9804,2.9804,2.9804,2.9829,3.0156,3.0557,3.0984,3.1286,3.1888,3.2616,3.2968,3.3111,3.3194,3.3822,3.455,3.5257,3.5855,3.6182,3.6405,3.6405,3.6581,3.6707,3.6455,3.6581,3.6782,3.6857,3.701,3.7287,3.7588,3.7839,3.8115,3.8442,3.8517,3.8693,3.9245,3.9094,3.8994,3.917,3.9496,3.9697,3.9697,3.9697,3.9697,3.9697,3.9697,3.9697,3.9697,3.9697,3.9697,3.9697,3.9697,3.9697,3.9697,3.9697,3.9697,3.9697,3.9697,3.9697,3.9697,3.9471,3.922,3.8969,3.8065,3.7789,3.5519,0.0,0.0,0.0,0.0,0.0,0.0,0.0,0.0,0.0,0.0,0.0,0.0,0.0,0.0,0.0,0.0,0.0,0.0,0.0,0.0,0.0,0.0,0.0,0.0,0.0,0.0,0.0,0.0,0.0,2.5611,2.6515,2.7153,2.7304,2.7821,2.8373,2.8888,2.9503,2.9804,2.9804,2.9804,2.9804,2.9804,2.9804,2.9804,2.9804,2.9804,2.9804,2.9804,2.9804,2.9804,2.9854,3.0407,3.0708,3.0884,3.1411,3.1964,3.2516,3.2943,3.3212,3.3495,3.46,3.5182,3.5608,3.6207,3.6405,3.6405,3.6405,3.6405,3.6405,3.6405,3.6405,3.6556,3.7061,3.7287,3.7563,3.8115,3.8366,3.8592,3.9019,3.9094,3.922,3.9622,3.9371,3.9094,3.9094,3.9446,3.9697,3.9697,3.9697,3.9697,3.9697,3.9697,3.9697,3.9697,3.9697,3.9697,3.9697,3.9697,3.9697,3.9697,3.9697,3.9697,3.9697,3.9697,3.9697,3.9697,3.9697,3.9697,3.9672,3.8693,3.8316,0.0,0.0,0.0,3.4713,0.0,0.0,0.0,0.0,3.2228,0.0,0.0,0.0,0.0,0.0,0.0,0.0,0.0,0.0,0.0,0.0,0.0,0.0,0.0,0.0,0.0,0.0,0.0,0.0,0.0,0.0,2.5561,2.6197,2.6776,2.7268,2.7821,2.8373,2.8888,2.9503,2.9804,2.9804,2.9804,2.9804,2.9804,2.9804,2.9804,2.9804,2.9804,2.9804,2.9804,2.9804,2.9804,2.9854,3.0407,3.0934,3.1436,3.1989,3.2541,3.3043,3.3111,3.342,3.4048,3.5107,3.5483,3.5608,3.6207,3.6405,3.6405,3.6405,3.6405,3.6405,3.6405,3.6405,3.6556,3.7061,3.7588,3.814,3.8718,3.927,3.9647,3.9672,3.9672,3.9672,3.9697,3.9672,3.9672,3.9672,3.9697,3.9697,3.9697,3.9697,3.9697,3.9697,3.9697,3.9697,3.9697,3.9697,3.9697,3.9697,3.9697,3.9697,3.9697,3.9697,3.9697,3.9697,3.9697,3.9697,3.9697,3.9697,3.9697,3.9672,3.912,3.912,0.0,0.0,3.5459,3.522,0.0,0.0,0.0,0.0,0.0,0.0,0.0,0.0,0.0,0.0,0.0,0.0,0.0,0.0,0.0,0.0,0.0,0.0,0.0,0.0,0.0,0.0,0.0,0.0,0.0,0.0,0.0,2.5996,2.6751,2.7268,2.7821,2.8373,2.8888,2.9503,2.9804,2.9804,2.9804,2.9804,2.9804,2.9804,2.9804,2.9804,2.9804,2.9804,2.9829,3.0181,3.0331,3.0432,3.1311,3.1788,3.1964,3.2139,3.2566,3.3162,3.3495,3.3972,3.4575,3.5257,3.578,3.6107,3.6355,3.6405,3.6405,3.6405,3.6405,3.6405,3.6405,3.6405,3.6631,3.7513,3.7864,3.8266,3.922,3.9572,3.9697,3.9697,3.9697,3.9697,3.9697,3.9697,3.9697,3.9697,3.9697,3.9697,3.9697,3.9697,3.9697,3.9697,3.9697,3.9697,3.9697,3.9697,3.9697,3.9697,3.9697,3.9697,3.9697,3.9697,3.9697,3.9697,3.9697,3.9697,3.9697,3.9697,3.9697,3.9697,3.9496,3.9521,3.5519,3.5519,0.0,3.5519,3.519,0.0,3.4831,0.0,0.0,0.0,0.0,0.0,0.0,0.0,0.0,0.0,0.0,0.0,0.0,2.2716,0.0,0.0,0.0,0.0,0.0,0.0,0.0,0.0,0.0,0.0,0.0,0.0,2.6826,2.7544,2.8122,2.8674,2.9189,2.9603,2.9804,2.9804,2.9804,2.9804,2.9804,2.9804,2.9804,2.9804,2.9804,2.9804,2.9829,3.0382,3.0608,3.0733,3.1788,3.2215,3.224,3.2441,3.2767,3.3219,3.4148,3.46,3.4806,3.5604,3.6081,3.6405,3.6405,3.6405,3.6405,3.6405,3.6405,3.6405,3.6405,3.6556,3.6933,3.7789,3.8165,3.8567,3.9496,3.9697,3.9697,3.9697,3.9697,3.9697,3.9697,3.9697,3.9697,3.9697,3.9697,3.9697,3.9697,3.9697,3.9697,3.9697,3.9697,3.9697,3.9697,3.9697,3.9697,3.9697,3.9697,3.9697,3.9697,3.9697,3.9873,4.0275,3.9898,3.9898,4.0275,3.9898,3.9697,3.9697,3.9697,3.9697]}]]